[[{"header":{"parameterUnit":"m.s-1","parameterCategory":1,"la1":30.6,"la2":29.2853,"lo1":-89.7004,"lo2":-87.6739,"dx":0.0162,"dy":0.0183,"nx":112,"ny":82,"refTime":"2022-12-24T06:00:00:Z","depth":0,"parameterNumber":2,"parameterNumberName":"U-component_of_WINDS"},"data":[0.0,0.0,0.0,0.0,0.0,0.0,0.0,0.0,0.0,0.0,0.0,0.0,0.0,0.0,0.0,0.0,0.0,0.0,0.0,0.0,0.0,0.0,0.0,0.0,0.0,0.0,0.0,0.0,0.0,0.0,0.0,0.0,0.0,0.0,0.0,0.0,0.0,0.0,0.0,0.0,0.0,0.0,0.0,0.0,0.0,0.0,0.0,0.0,0.0,0.0,0.0,0.0,0.0,0.0,0.0,0.0,0.0,0.0,0.0,0.0,0.0,0.0,0.0,0.0,0.0,0.0,0.0,0.0,0.0,0.0,0.0,0.0,0.0,0.0,0.0,0.0,0.0,0.0,0.0,0.0,0.0,0.0,0.0,0.0,0.0,0.0,0.0,0.0,0.0,0.0,-3.9948,-3.9948,-3.9948,-4.0099,-4.0475,-4.0099,-3.9798,-3.9697,0.0,0.0,0.0,0.0,0.0,0.0,0.0,0.0,0.0,0.0,0.0,0.0,0.0,0.0,0.0,0.0,0.0,0.0,0.0,0.0,0.0,0.0,0.0,0.0,0.0,0.0,0.0,0.0,0.0,0.0,0.0,0.0,0.0,0.0,0.0,0.0,0.0,0.0,0.0,0.0,0.0,0.0,0.0,0.0,0.0,0.0,0.0,0.0,0.0,0.0,0.0,0.0,0.0,0.0,0.0,0.0,0.0,0.0,0.0,0.0,0.0,0.0,0.0,0.0,0.0,0.0,0.0,0.0,0.0,0.0,0.0,0.0,0.0,0.0,0.0,0.0,0.0,0.0,0.0,0.0,0.0,0.0,0.0,0.0,0.0,0.0,0.0,0.0,0.0,0.0,0.0,0.0,0.0,0.0,0.0,0.0,0.0,0.0,0.0,0.0,0.0,0.0,0.0,0.0,-4.105,-4.105,-4.105,-4.0874,-4.0551,-4.045,-4.0199,-3.9722,0.0,0.0,0.0,0.0,0.0,0.0,0.0,0.0,0.0,0.0,0.0,0.0,0.0,0.0,0.0,0.0,0.0,0.0,0.0,0.0,0.0,0.0,0.0,0.0,0.0,0.0,0.0,0.0,0.0,0.0,0.0,0.0,0.0,0.0,0.0,0.0,0.0,0.0,0.0,0.0,0.0,0.0,0.0,0.0,0.0,0.0,0.0,0.0,0.0,0.0,0.0,0.0,0.0,0.0,0.0,0.0,0.0,0.0,0.0,0.0,0.0,0.0,0.0,0.0,0.0,0.0,0.0,0.0,0.0,0.0,0.0,0.0,0.0,0.0,0.0,0.0,0.0,0.0,0.0,0.0,0.0,0.0,0.0,0.0,0.0,0.0,0.0,0.0,0.0,0.0,0.0,0.0,0.0,0.0,0.0,0.0,0.0,0.0,0.0,0.0,0.0,0.0,0.0,-4.1103,-4.1656,-4.13,-4.1605,-4.1555,-4.0949,-4.0701,-4.0275,-3.9722,-3.9446,0.0,0.0,0.0,0.0,0.0,0.0,0.0,0.0,0.0,0.0,0.0,0.0,0.0,0.0,0.0,0.0,0.0,0.0,0.0,0.0,0.0,0.0,0.0,0.0,0.0,0.0,0.0,0.0,0.0,0.0,0.0,0.0,0.0,0.0,0.0,0.0,0.0,0.0,0.0,0.0,0.0,0.0,0.0,0.0,0.0,0.0,0.0,0.0,0.0,0.0,0.0,0.0,0.0,0.0,0.0,0.0,0.0,0.0,0.0,0.0,0.0,0.0,0.0,0.0,0.0,0.0,0.0,0.0,0.0,0.0,0.0,0.0,0.0,0.0,0.0,0.0,0.0,0.0,0.0,0.0,0.0,0.0,0.0,0.0,0.0,0.0,0.0,0.0,0.0,0.0,0.0,0.0,0.0,0.0,0.0,0.0,0.0,0.0,0.0,0.0,0.0,0.0,-4.1681,-4.2233,-4.1957,-4.2183,-4.2183,-4.1756,-4.1229,-4.0601,-3.9923,-3.9998,0.0,0.0,0.0,0.0,0.0,0.0,0.0,0.0,0.0,0.0,0.0,0.0,0.0,0.0,0.0,0.0,0.0,0.0,0.0,0.0,0.0,0.0,0.0,0.0,0.0,0.0,0.0,0.0,0.0,0.0,0.0,0.0,0.0,0.0,0.0,0.0,0.0,0.0,0.0,0.0,0.0,0.0,0.0,0.0,0.0,0.0,0.0,0.0,0.0,0.0,0.0,0.0,0.0,0.0,0.0,0.0,0.0,0.0,0.0,0.0,0.0,0.0,0.0,0.0,0.0,0.0,0.0,0.0,0.0,0.0,0.0,0.0,0.0,0.0,0.0,0.0,0.0,0.0,0.0,0.0,0.0,0.0,0.0,0.0,0.0,0.0,0.0,0.0,0.0,0.0,0.0,0.0,0.0,0.0,0.0,0.0,0.0,0.0,0.0,0.0,0.0,0.0,-4.2233,-4.3112,-4.3589,-4.3212,-4.2911,-4.2861,-4.2414,-4.158,-4.0526,-4.0874,0.0,0.0,0.0,0.0,0.0,0.0,0.0,0.0,0.0,0.0,0.0,0.0,0.0,0.0,0.0,0.0,0.0,0.0,0.0,0.0,0.0,0.0,0.0,0.0,0.0,0.0,0.0,0.0,0.0,0.0,0.0,0.0,0.0,0.0,0.0,0.0,0.0,0.0,0.0,0.0,0.0,0.0,0.0,0.0,0.0,0.0,0.0,0.0,0.0,0.0,0.0,0.0,0.0,0.0,0.0,0.0,0.0,0.0,0.0,0.0,0.0,0.0,0.0,0.0,0.0,0.0,0.0,0.0,0.0,0.0,0.0,0.0,0.0,0.0,0.0,0.0,0.0,0.0,0.0,0.0,0.0,0.0,0.0,0.0,0.0,0.0,0.0,0.0,0.0,0.0,0.0,0.0,0.0,0.0,0.0,0.0,0.0,0.0,0.0,0.0,0.0,0.0,-4.3639,-4.4744,-4.5296,-4.5171,-4.492,-4.4568,-4.3388,-4.2333,-4.158,0.0,0.0,0.0,0.0,0.0,0.0,0.0,0.0,0.0,0.0,0.0,0.0,0.0,0.0,0.0,0.0,0.0,0.0,0.0,0.0,0.0,0.0,0.0,0.0,0.0,0.0,0.0,0.0,0.0,0.0,0.0,0.0,0.0,0.0,0.0,0.0,0.0,0.0,0.0,0.0,0.0,0.0,0.0,0.0,0.0,0.0,0.0,0.0,0.0,0.0,0.0,0.0,0.0,0.0,0.0,0.0,0.0,0.0,0.0,0.0,0.0,0.0,0.0,0.0,0.0,0.0,0.0,0.0,0.0,0.0,0.0,0.0,0.0,0.0,0.0,0.0,0.0,0.0,0.0,0.0,0.0,0.0,0.0,0.0,0.0,0.0,0.0,0.0,0.0,0.0,0.0,0.0,0.0,0.0,0.0,0.0,0.0,0.0,0.0,0.0,0.0,0.0,-4.3212,-4.4869,-4.615,-4.6527,-4.625,-4.5974,-4.5773,-4.4543,-4.3463,-4.2766,0.0,0.0,0.0,0.0,0.0,0.0,0.0,0.0,0.0,0.0,0.0,0.0,0.0,0.0,0.0,0.0,0.0,0.0,0.0,0.0,0.0,0.0,0.0,0.0,0.0,0.0,0.0,0.0,0.0,0.0,0.0,0.0,0.0,0.0,0.0,0.0,0.0,0.0,0.0,0.0,0.0,0.0,0.0,0.0,0.0,0.0,0.0,0.0,0.0,0.0,0.0,0.0,0.0,0.0,0.0,0.0,0.0,0.0,0.0,0.0,0.0,0.0,0.0,0.0,0.0,0.0,0.0,0.0,0.0,0.0,0.0,0.0,0.0,0.0,0.0,0.0,0.0,0.0,0.0,0.0,0.0,0.0,0.0,0.0,0.0,0.0,0.0,0.0,0.0,0.0,0.0,0.0,0.0,0.0,0.0,0.0,0.0,0.0,0.0,0.0,0.0,0.0,-4.389,-4.5773,-4.7093,-4.7179,-4.6175,-4.5748,-4.6301,-4.5824,-4.502,0.0,0.0,0.0,0.0,0.0,0.0,0.0,0.0,0.0,0.0,0.0,0.0,0.0,0.0,0.0,0.0,0.0,0.0,0.0,0.0,0.0,0.0,0.0,0.0,0.0,0.0,0.0,0.0,0.0,0.0,0.0,0.0,0.0,0.0,0.0,0.0,0.0,0.0,0.0,0.0,0.0,0.0,0.0,0.0,0.0,0.0,0.0,0.0,0.0,0.0,0.0,0.0,0.0,0.0,0.0,0.0,0.0,0.0,0.0,0.0,0.0,0.0,0.0,0.0,0.0,0.0,0.0,0.0,0.0,0.0,0.0,0.0,0.0,0.0,0.0,0.0,0.0,0.0,0.0,0.0,0.0,0.0,0.0,0.0,0.0,0.0,0.0,0.0,0.0,0.0,0.0,0.0,0.0,0.0,0.0,0.0,0.0,0.0,0.0,0.0,0.0,0.0,0.0,-4.5547,-4.7154,-4.8586,-4.9364,-4.8812,-4.846,-4.8611,-4.7405,-4.6652,-4.6702,0.0,0.0,0.0,0.0,0.0,0.0,0.0,0.0,0.0,0.0,0.0,0.0,0.0,0.0,0.0,0.0,0.0,0.0,0.0,0.0,0.0,0.0,0.0,0.0,0.0,0.0,0.0,0.0,0.0,0.0,0.0,0.0,0.0,0.0,0.0,0.0,0.0,0.0,0.0,0.0,0.0,0.0,0.0,0.0,0.0,0.0,0.0,0.0,0.0,0.0,0.0,0.0,0.0,0.0,0.0,0.0,0.0,0.0,0.0,0.0,0.0,0.0,0.0,0.0,0.0,0.0,0.0,0.0,0.0,0.0,0.0,0.0,0.0,0.0,0.0,0.0,0.0,0.0,0.0,0.0,0.0,0.0,0.0,0.0,0.0,0.0,0.0,0.0,0.0,0.0,0.0,0.0,0.0,0.0,0.0,0.0,0.0,0.0,0.0,0.0,0.0,0.0,-4.6928,-4.8611,-5.0017,-5.0695,-5.0268,-4.9916,-4.9916,-4.9012,-4.8385,-4.8259,0.0,0.0,0.0,0.0,0.0,0.0,0.0,0.0,0.0,0.0,0.0,0.0,0.0,0.0,0.0,0.0,0.0,0.0,0.0,0.0,0.0,0.0,0.0,0.0,0.0,0.0,0.0,0.0,0.0,0.0,0.0,0.0,0.0,0.0,0.0,0.0,0.0,0.0,0.0,0.0,0.0,0.0,0.0,0.0,0.0,0.0,0.0,0.0,0.0,0.0,0.0,0.0,0.0,0.0,0.0,0.0,0.0,0.0,0.0,0.0,0.0,0.0,0.0,0.0,0.0,0.0,0.0,0.0,0.0,0.0,0.0,0.0,0.0,0.0,0.0,0.0,0.0,0.0,0.0,0.0,0.0,0.0,0.0,0.0,0.0,0.0,0.0,0.0,0.0,0.0,0.0,0.0,0.0,0.0,0.0,0.0,0.0,0.0,0.0,0.0,0.0,0.0,-4.8209,-5.0017,-5.1348,-5.1348,-5.0896,-5.0569,-5.0569,-5.0519,-5.0117,-4.9213,0.0,0.0,0.0,0.0,0.0,0.0,0.0,0.0,0.0,0.0,0.0,0.0,0.0,0.0,0.0,0.0,0.0,0.0,0.0,0.0,0.0,0.0,0.0,0.0,0.0,0.0,0.0,0.0,0.0,0.0,0.0,0.0,0.0,0.0,0.0,0.0,0.0,0.0,0.0,0.0,0.0,0.0,0.0,0.0,0.0,0.0,0.0,0.0,0.0,0.0,0.0,0.0,0.0,0.0,0.0,0.0,0.0,0.0,0.0,0.0,-4.5669,-4.421,0.0,0.0,0.0,0.0,0.0,0.0,0.0,0.0,0.0,0.0,0.0,0.0,0.0,0.0,0.0,0.0,0.0,0.0,0.0,0.0,0.0,0.0,0.0,0.0,0.0,0.0,0.0,0.0,0.0,0.0,0.0,0.0,0.0,0.0,0.0,0.0,0.0,0.0,0.0,0.0,-4.9891,-5.1071,-5.1925,-5.1925,-5.1825,-5.1749,-5.1749,-5.1348,-5.1373,-5.2,-5.0795,0.0,0.0,0.0,0.0,0.0,0.0,0.0,0.0,0.0,0.0,0.0,0.0,0.0,0.0,0.0,0.0,0.0,0.0,0.0,0.0,0.0,0.0,0.0,0.0,0.0,0.0,0.0,0.0,0.0,0.0,0.0,0.0,0.0,0.0,0.0,0.0,0.0,0.0,0.0,0.0,0.0,0.0,0.0,0.0,0.0,0.0,0.0,0.0,0.0,0.0,0.0,0.0,0.0,0.0,0.0,0.0,0.0,0.0,0.0,-4.785,-4.6791,0.0,0.0,0.0,0.0,0.0,0.0,0.0,0.0,0.0,0.0,0.0,0.0,0.0,0.0,0.0,0.0,0.0,0.0,0.0,0.0,0.0,0.0,0.0,0.0,0.0,0.0,0.0,0.0,0.0,0.0,0.0,0.0,0.0,0.0,0.0,0.0,0.0,0.0,0.0,0.0,-5.0896,-5.18,-5.2503,-5.2503,-5.2503,-5.2503,-5.2503,-5.2226,-5.2201,-5.2528,-5.1724,0.0,0.0,0.0,0.0,0.0,0.0,0.0,0.0,0.0,0.0,0.0,0.0,0.0,0.0,0.0,0.0,0.0,0.0,0.0,0.0,0.0,0.0,0.0,0.0,0.0,0.0,0.0,0.0,0.0,0.0,0.0,0.0,0.0,0.0,0.0,0.0,0.0,0.0,0.0,0.0,0.0,0.0,0.0,0.0,0.0,0.0,0.0,0.0,0.0,0.0,0.0,0.0,0.0,-5.1033,-5.1088,-5.1482,-5.1601,-5.1391,-5.0877,-5.0241,-4.9581,-4.8856,-4.8449,0.0,0.0,0.0,0.0,0.0,0.0,0.0,0.0,0.0,0.0,0.0,0.0,0.0,0.0,0.0,0.0,0.0,0.0,0.0,0.0,0.0,0.0,-4.7485,-4.8324,-4.8871,-4.8545,-4.6062,0.0,0.0,0.0,0.0,0.0,0.0,0.0,0.0,0.0,0.0,0.0,-5.1825,-5.2503,-5.3105,-5.3206,-5.3206,-5.3206,-5.3206,-5.3206,-5.298,-5.2427,-5.2302,-5.1749,0.0,0.0,0.0,0.0,0.0,0.0,0.0,0.0,0.0,0.0,0.0,0.0,0.0,0.0,0.0,0.0,0.0,0.0,0.0,0.0,0.0,0.0,0.0,0.0,0.0,0.0,0.0,0.0,0.0,0.0,0.0,0.0,-4.0823,-4.0965,0.0,0.0,0.0,0.0,0.0,0.0,0.0,0.0,0.0,0.0,0.0,0.0,0.0,-4.9897,-4.9807,-5.1169,-5.1887,-5.2097,-5.3174,-5.3693,-5.3783,-5.4351,-5.447,-5.4188,-5.3765,0.0,-4.9582,-5.0075,0.0,0.0,0.0,0.0,0.0,0.0,0.0,0.0,0.0,0.0,0.0,0.0,0.0,0.0,0.0,0.0,0.0,0.0,0.0,0.0,0.0,0.0,-5.3792,-5.2457,-5.2519,-5.2687,-5.1793,-4.9052,-4.6616,-4.6163,-4.6849,-4.7983,0.0,0.0,0.0,0.0,0.0,0.0,-5.3406,-5.3507,-5.3783,-5.4285,-5.4361,-5.4361,-5.4361,-5.4361,-5.411,-5.3532,-5.308,-5.2327,-5.1222,-5.0544,0.0,0.0,0.0,0.0,0.0,0.0,0.0,0.0,0.0,0.0,0.0,0.0,0.0,0.0,0.0,0.0,0.0,0.0,0.0,0.0,0.0,0.0,0.0,0.0,0.0,0.0,0.0,0.0,0.0,-4.0816,-4.1803,-4.291,-4.3269,-4.3748,0.0,0.0,0.0,0.0,0.0,0.0,0.0,0.0,0.0,-5.0331,-5.0631,-5.096,-5.1349,-5.2276,-5.3144,-5.3892,-5.4491,-5.5149,-5.5837,-5.6137,-5.5893,-5.5278,-5.5175,-5.4164,-5.2574,-5.2362,-5.2484,-5.2804,0.0,0.0,0.0,0.0,-5.2368,-5.2688,-5.2688,-5.2688,-5.2804,-5.3442,0.0,0.0,0.0,0.0,0.0,0.0,0.0,-5.3625,-5.3761,-5.4106,-5.4453,-5.4734,-5.4732,-5.4453,-5.3895,-5.2763,-5.1336,-4.9673,-4.8855,-4.8937,-5.0619,-5.1825,0.0,0.0,0.0,-5.4536,-5.4235,-5.4185,-5.4411,-5.4963,-5.5039,-5.5039,-5.5039,-5.5039,-5.4787,-5.421,-5.3658,-5.3005,-5.2226,-5.1373,-5.0393,0.0,0.0,0.0,0.0,0.0,0.0,0.0,0.0,0.0,0.0,0.0,0.0,0.0,0.0,0.0,0.0,0.0,0.0,0.0,0.0,0.0,0.0,0.0,0.0,0.0,0.0,0.0,0.0,-4.2222,-4.324,-4.4885,-4.5095,-4.5603,0.0,0.0,0.0,0.0,0.0,0.0,-5.096,-5.0465,-5.0734,-5.1947,-5.1977,-5.2217,-5.2725,-5.3384,-5.4281,-5.5448,-5.5598,-5.6256,-5.7363,-5.7543,-5.7139,-5.6333,-5.6228,-5.5966,-5.5483,-5.4346,-5.4192,-5.4691,-5.4197,-5.4575,-5.5242,-5.382,-5.3704,-5.4255,-5.4255,-5.4342,-5.4575,-5.5068,-5.5242,-5.5242,-5.5242,0.0,0.0,0.0,0.0,-5.4542,-5.5632,-5.5332,-5.5196,-5.676,-5.6781,-5.6297,-5.5823,-5.5786,-5.5228,-5.3075,-5.1584,-5.1101,-5.2266,-5.3097,0.0,-5.4482,-5.5039,-5.529,-5.5013,-5.5114,-5.5415,-5.5968,-5.6043,-5.6043,-5.6043,-5.6043,-5.5742,-5.5039,-5.4587,-5.4034,-5.3381,-5.2302,-5.1498,-5.1071,0.0,0.0,0.0,0.0,0.0,0.0,0.0,0.0,0.0,0.0,0.0,0.0,0.0,0.0,0.0,0.0,0.0,0.0,0.0,0.0,0.0,0.0,0.0,0.0,0.0,0.0,0.0,0.0,0.0,-4.707,-4.716,0.0,0.0,0.0,0.0,-5.0106,-4.9643,-5.0437,-5.2905,-5.1259,-5.1362,-5.3982,-5.4072,-5.4072,-5.4102,-5.476,-5.5448,-5.6188,-5.6705,-5.7363,-5.8082,-5.871,-5.865,-5.7969,-5.7702,-5.7595,-5.7398,-5.5595,-5.5022,-5.5358,-5.5329,-5.5358,-5.5387,-5.53,-5.5678,-5.6258,-5.6258,-5.6636,-5.71,-5.7158,-5.7158,-5.7158,-5.7158,-5.6781,0.0,0.0,-5.629,-5.6435,-5.7071,-5.7624,-5.8262,-5.8987,-5.9132,-5.9132,-5.9074,-5.8078,-5.6824,-5.5394,-5.551,-5.5784,-5.5625,0.0,-5.54,-5.4673,-5.5039,-5.5566,-5.6068,-5.6595,-5.7123,-5.77,-5.7775,-5.7775,-5.7775,-5.7775,-5.7298,-5.6194,-5.6093,-5.5591,-5.4536,-5.3432,-5.2829,-5.2804,-5.1724,0.0,0.0,0.0,0.0,0.0,0.0,0.0,0.0,0.0,0.0,0.0,0.0,0.0,0.0,0.0,0.0,0.0,0.0,0.0,0.0,0.0,0.0,0.0,0.0,0.0,0.0,0.0,0.0,-4.6651,-4.7429,0.0,-4.9209,-4.9643,-5.0331,-5.1409,-5.1678,-5.2396,-5.3773,-5.3174,-5.3234,-5.4192,-5.461,-5.464,-5.4221,-5.5688,-5.6765,-5.7423,-5.8082,-5.8979,-6.0027,-5.9817,-5.9368,-5.874,-5.8214,-5.7874,-5.763,-5.675,-5.6602,-5.6913,-5.6691,-5.6636,-5.6636,-5.6636,-5.6781,-5.6984,-5.6984,-5.7129,-5.7303,-5.7303,-5.7303,-5.7303,-5.7303,-5.7448,-5.7623,-5.7623,-5.7942,-5.8319,-5.8523,-5.8755,-5.9103,-5.9742,-5.9887,-6.0003,-6.0438,-6.0427,-6.0234,-5.9806,-5.7813,-5.6458,-5.7127,-5.7597,-5.7781,-5.7617,-5.7693,-5.7691,-5.7372,-5.7474,-5.7801,-5.8353,-5.8102,-5.8052,-5.8403,-5.8102,-5.7725,-5.7323,-5.6947,-5.657,-5.6168,-5.5089,-5.4511,-5.4511,-5.3406,-5.3206,0.0,0.0,0.0,0.0,0.0,0.0,0.0,0.0,0.0,0.0,0.0,0.0,0.0,0.0,0.0,0.0,0.0,0.0,0.0,0.0,0.0,0.0,0.0,0.0,0.0,0.0,-4.6741,-4.695,-4.8147,-4.9284,-5.0182,-5.084,-5.1678,-5.2785,-5.3294,-5.3922,-5.482,-5.4461,-5.4521,-5.5149,-5.5598,-5.5748,-5.5538,-5.7034,-5.8112,-5.88,-5.9219,-6.0027,-6.1104,-6.0655,-5.9937,-5.9069,-5.865,-5.8214,-5.7821,-5.7522,-5.758,-5.7892,-5.7472,-5.7303,-5.7303,-5.7303,-5.7303,-5.7332,-5.7565,-5.7797,-5.7971,-5.7971,-5.7971,-5.7971,-5.7971,-5.8435,-5.8929,-5.8929,-5.9422,-6.0003,-6.0206,-6.0235,-6.0409,-6.1019,-6.1164,-6.1367,-6.2006,-6.247,-6.2819,-6.3022,-6.0682,-5.8653,-5.8943,-5.9539,-5.9832,-5.926,-5.9522,-5.9558,-5.8832,-5.888,-5.9081,-5.9232,-5.893,-5.8855,-5.9232,-5.9106,-5.8855,-5.8453,-5.8252,-5.7901,-5.7349,-5.662,-5.6244,-5.6244,-5.5315,-5.4913,-5.5114,0.0,0.0,0.0,0.0,0.0,0.0,0.0,0.0,0.0,0.0,0.0,0.0,0.0,0.0,0.0,0.0,0.0,0.0,0.0,0.0,0.0,0.0,0.0,-4.5544,-4.6501,-4.7578,-4.8267,-4.9494,-5.0734,-5.2067,-5.2785,-5.3473,-5.4162,-5.4221,-5.479,-5.6158,-5.497,-5.5149,-5.7034,-5.7124,-5.7453,-5.8112,-5.88,-5.9488,-6.0146,-6.0176,-6.0535,-6.1224,-6.1224,-6.0475,-5.9249,-5.9249,-5.886,-5.8208,-5.794,-5.8026,-5.8199,-5.7557,-5.7303,-5.7332,-5.7332,-5.7332,-5.7448,-5.8116,-5.8755,-5.9306,-5.9335,-5.9335,-5.9335,-5.9364,-5.9771,-6.0264,-6.0264,-6.0729,-6.1396,-6.2006,-6.2151,-6.2325,-6.3022,-6.3167,-6.3341,-6.398,-6.4062,-6.4299,-6.4909,-6.4067,-6.2822,-6.1408,-6.1723,-6.1547,-5.9703,-6.0472,0.0,-6.0576,-6.0972,-6.1123,-6.0465,-6.0415,-6.0415,-6.0311,-6.0839,-6.0713,-5.9583,-6.0035,-5.9633,-5.8052,-5.7976,-5.7951,-5.7901,-5.7323,-5.6244,-5.4637,0.0,0.0,0.0,0.0,0.0,0.0,0.0,0.0,0.0,0.0,0.0,0.0,0.0,0.0,0.0,0.0,0.0,0.0,0.0,0.0,0.0,0.0,-4.7728,-4.686,-4.7489,-4.8446,-4.9583,-5.0451,-5.1289,-5.2127,-5.2785,-5.3473,-5.4162,-5.4221,-5.479,-5.6158,-5.5837,-5.6077,-5.7064,-5.7573,-5.7932,-5.8112,-5.9249,-6.0386,-6.1553,-6.2032,-6.2839,-6.3947,-6.3438,-6.2989,-6.263,-6.2181,-6.1882,-6.1672,-6.0827,-6.0301,-5.9803,-5.8244,-5.7848,-5.8029,-5.8029,-5.8348,-5.8784,-5.8958,-5.9161,-5.9364,-5.98,-5.9945,-6.0032,-6.0526,-6.1106,-6.1571,-6.1571,-6.2064,-6.2732,-6.3341,-6.3516,-6.3777,-6.488,-6.5141,-6.5315,-6.5954,-6.6099,-6.6157,-6.6331,-6.6476,-6.6259,-6.5441,-6.5836,-6.604,-6.5261,-6.5446,-6.5364,-6.4567,-6.4683,-6.4254,-6.287,-6.269,-6.2019,-6.0415,-6.0839,-6.0864,-6.0136,-6.0638,-6.0563,-5.9684,-5.9659,-5.9106,-5.7926,-5.7323,-5.6821,0.0,0.0,0.0,0.0,0.0,0.0,0.0,0.0,0.0,0.0,0.0,0.0,0.0,0.0,0.0,0.0,0.0,0.0,0.0,0.0,0.0,0.0,-4.8506,-4.9075,-4.8955,-4.9284,-4.9912,-5.093,-5.1887,-5.2636,-5.2995,-5.3623,-5.4311,-5.497,-5.5029,-5.5478,-5.6496,-5.6555,-5.6855,-5.7513,-5.8441,-5.9069,-5.9368,-6.0924,-6.2121,-6.2899,-6.3588,-6.4306,-6.5024,-6.4605,-6.4276,-6.3977,-6.3617,-6.3318,-6.3049,-6.2458,-6.1749,-6.0865,0.0,0.0,0.0,0.0,-5.9132,-5.9684,-5.9684,-5.9858,-6.0206,-6.0787,-6.099,-6.1164,-6.2093,-6.2819,-6.337,-6.3632,-6.4183,-6.4764,-6.5141,-6.5228,-6.5402,-6.6157,-6.6331,-6.6506,-6.7173,-6.7522,-6.7783,-6.8044,-6.8625,0.0,-6.9263,-6.8944,-6.8497,-6.7876,-6.8028,-6.7814,-6.6917,-6.6773,-6.6288,-6.5136,-6.4957,-6.4162,-6.2249,-6.2603,0.0,0.0,0.0,-6.1165,-6.0362,-6.0085,0.0,0.0,0.0,-5.7399,-5.6696,-5.7349,0.0,0.0,-5.4285,-5.4361,0.0,0.0,0.0,0.0,0.0,0.0,0.0,0.0,0.0,0.0,0.0,0.0,0.0,0.0,0.0,0.0,-4.9703,-5.0764,-5.1468,-5.1558,-5.1768,-5.2366,-5.3414,-5.4192,-5.4401,-5.497,-5.5568,-5.6226,-5.6286,-5.6555,-5.7184,-5.7274,0.0,0.0,0.0,-6.0535,-6.1224,-6.2929,-6.3887,-6.4126,-6.4725,-6.5054,-6.5144,-6.5144,-6.4814,-6.4216,-6.4216,-6.3947,-6.3498,-6.3438,-6.2816,-6.1785,-6.041,-5.9448,-5.8982,-5.951,-6.0004,-6.0438,-6.0496,0.0,0.0,-6.2122,-6.2354,-6.2645,-6.3893,-6.4706,-6.5315,-6.5867,-6.6447,-6.6912,-6.697,-6.6999,-6.7028,-6.7173,-6.7202,-6.7405,-6.8044,-6.8654,-6.9205,-6.9786,-7.0395,-7.1208,-7.2398,-7.1208,-6.9864,-6.905,-6.9342,-6.9308,-6.8408,-6.8235,-6.7968,-6.7326,-6.7326,0.0,-6.4664,-6.5005,-6.4476,-6.2345,-6.2084,-6.1735,-6.0852,-5.9937,-5.9533,-5.9583,-5.9006,-5.7951,-5.6394,-5.6394,-5.5867,-5.4888,-5.6696,-5.6997,0.0,0.0,0.0,0.0,0.0,0.0,0.0,0.0,0.0,0.0,0.0,0.0,0.0,0.0,0.0,-5.0541,-5.1768,-5.2845,-5.3533,-5.3623,-5.3683,-5.3803,-5.3563,-5.4012,-5.5628,-5.5897,-5.6226,-5.6855,-5.6915,-5.7214,-5.7872,-5.8441,-5.9009,-5.9668,-6.0505,-6.1224,-6.1912,-6.2271,-6.3258,-6.4844,-6.4964,0.0,-6.5832,-6.5832,-6.5742,-6.5622,-6.5622,-6.5862,-6.6191,-6.5652,-6.4875,-6.3803,-6.1732,-6.0646,-6.0472,-6.1554,-6.187,-6.1803,-6.2354,-6.2616,-6.2819,-6.3457,-6.4009,-6.4561,-6.5344,-6.6012,0.0,-6.6651,-6.6796,-6.6999,-6.7551,-6.7696,-6.7957,-6.8973,-6.9205,-6.9379,-7.0047,-7.0279,-7.0395,-7.0512,-7.1063,-7.1731,-7.2485,-7.2311,-7.214,-7.249,-7.2692,-7.246,-7.174,-7.161,-7.1117,-6.9727,-6.9923,-6.8682,-6.482,-6.5371,-6.5186,-6.3311,-6.2793,-6.2922,-6.3701,-6.1016,-5.9709,-6.0161,-5.9207,-5.8353,-5.7575,-5.7575,-5.7223,-5.652,-5.5641,-5.5089,0.0,0.0,0.0,0.0,0.0,0.0,0.0,0.0,0.0,0.0,0.0,-4.903,-4.9643,0.0,-5.105,-5.2037,-5.3025,-5.3832,-5.4162,-5.4221,-5.4341,-5.467,-5.47,-5.511,-5.6128,-5.6436,-5.6915,-5.7573,-5.7902,-5.8381,-5.9069,-5.9757,-6.0266,-6.0595,-6.1253,-6.1762,-6.2091,-6.272,-6.3707,-6.5024,-6.5353,-6.5862,-6.649,-6.649,-6.649,-6.649,-6.649,-6.67,-6.6909,-6.5922,-6.5203,-6.4636,-6.285,-6.2262,-6.2497,-6.3144,-6.3137,-6.2861,-6.3211,-6.3266,-6.3196,-6.3835,-6.4241,-6.4735,-6.6012,-6.6622,-6.7028,-6.7667,-6.8073,-6.8421,-6.8741,-6.906,-6.9466,-7.0105,-7.025,-7.0337,-7.0657,-7.0976,-7.1208,-7.1208,-7.1702,-7.2456,-7.3385,-7.3327,-7.3211,-7.356,-7.3618,-7.3385,-7.2718,-7.2602,-7.2316,-7.1494,-7.1605,-7.061,-6.7577,-6.6799,-6.5938,-6.4843,-6.4155,-6.3642,-6.3199,-6.2025,-6.096,-5.9885,-5.9846,-5.9361,-5.8303,-5.8579,-5.8403,-5.7876,-5.7298,-5.6746,0.0,0.0,0.0,0.0,0.0,0.0,0.0,-4.7399,-4.7908,-4.8686,-4.9374,-5.0002,-5.0511,-5.1212,-5.2157,-5.3204,-5.3952,-5.4401,-5.4401,-5.4521,-5.479,-5.5329,-5.5748,-5.6137,-5.6526,-5.7004,-5.7633,-5.8441,-5.9009,-5.9578,-6.0266,-6.0924,-6.1313,-6.1313,-6.1942,-6.2361,-6.248,-6.3498,-6.4425,-6.5233,-6.5742,-6.6281,-6.6789,-6.6789,-6.6789,-6.6789,-6.6789,-6.6729,-6.652,-6.5473,-6.5114,-6.5114,-6.4066,-6.407,-6.463,-6.4303,-6.406,-6.3872,-6.3957,-6.383,-6.3669,-6.4067,-6.4386,-6.4909,-6.6564,-6.726,-6.7696,-6.8857,-6.9554,-6.996,-6.996,-7.0337,-7.0744,-7.086,-7.0918,-7.0947,-7.1063,-7.1498,-7.1847,-7.1847,-7.2282,-7.3008,-7.4285,-7.4024,-7.3647,-7.3763,-7.3705,-7.3385,-7.2718,-7.2602,-7.2602,-7.2602,-7.2586,-7.1841,-7.0075,-6.8059,-6.6773,-6.6602,-6.5892,-6.4787,-6.3362,-6.3477,-6.2538,-6.0174,-6.0777,-6.0317,-5.873,-5.9131,-5.9131,-5.873,-5.9156,-5.893,-4.7283,-4.7938,-4.9234,-4.8192,-4.9056,-5.0061,0.0,-4.9404,-4.9404,-5.0631,-5.1409,-5.1887,-5.1977,-5.3025,-5.3922,-5.4072,-5.464,-5.5089,-5.5089,-5.5598,-5.5987,-5.6098,-5.5598,-5.5987,-5.7752,-5.7962,-5.853,-5.9757,-5.9937,-6.0266,-6.0954,-6.1613,-6.2002,-6.2002,-6.263,-6.3228,-6.3767,-6.3917,-6.4635,-6.5892,-6.5981,-6.6041,-6.6131,-6.6131,-6.6131,-6.6131,-6.6131,-6.5772,-6.5233,-6.5084,-6.5383,-6.5892,-6.5742,-6.607,-6.6488,-6.4992,-6.463,-6.4914,-6.5191,-6.527,-6.5207,-6.4978,-6.5635,-6.6709,-6.7522,-6.8567,-6.9612,-7.0308,-7.057,-7.0628,-7.0628,-7.0657,-7.086,-7.144,-7.1557,-7.1731,-7.2282,-7.2456,-7.2515,-7.2515,-7.2573,-7.3008,-7.4285,-7.4024,-7.3792,-7.4343,-7.3966,-7.3385,-7.2718,-7.2602,-7.2602,-7.2602,-7.2391,-7.1329,-6.9137,-6.7872,-6.7669,-6.8776,-6.7769,-6.7573,-6.849,-6.6185,-6.4143,-6.2474,-6.1976,-6.0704,-5.873,-5.878,-5.878,-5.873,-5.878,-5.8981,-4.9534,-4.9529,-4.9709,-4.9233,-4.9566,-4.9896,-4.9704,-4.9763,-5.0212,-5.1528,-5.2007,-5.2426,-5.3234,-5.3832,-5.4341,0.0,-5.4999,-5.5329,-5.5718,-5.5987,-5.6466,-5.7214,-5.7064,-5.7214,-5.8052,-5.883,-5.9488,-6.0057,-6.0805,-6.1373,-6.1672,-6.2301,-6.266,-6.266,-6.3288,-6.3737,-6.4006,-6.4395,-6.5084,-6.6011,-6.6011,-6.6011,-6.6011,-6.6011,-6.5802,-6.5443,-6.5443,-6.5503,-6.5562,-6.5173,-6.5413,-6.5981,-6.5592,-6.5832,-6.64,-6.6099,-6.5791,-6.5624,-6.5702,-6.5664,-6.547,-6.5531,-6.6416,-6.7676,-6.8236,-6.9196,-7.0176,-7.061,-7.0976,-7.1266,-7.1266,-7.1557,-7.1905,-7.2166,-7.2224,-7.2282,-7.2573,-7.2602,-7.2602,-7.2602,-7.2602,-7.3008,-7.4285,-7.3676,-7.3385,-7.4372,-7.4213,-7.3644,-7.2689,-7.2773,-7.2699,-7.2108,-7.1639,-7.0906,-6.9958,-6.9174,-6.9104,-7.002,-6.9289,-6.8782,-6.8847,-6.8512,-6.7196,-6.4793,-6.5341,-6.4775,-6.3024,-6.3291,-6.3018,-6.2045,-6.238,-6.2114,-5.116,-5.1154,-5.0802,-5.0331,-5.0332,-5.0457,-5.0276,-5.0485,-5.105,-5.2007,-5.2486,-5.3054,-5.4042,-5.4371,-5.464,-5.5119,-5.5179,-5.5418,-5.6128,-5.6316,-5.6855,-5.7992,-5.8441,-5.865,-5.865,-5.9518,-6.0236,-6.0625,-6.1553,-6.2181,-6.2361,-6.2989,-6.3318,-6.3318,-6.3947,-6.4366,-6.4545,-6.4874,-6.5353,-6.6011,-6.5832,-6.5742,-6.5742,-6.5922,-6.5652,-6.5054,-6.5233,-6.5473,-6.5712,-6.5233,-6.5533,-6.6221,-6.5742,-6.6071,-6.6909,-6.7358,-6.7108,-6.6524,-6.6461,-6.6391,-6.6344,-6.6429,-6.7237,-6.823,-6.8748,-6.9651,-7.0507,-7.0871,-7.144,-7.1934,-7.1934,-7.2282,-7.2602,-7.2602,-7.2602,-7.2602,-7.2602,-7.2602,-7.2602,-7.2602,-7.2602,-7.2979,-7.4082,-7.3356,-7.2979,-7.4227,-7.4239,-7.3725,-7.276,-7.2699,-7.249,-7.1819,-7.1039,-7.0602,-7.0604,-7.003,-6.9981,-7.0824,-7.0348,-6.9881,-6.9536,-7.0473,-6.9722,-6.7055,-6.7887,-6.7658,-6.6114,-6.6474,-6.6088,-6.4968,-6.5314,-6.4664,-5.1739,-5.2993,-5.3624,-5.2131,-5.2623,-5.3299,-5.2653,-5.232,-5.2157,-5.2187,-5.3234,-5.4162,-5.4192,-5.473,-5.5179,-5.5179,-5.5179,-5.5418,-5.6128,-5.6675,-5.7334,-5.8052,-5.9249,-6.0027,0.0,-6.0057,-6.0625,-6.1942,-6.2061,-6.2361,-6.3019,-6.3617,-6.3977,-6.3977,-6.4635,-6.5293,-6.5951,-6.5323,-6.5353,-6.6011,-6.5353,-6.5054,-6.5084,-6.5712,-6.5652,-6.5054,-6.5712,-6.5622,-6.5054,-6.5054,-6.5802,-6.6969,-6.6939,-6.7747,-6.8914,-6.8944,-6.8525,-6.7864,-6.7582,-6.7842,-6.8343,-6.8023,-6.8171,-6.8488,-6.9065,-6.9972,-7.0831,-7.1469,-7.2108,-7.2573,-7.2573,-7.2602,-7.2602,-7.2602,-7.2602,-7.2602,-7.2602,-7.2602,-7.2602,-7.2602,-7.2602,-7.2834,-7.3531,-7.3066,-7.3006,-7.4034,-7.4021,-7.351,-7.2673,-7.2079,-7.175,-7.1797,-7.0945,-7.0338,-7.0354,-6.97,-6.9854,-7.1238,-7.0923,-7.1167,-7.2443,-7.1963,-7.0907,-6.9337,-6.8718,-6.7658,-6.6114,-6.6141,-6.6067,-6.6067,-6.6094,-6.5516,-5.4453,-5.5031,-5.5481,-5.4975,-5.4222,-5.3606,-5.3314,-5.2714,-5.2456,-5.3354,-5.3892,-5.4221,-5.4221,-5.476,-5.5029,-5.461,-5.491,-5.5568,-5.6645,-5.6974,-5.7513,-5.865,-5.9548,0.0,0.0,0.0,0.0,-6.2061,-6.251,-6.3019,-6.3647,-6.3887,-6.4216,-6.4665,-6.4904,-6.5144,-6.5353,-6.5144,-6.5353,-6.6011,-6.5772,-6.5682,-6.5682,-6.5473,-6.5473,-6.5682,-6.5922,-6.637,-6.6969,-6.6969,-6.7508,-6.8315,-6.8315,-6.8585,-6.9004,-6.9004,-6.9123,-6.9243,-6.8415,-6.8322,-6.8525,-6.8584,-6.9276,-7.0123,-7.0245,-7.0837,-7.1522,-7.1889,-7.2029,-7.2079,-7.2515,-7.2602,-7.2602,-7.2602,-7.2602,-7.2602,-7.2602,-7.2602,-7.2602,-7.2602,-7.2602,-7.2834,-7.3501,-7.3066,-7.2615,-7.2553,-7.3293,-7.3761,-7.3761,-7.2402,-7.1433,-7.1503,-7.0166,-6.9331,-6.9366,-6.9098,-6.9486,-7.0795,-7.0784,-7.1295,-7.2573,-7.2427,-7.2069,-7.1539,-7.1338,-7.0908,-7.0403,-7.0403,-6.9866,-6.8809,-6.8809,-6.7996,-5.6652,-5.7086,-5.7417,-5.6941,-5.5863,-5.4923,-5.4988,-5.4191,-5.3693,-5.457,-5.4619,-5.4551,-5.4551,-5.491,-5.5059,-5.464,-5.5119,-5.5897,-5.6944,-5.7304,-5.7962,-5.9308,-6.0057,-6.0715,0.0,0.0,0.0,-6.245,-6.3049,-6.3588,-6.3977,-6.4246,-6.4575,-6.5024,-6.5263,-6.5383,-6.5383,-6.5383,-6.5473,-6.5652,-6.5652,-6.5772,-6.6011,-6.5802,-6.6071,-6.6729,-6.6969,-6.7567,-6.8345,-6.8345,-6.8734,-6.9363,-6.9363,-6.9482,-6.9692,-6.9692,-6.9961,-7.0231,-6.9351,-6.9198,-6.9402,-6.956,-7.0106,-7.0718,-7.0674,-7.0998,-7.1511,-7.1776,-7.1988,-7.2169,-7.2528,-7.2702,-7.2715,-7.234,-7.2528,-7.2715,-7.234,-7.2528,-7.2773,-7.2631,-7.2602,-7.2747,-7.3182,-7.2932,-7.2561,-7.2332,-7.2935,-7.3428,-7.3221,-7.1865,-7.1053,-7.1326,-7.0183,-6.9404,-6.9537,-6.9404,-6.9805,-7.0858,-7.1082,-7.1528,-7.2437,-7.2728,-7.2844,-7.2844,-7.2702,-7.2702,-7.2844,-7.2702,-7.21,-7.1028,-7.1028,-7.0192,-5.8339,-5.9156,-5.935,-5.7956,-5.7396,-5.7198,-5.7431,-5.6586,-5.5731,-5.5684,-5.5505,-5.5269,-5.5209,-5.5209,-5.5239,-5.5209,-5.5718,-5.6346,-5.7004,-5.7663,-5.856,0.0,0.0,0.0,0.0,0.0,0.0,-6.3109,-6.3677,-6.4006,-6.4036,-6.4665,-6.5054,-6.5084,-6.5652,-6.5981,-6.6011,-6.6011,-6.5712,-6.5114,-6.5173,-6.5533,-6.6191,-6.6819,-6.7448,-6.8106,-6.8764,-6.9064,-6.9093,-6.9093,-6.9453,-7.0021,-7.0021,-7.038,-7.0889,-7.0889,-7.0889,-7.0829,-7.0231,-7.041,-7.0889,-7.0889,-7.0694,-7.0462,-7.0462,-7.0614,-7.0863,-7.1229,-7.2012,-7.2698,-7.267,-7.2915,-7.2911,-7.2017,-7.2478,-7.2911,-7.1988,-7.2578,-7.3128,-7.2702,-7.2631,-7.2631,-7.2702,-7.2713,-7.2867,-7.318,-7.2954,-7.2432,-7.1503,-7.078,-7.064,-7.134,-7.0813,-7.0462,-7.0854,-7.0528,-7.0598,-7.1281,-7.1664,-7.1944,-7.2175,-7.2847,-7.3228,-7.3228,-7.2773,-7.2773,-7.3157,-7.2773,-7.2602,-7.2602,-7.2602,-7.1783,-5.9581,-6.0157,-6.052,-5.9597,-5.8763,-5.802,-5.7268,-5.673,-5.6151,-5.5478,-5.6011,-5.6316,-5.5359,-5.5598,-5.5777,-5.5269,-5.5329,-5.5837,-5.6944,-5.7244,0.0,-5.9877,0.0,-6.1373,-6.2032,-6.269,0.0,0.0,-6.3917,-6.4216,-6.4755,-6.4934,-6.5263,-6.5742,-6.5443,-6.5503,-6.6011,-6.6011,-6.6161,-6.649,-6.6999,-6.7597,-6.8256,-6.8405,-6.8854,-6.9482,-6.9662,-6.9991,-7.041,-7.041,-7.053,-7.0679,-7.0679,-7.0769,-7.0889,-7.0889,-7.0889,-7.0889,-7.0709,-7.0769,-7.0889,-7.0889,-7.0824,-7.0759,-7.0759,-7.0647,-7.074,-7.1761,-7.1865,-7.1933,-7.3187,-7.3128,-7.2715,-7.2782,-7.3011,-7.3099,-7.2853,-7.3222,-7.3551,-7.3157,-7.3057,-7.3128,-7.341,-7.2679,-7.2051,-7.2187,-7.1347,-7.1125,-7.2306,-7.1659,-7.1207,-7.1407,-7.0349,-6.9737,-7.0134,-6.9803,-6.9868,-7.0544,-7.1364,-7.1944,-7.2175,-7.2847,-7.3228,-7.3228,-7.2773,-7.2631,-7.2773,-7.2631,-7.2602,-7.2602,-7.2602,-7.2387,-6.039,-6.0788,-6.102,-6.0589,-6.0083,-5.9553,-5.8961,-5.7761,-5.6745,-5.6528,-5.6133,-5.5777,-5.5658,-5.5688,-5.5718,-5.5628,-5.5628,-5.5957,-5.6944,-5.7363,-5.8291,0.0,-6.0864,0.0,-6.245,-6.3109,-6.3767,0.0,-6.4186,-6.4306,-6.4934,-6.5024,-6.5203,-6.5562,-6.5503,-6.5922,-6.6849,-6.6879,-6.7208,-6.7867,-6.8256,-6.8764,-6.9423,-6.9423,-6.9782,-7.038,-7.038,-7.059,-7.0889,-7.0889,-7.0889,-7.0889,-7.0889,-7.0889,-7.0889,-7.0889,-7.0889,-7.0889,-7.0889,-7.0889,-7.0889,-7.0889,-7.0889,-7.0889,-7.0889,-7.0789,-7.0861,-7.1971,-7.2155,-7.2276,-7.3506,-7.3345,-7.2812,-7.2618,-7.2904,-7.3121,-7.2687,-7.3348,-7.3812,-7.3128,-7.3234,-7.3374,-7.3202,-7.2492,-7.1969,-7.1874,-7.0984,-7.073,-7.187,-7.1368,-7.1027,-7.1159,-7.0473,-7.0134,-7.0331,-7.0134,-7.0149,-7.0504,-7.1355,-7.1977,-7.2248,-7.2896,-7.3396,-7.3691,-7.3128,-7.2915,-7.3128,-7.2744,-7.2602,-7.2602,-7.2602,-7.2602,-6.0887,-6.1119,-6.1119,-6.1119,-6.1119,-6.1044,-6.0787,-5.9003,-5.7453,-5.768,-5.6076,-5.488,-5.5867,-5.5658,-5.5508,-5.6128,-5.6158,-5.6316,-5.7124,-5.7663,-5.877,-6.0864,-6.1104,-6.1642,-6.2959,-6.3647,-6.4246,-6.4844,-6.4336,-6.4336,-6.5114,-6.5084,-6.5054,-6.5144,-6.5892,-6.6819,-6.7956,-6.8076,-6.8465,-6.9123,-6.9123,-6.9482,-7.0111,-7.0111,-7.038,-7.0889,-7.0889,-7.0889,-7.0889,-7.0889,-7.0889,-7.0889,-7.0889,-7.0889,-7.0889,-7.0889,-7.0889,-7.0889,-7.0889,-7.0889,-7.0889,-7.0889,-7.0889,-7.0889,-7.0889,-7.0889,-7.1123,-7.2105,-7.2626,-7.2992,-7.3665,-7.3547,-7.3023,-7.2187,-7.2688,-7.3091,-7.2276,-7.331,-7.407,-7.3143,-7.3458,-7.3556,-7.2565,-7.2395,-7.2254,-7.1996,-7.1338,-7.0889,-7.0889,-7.0658,-7.0593,-7.0854,-7.0854,-7.0854,-7.0889,-7.0854,-7.0824,-7.0824,-7.1517,-7.2043,-7.2298,-7.2951,-7.3634,-7.4318,-7.3621,-7.3439,-7.3761,-7.3128,-7.2773,-7.2702,-7.2702,-7.2631,-6.0755,-6.1119,-6.1119,-6.1119,-6.1119,-6.0712,-5.9262,-5.8857,-5.8248,-5.6402,-5.6362,-5.6346,-5.5508,-5.5718,-5.6047,-5.6188,-5.5718,-5.5957,-5.7693,-5.7543,-5.8231,0.0,-6.1104,-6.1642,-6.2959,-6.3647,0.0,-6.4156,-6.4066,-6.4545,-6.5772,-6.5323,-6.5263,-6.5832,-6.6999,-6.7747,-6.7956,-6.8525,-6.9153,-6.9812,-6.9812,-7.0141,-7.0739,-7.0739,-7.0799,-7.0889,-7.0889,-7.0889,-7.0889,-7.0889,-7.0889,-7.0889,-7.0889,-7.0889,-7.0889,-7.0889,-7.0889,-7.0889,-7.0889,-7.0889,-7.0889,-7.0889,-7.0889,-7.0889,-7.0889,-7.0889,-7.1188,-7.2468,-7.2626,-7.2641,-7.3648,-7.3358,-7.2896,-7.3023,-7.315,-7.3427,-7.3803,-7.41,-7.4208,-7.3827,-7.401,-7.3902,-7.2932,-7.276,-7.2618,-7.1996,-7.1338,-7.0889,-7.0889,-7.0854,-7.0854,-7.0889,-7.0658,-7.0593,-7.0919,-7.0658,-7.0528,-7.0528,-7.1386,-7.2073,-7.2357,-7.2981,-7.3634,-7.4318,-7.3901,-7.3691,-7.3761,-7.3621,-7.341,-7.3057,-7.3057,-7.2915,-6.0821,-6.1119,-6.1119,-6.1119,-6.1119,-6.0762,-5.9554,-5.8385,-5.7221,-5.6059,-5.542,-5.497,-5.473,-5.494,-5.5269,-5.5598,-5.5388,-5.5748,-5.7363,-5.7603,-5.8501,-6.0835,-6.1104,-6.1642,0.0,-6.3947,-6.4395,-6.4036,-6.4336,-6.4814,-6.5473,-6.5533,-6.6011,-6.6999,-6.7627,-6.8378,-6.9004,-6.9333,-6.9842,-7.047,-7.047,-7.062,-7.0889,-7.0889,-7.0889,-7.0889,-7.0889,-7.0889,-7.0889,-7.0889,-7.0889,-7.0889,-7.0889,-7.0889,-7.0889,-7.0889,-7.0889,-7.0889,-7.0889,-7.0889,-7.0889,-7.0889,-7.0889,-7.0889,-7.0889,-7.0889,-7.1188,-7.2535,-7.276,-7.2842,-7.3664,-7.3372,-7.29,-7.3036,-7.3342,-7.3789,-7.4445,-7.4594,-7.4364,-7.3515,-7.4044,-7.4036,-7.2139,-7.2445,-7.2565,-7.1517,-7.1098,-7.0889,-7.0889,-7.0889,-7.0889,-7.0889,-7.0789,-7.0724,-7.0919,-7.0789,-7.0658,-7.0658,-7.1123,-7.1601,-7.209,-7.2745,-7.3401,-7.4087,-7.407,-7.397,-7.3761,-7.358,-7.3269,-7.2915,-7.2915,-7.2773,-6.0655,-6.0986,-6.1119,-6.1119,-6.1119,-6.0821,-5.9761,-5.7903,-5.6246,-5.5683,-5.4206,-5.3084,-5.3503,-5.3683,-5.3982,-5.464,-5.488,-5.5478,-5.6885,-5.7573,-5.865,0.0,-6.1014,0.0,-6.2959,-6.4246,0.0,-6.4066,-6.4755,-6.5173,-6.5054,-6.5922,-6.6909,-6.7989,-6.8256,-6.8914,-6.9961,-7.0111,-7.041,-7.0889,-7.0889,-7.0889,-7.0889,-7.0889,-7.0889,-7.0889,-7.0889,-7.0889,-7.0889,-7.0889,-7.0889,-7.0889,-7.0889,-7.0889,-7.0889,-7.0889,-7.0889,-7.0889,-7.0889,-7.0889,-7.0889,-7.0889,-7.0889,-7.0889,-7.0889,-7.0889,-7.1158,-7.2355,-7.2684,-7.2804,-7.3343,-7.3073,-7.2744,-7.2894,-7.3522,-7.424,-7.4779,-7.4869,-7.448,-7.3163,-7.3851,-7.3851,-7.1338,-7.1906,-7.2295,-7.1068,-7.0889,-7.0889,-7.0889,-7.0889,-7.0889,-7.0889,-7.0889,-7.0889,-7.0889,-7.0889,-7.0889,-7.0889,-7.0889,-7.1188,-7.1846,-7.2535,-7.3223,-7.3881,-7.4266,-7.4318,-7.404,-7.3691,-7.334,-7.2957,-7.2915,-7.2844,-5.9893,-6.0589,-6.1119,-6.1119,-6.1119,-6.0556,-5.8469,-5.7504,-5.6441,-5.449,-5.3101,-5.2127,-5.1588,-5.1977,-5.2606,-5.3264,0.0,-5.497,-5.6825,-5.7154,-5.7932,-5.9937,0.0,0.0,-6.2959,-6.4246,-6.4755,-6.4066,-6.5203,-6.5652,-6.4994,-6.6789,-6.7837,-6.7956,-6.9153,-6.9871,-6.9991,-7.053,-7.0859,-7.0889,-7.0889,-7.0889,-7.0889,-7.0889,-7.0889,-7.0889,-7.0889,-7.0889,-7.0889,-7.0889,-7.0889,-7.0889,-7.0889,-7.0889,-7.0889,-7.0889,-7.0889,-7.0889,-7.0889,-7.0889,-7.0889,-7.0889,-7.0889,-7.0889,-7.0889,-7.0889,-7.1038,-7.1787,-7.1966,-7.1996,-7.2056,-7.2026,-7.2146,-7.2774,-7.3881,-7.4809,-7.4869,-7.4869,-7.448,-7.3163,-7.3492,-7.3343,-7.1248,-7.1517,-7.1727,-7.1009,-7.0889,-7.0889,-7.0889,-7.0889,-7.0889,-7.0889,-7.0889,-7.0889,-7.0889,-7.0889,-7.0889,-7.0889,-7.0889,-7.1188,-7.1846,-7.2535,-7.3223,-7.3881,-7.454,-7.48,-7.48,-7.4731,-7.4525,-7.411,-7.3831,-7.348,-5.9603,-6.0225,-6.0556,-6.0986,-6.0423,-5.9308,-5.7437,-5.578,-5.41,-5.2317,-5.1393,-5.081,-5.0152,-5.09,-5.1828,-5.2486,0.0,0.0,-5.6825,-5.7453,-5.8471,-6.0475,-6.0954,0.0,0.0,0.0,-6.5084,-6.5203,-6.5712,-6.6071,-6.6191,-6.7328,-6.8345,-6.9153,-6.9692,-7.0171,-7.053,-7.0769,-7.0889,-7.0889,-7.0889,-7.0889,-7.0889,-7.0889,-7.0889,-7.0889,-7.0889,-7.0889,-7.0889,-7.0889,-7.0889,-7.0889,-7.0889,-7.0889,-7.0889,-7.0889,-7.0889,-7.0889,-7.0889,-7.0889,-7.0889,-7.0889,-7.0889,-7.0889,-7.0889,-7.0889,-7.1038,-7.1697,-7.1876,-7.1876,-7.1876,-7.2206,-7.2684,-7.3343,-7.421,-7.4869,-7.4869,-7.4869,-7.448,-7.3163,-7.3432,-7.3253,-7.1248,-7.1457,-7.1667,-7.1009,-7.0889,-7.0889,-7.0889,-7.0889,-7.0889,-7.0889,-7.0889,-7.0889,-7.0889,-7.0889,-7.0889,-7.0889,-7.0889,-7.1009,-7.1278,-7.2325,-7.3043,-7.3283,-7.433,-7.48,-7.4525,-7.4525,-7.4248,-7.3621,-7.3761,-7.3551,-5.8575,-5.933,-5.9794,-6.0324,-5.9496,-5.8104,-5.6279,-5.4255,-5.2198,-5.0399,-4.9651,-4.9224,-4.8775,-4.9763,-5.093,-5.1768,0.0,-5.4521,-5.6286,-5.7274,-5.856,-6.0565,0.0,-6.1792,-6.3498,-6.4665,-6.5592,-6.6251,-6.649,-6.6879,-6.7537,-6.8196,-6.9004,-6.9961,-7.0141,-7.047,-7.0889,-7.0889,-7.0889,-7.0889,-7.0889,-7.0889,-7.0889,-7.0889,-7.0889,-7.0889,-7.0889,-7.0889,-7.0889,-7.0889,-7.0889,-7.0889,-7.0889,-7.0889,-7.0889,-7.0889,-7.0889,-7.0889,-7.0889,-7.0889,-7.0889,-7.0889,-7.0889,-7.0889,-7.0889,-7.0889,-7.1009,-7.1457,-7.1577,-7.1637,-7.1846,-7.2385,-7.3073,-7.3732,-7.439,-7.4869,-7.4869,-7.4869,-7.448,-7.3163,-7.3283,-7.3043,-7.1218,-7.1278,-7.1427,-7.0979,-7.0889,-7.0889,-7.0889,-7.0889,-7.0889,-7.0889,-7.0889,-7.0889,-7.0889,-7.0889,-7.0889,-7.0889,-7.0889,-7.0889,-7.0889,-7.2206,-7.2924,-7.2924,-7.421,-7.4731,-7.4456,-7.4456,-7.4179,-7.3691,-7.3831,-7.3691,-5.6591,-5.7806,-5.8899,-5.8933,-5.8369,-5.7212,-5.4944,-5.3166,-5.1379,-4.9099,-4.7922,-4.7339,-4.7339,-4.8386,-4.9703,-5.102,-5.2336,0.0,-5.5029,-5.6316,-5.7842,0.0,-6.0715,-6.2151,-6.4755,-6.5592,-6.6281,-6.6939,-6.7567,-6.8256,-6.8944,-6.9602,-6.9961,-6.9991,-7.056,-7.0889,-7.0889,-7.0889,-7.0889,-7.0889,-7.0889,-7.0889,-7.0889,-7.0889,-7.0889,-7.0889,-7.0889,-7.0889,-7.0889,-7.0889,-7.0889,-7.0889,-7.0889,-7.0889,-7.0889,-7.0889,-7.0889,-7.0889,-7.0889,-7.0889,-7.0889,-7.0889,-7.0889,-7.0889,-7.0889,-7.0889,-7.0889,-7.0919,-7.0919,-7.1068,-7.1727,-7.2385,-7.3073,-7.3732,-7.439,-7.4869,-7.4869,-7.4869,-7.448,-7.3163,-7.2924,-7.2505,-7.1128,-7.0919,-7.0919,-7.0889,-7.0889,-7.0889,-7.0889,-7.0889,-7.0889,-7.0889,-7.0889,-7.0889,-7.0889,-7.0889,-7.0889,-7.0889,-7.0889,-7.0889,-7.0889,-7.2206,-7.2924,-7.2924,-7.421,-7.4869,-7.4869,-7.4869,-7.4869,-7.4869,-7.4456,-7.3901,-5.5136,-5.5994,-5.6934,-5.7315,-5.6084,-5.4472,-5.3181,-5.0916,-4.8686,-4.741,-4.6849,-4.6621,-4.6621,-4.8446,-5.0212,-5.1079,-5.2725,0.0,0.0,0.0,0.0,-6.0505,-6.2151,-6.3588,-6.4904,-6.5622,-6.6101,-6.6311,-6.7358,-6.8076,-6.8286,-6.9363,-7.0171,-7.059,-7.0799,-7.0889,-7.0889,-7.0889,-7.0889,-7.0889,-7.0889,-7.0889,-7.0889,-7.0889,-7.0889,-7.0889,-7.0889,-7.0889,-7.0889,-7.0889,-7.0889,-7.0889,-7.0889,-7.0889,-7.0889,-7.0889,-7.0889,-7.0889,-7.0889,-7.0889,-7.0889,-7.0889,-7.0889,-7.0889,-7.0889,-7.0889,-7.0889,-7.0889,-7.1218,-7.1727,-7.2415,-7.3073,-7.3762,-7.442,-7.4719,-7.4869,-7.4869,-7.451,-7.3941,-7.3073,-7.2535,-7.1936,-7.1068,-7.0889,-7.0889,-7.0889,-7.0889,-7.0889,-7.0889,-7.0889,-7.0889,-7.0889,-7.0889,-7.0889,-7.0889,-7.0889,-7.0889,-7.0889,-7.0889,-7.0889,-7.0889,-7.2206,-7.2924,-7.2924,-7.421,-7.4869,-7.4869,-7.4869,-7.4869,-7.4869,-7.4456,-7.404,-5.3651,-5.4413,-5.5085,-5.5098,-5.3831,-5.2455,-5.1907,-4.9661,-4.7547,-4.7009,-4.6576,-4.6429,-4.698,-4.8761,-5.0644,-5.2127,-5.3384,-5.488,-5.6825,-5.7094,-5.8112,-6.0805,-6.3258,-6.4844,-6.4994,-6.5862,-6.637,-6.637,-6.7597,-6.8375,-6.8375,-6.9602,-7.05,-7.0889,-7.0889,-7.0889,-7.0889,-7.0889,-7.0889,-7.0889,-7.0889,-7.0889,-7.0889,-7.0889,-7.0889,-7.0889,-7.0889,-7.0889,0.0,-7.0889,-7.0889,-7.0889,-7.0889,-7.0889,-7.0889,-7.0889,-7.0889,-7.0889,-7.0889,-7.0889,-7.0949,-7.1188,-7.1278,-7.1218,-7.0979,-7.0889,-7.0889,-7.0889,-7.1368,-7.2056,-7.2744,-7.3402,-7.4061,-7.4719,-7.4869,-7.4809,-7.4569,-7.418,-7.3612,-7.2714,-7.2176,-7.1667,-7.1009,-7.0889,-7.0889,-7.0889,-7.0889,-7.0979,-7.1248,-7.1068,-7.1098,-7.1607,-7.1427,-7.1278,-7.1278,-7.1038,-7.0889,-7.0889,-7.0889,-7.0889,-7.0889,-7.1936,-7.2654,-7.2924,-7.3971,-7.4629,-7.4869,-7.4869,-7.4869,-7.4869,-7.4456,-7.4258,0.0,-5.2957,-5.3354,-5.2544,-5.1812,-5.127,-5.1057,-4.9303,0.0,-4.7605,-4.6982,-4.683,-4.8057,-4.9523,-5.1272,-5.3743,-5.4251,-5.4999,-5.6885,-5.7304,-5.8321,-6.0894,-6.4006,-6.5712,-6.5144,-6.6191,-6.6939,-6.6999,-6.8196,-6.8944,-6.9004,-7.0201,-7.0889,-7.0889,-7.0889,-7.0889,-7.0829,-7.0889,-7.0889,-7.0829,-7.0889,-7.0889,-7.0889,-7.0889,-7.0889,-7.0889,-7.0889,-7.0889,-7.0889,-7.0889,-7.0889,-7.0889,-7.0889,-7.0889,-7.0889,-7.0889,-7.0889,-7.0889,-7.0889,-7.0919,-7.1068,-7.1697,-7.1876,-7.1757,-7.1098,-7.0949,-7.0979,-7.0979,-7.1487,-7.2176,-7.2804,-7.3462,-7.4121,-7.4719,-7.4839,-7.4629,-7.4031,-7.3821,-7.3373,-7.2116,-7.1846,-7.1607,-7.1009,-7.0889,-7.0889,-7.0889,-7.0889,-7.1128,-7.1787,-7.1368,-7.1487,-7.2774,-7.2325,-7.1966,-7.1966,-7.1368,-7.0949,-7.0889,-7.0949,-7.0979,-7.0979,-7.1637,-7.2325,-7.2984,-7.3642,-7.427,-7.4869,-7.4869,-7.4899,-7.4958,-7.4614,-7.4524,-5.0324,0.0,-5.2129,-5.1684,-5.1448,-5.1138,0.0,-4.892,-4.7673,-4.7555,-4.7698,-4.7908,-4.8237,-5.102,-5.3294,-5.3414,-5.47,-5.6226,-5.7663,-5.9189,-6.0595,-6.1732,-6.3887,-6.5383,-6.5742,-6.6071,-6.646,-6.6939,-6.7747,-6.8435,-6.8974,-7.0201,-7.0889,-7.0889,-7.0889,-7.0679,-7.0201,-7.0679,-7.0679,-7.0201,-7.0679,-7.0889,-7.0889,-7.0889,-7.0889,-7.0889,-7.0889,-7.0889,-7.0889,-7.0889,-7.0889,-7.0889,-7.0889,-7.0889,-7.0889,-7.0889,-7.0889,-7.0889,-7.0889,-7.1248,-7.1667,-7.1846,-7.1876,-7.1757,-7.1098,-7.1248,-7.1637,-7.1637,-7.2505,-7.3462,-7.3612,-7.4151,-7.4689,-7.4839,-7.448,-7.4091,-7.3941,-7.3073,-7.2265,-7.1936,-7.1487,-7.1068,-7.0919,-7.0889,-7.0889,-7.0889,-7.0889,-7.1128,-7.1787,-7.1757,-7.1966,-7.2834,-7.2774,-7.2684,-7.2684,-7.2056,-7.1457,-7.0949,-7.1368,-7.1637,-7.1637,-7.2804,-7.3492,-7.3672,-7.43,-7.4719,-7.4869,-7.4869,-7.5138,-7.5647,-7.5607,-7.5657,-4.9182,-4.9923,-5.0727,-5.0356,-5.0286,-5.0212,-5.005,-4.9266,-4.8671,-4.881,-4.9061,-4.9553,-5.078,-5.2755,-5.4371,-5.488,-5.5897,-5.6944,-5.7992,-5.9308,-6.0565,-6.1523,-6.3378,-6.4814,-6.5503,-6.5832,-6.64,-6.7358,-6.7777,-6.8405,-6.9393,-7.038,-7.0889,-7.0889,-7.0889,-7.0739,-7.041,-7.0739,-7.0739,-7.041,-7.0739,-7.0889,-7.0889,-7.0889,-7.0889,-7.0889,-7.0889,-7.0889,-7.0889,-7.0889,-7.0889,-7.0889,-7.0889,-7.0889,-7.0889,-7.0889,-7.0889,-7.0889,-7.0889,-7.1547,-7.2265,-7.1637,-7.1846,-7.2235,-7.1547,-7.1816,-7.2295,-7.1966,-7.2864,-7.3821,-7.3522,-7.4151,-7.4719,-7.4121,-7.3941,-7.3732,-7.3103,-7.2415,-7.1787,-7.1487,-7.1158,-7.0889,-7.0889,-7.0889,-7.0889,-7.0889,-7.1158,-7.1607,-7.2265,-7.2355,-7.2744,-7.3702,-7.3552,-7.3373,-7.3373,-7.3013,-7.2385,-7.1427,-7.1697,-7.1876,-7.1876,-7.2595,-7.3253,-7.3881,-7.454,-7.5018,-7.5347,-7.5347,-7.5677,-7.6335,-7.6195,-7.6312,-4.8746,-4.9319,-4.9825,-4.9427,-4.9359,-4.9518,-4.9941,-5.0019,-5.0066,-5.0365,-5.0532,-5.1362,-5.3773,-5.4371,-5.5029,-5.6675,-5.7124,-5.7483,-5.8171,-5.8919,-5.9937,-6.1373,-6.3109,-6.4425,-6.5114,-6.5592,-6.646,-6.7867,-6.7929,-6.8495,-7.0051,-7.062,-7.0889,-7.0889,-7.0889,-7.0889,-7.0889,-7.0889,-7.0859,-7.0769,-7.0859,-7.0889,-7.0889,-7.0889,-7.0889,-7.0889,-7.0889,-7.0889,-7.0889,-7.0889,-7.0889,-7.0889,-7.0889,-7.0889,-7.0889,-7.0889,-7.0889,-7.0919,-7.1128,-7.1876,-7.2595,-7.1547,-7.1966,-7.2774,-7.2086,-7.2355,-7.2804,-7.2206,-7.2924,-7.3762,-7.3223,-7.3881,-7.445,-7.3343,-7.3402,-7.3402,-7.2146,-7.1816,-7.1577,-7.1009,-7.0889,-7.0889,-7.0889,-7.0889,-7.0949,-7.1038,-7.1517,-7.2176,-7.2954,-7.3073,-7.3522,-7.4749,-7.436,-7.4031,-7.4031,-7.4031,-7.3522,-7.2265,-7.2206,-7.2235,-7.2325,-7.2355,-7.2894,-7.4031,-7.4689,-7.5318,-7.5916,-7.6006,-7.6365,-7.6993,-7.661,-7.6825,-4.9544,-5.0558,-5.1262,-5.0426,-5.0555,-5.0799,-5.0229,-5.0818,-5.1246,-5.0426,-5.1593,-5.3025,-5.4012,-5.5119,-5.5957,-5.6308,-5.7244,-5.8201,-5.886,-6.0027,-6.1493,-6.3348,-6.4336,-6.5144,-6.5802,-6.5443,-6.5951,-6.7837,-6.7448,-6.8196,-7.062,-7.0859,-7.0889,-7.0889,-7.0889,-7.0889,-7.0889,-7.0889,-7.0649,-7.0141,-7.0649,-7.0889,-7.0889,-7.0889,-7.0889,-7.0889,-7.0889,-7.0889,-7.0889,-7.0889,-7.0889,-7.0889,-7.0889,-7.0889,-7.0889,-7.0889,-7.0889,-7.1068,-7.2206,-7.2355,-7.2116,-7.2475,-7.2744,-7.2774,-7.2086,-7.2355,-7.2894,-7.2804,-7.3313,-7.3881,-7.3762,-7.3881,-7.4001,-7.3791,-7.3402,-7.2834,-7.2056,-7.1457,-7.1009,-7.0919,-7.0889,-7.0889,-7.0889,-7.0889,-7.1098,-7.1637,-7.1816,-7.2325,-7.3582,-7.3762,-7.4031,-7.4809,-7.4779,-7.4719,-7.4719,-7.4719,-7.439,-7.3642,-7.3582,-7.3821,-7.439,-7.442,-7.451,-7.4719,-7.5407,-7.5796,-7.5916,-7.6425,-7.7023,-7.7652,-7.758,-7.7939,-4.9744,-5.032,-5.1028,-5.2235,-5.3057,-5.3408,-5.2605,-5.3696,-5.4443,-5.2963,-5.3996,-5.5171,-5.527,-5.5777,-5.6406,-5.7124,-5.7723,-5.8471,-5.9488,-6.0176,-6.1283,-6.3258,-6.3767,-6.4366,-6.5383,-6.4874,-6.5443,-6.7777,-6.7358,-6.8136,-7.0769,-7.0889,-7.0889,-7.0889,-7.0889,-7.0889,-7.0889,-7.0889,-7.0769,-7.05,-7.0769,-7.0889,-7.0889,-7.0889,-7.0889,-7.0889,-7.0889,-7.0889,-7.0889,-7.0889,-7.0889,-7.0889,-7.0889,-7.0889,-7.0889,-7.0889,-7.0889,-7.1038,-7.2026,-7.2146,-7.1936,-7.2265,-7.2355,-7.2295,-7.1966,-7.2116,-7.2355,-7.2355,-7.2834,-7.3373,-7.3373,-7.3642,-7.3702,-7.2984,-7.2864,-7.2624,-7.1577,-7.1128,-7.0889,-7.0889,-7.0889,-7.0889,-7.0889,-7.0889,-7.1009,-7.1308,-7.1966,-7.2654,-7.3283,-7.3971,-7.454,-7.4839,-7.4869,-7.4869,-7.4869,-7.4869,-7.4599,-7.3941,-7.3881,-7.418,-7.4839,-7.5228,-7.5587,-7.5916,-7.6245,-7.6574,-7.6933,-7.7233,-7.7682,-7.834,-7.834,-7.8489,-5.028,-5.0956,-5.2034,-5.4492,-5.5105,-5.5104,-5.5031,-5.6242,-5.6945,-5.5592,-5.6009,-5.6659,-5.6556,-5.6462,-5.6765,-5.7932,-5.8261,-5.883,-6.0146,-6.0446,-6.1224,-6.3079,-6.3288,-6.3677,-6.4695,-6.4605,-6.5383,-6.7567,-6.7567,-6.8465,-7.0769,-7.0889,-7.0889,-7.0889,-7.0889,-7.0889,-7.0889,-7.0889,-7.0889,-7.0889,-7.0889,-7.0889,-7.0889,-7.0889,-7.0889,-7.0889,-7.0889,-7.0889,-7.0889,-7.0889,-7.0889,-7.0889,-7.0889,-7.0889,-7.0919,-7.1068,-7.1128,-7.1248,-7.2056,-7.2146,-7.1906,-7.2056,-7.2026,-7.1876,-7.1876,-7.1876,-7.1876,-7.1876,-7.2146,-7.2505,-7.2834,-7.3283,-7.3402,-7.2385,-7.2535,-7.2535,-7.1188,-7.0889,-7.0889,-7.0889,-7.0889,-7.0889,-7.0889,-7.1038,-7.1128,-7.1128,-7.2295,-7.3133,-7.3133,-7.4151,-7.4869,-7.4869,-7.5018,-7.5168,-7.5318,-7.5318,-7.5108,-7.4599,-7.4599,-7.4809,-7.5318,-7.5826,-7.6335,-7.6814,-7.6963,-7.7322,-7.7801,-7.7981,-7.831,-7.8789,-7.8789,-7.8789,-5.1929,-5.4023,-5.6241,-5.7116,-5.5582,-5.4372,-5.6441,-5.6938,-5.6965,-5.701,-5.6621,-5.6485,-5.7358,-5.7253,-5.7274,-5.7992,-5.865,-5.9518,-6.0864,-6.1553,-6.245,-6.3767,-6.3947,-6.3977,-6.4066,-6.5144,-6.6191,-6.6999,-6.8166,-6.9453,-7.0829,-7.0889,-7.0889,-7.0889,-7.0889,-7.0889,-7.0889,-7.0889,-7.0889,-7.0889,-7.0889,-7.0889,-7.0889,-7.0889,-7.0889,-7.0889,-7.0889,-7.0889,-7.0889,-7.0889,-7.0889,-7.0889,-7.0889,-7.0889,-7.0979,-7.1577,-7.1816,-7.1996,-7.3313,-7.2924,-7.1996,-7.2624,-7.2415,-7.1876,-7.1876,-7.1876,-7.1876,-7.1876,-7.1487,-7.1338,-7.2595,-7.2954,-7.2954,-7.2864,-7.2864,-7.2535,-7.1188,-7.0889,-7.0889,-7.0889,-7.0889,-7.0889,-7.0889,-7.1398,-7.1816,-7.1816,-7.2954,-7.3821,-7.3821,-7.445,-7.4869,-7.4869,-7.5437,-7.6066,-7.6634,-7.6694,-7.6664,-7.6604,-7.6604,-7.6634,-7.6694,-7.6724,-7.6784,-7.6814,-7.7442,-7.7771,-7.7801,-7.843,-7.8729,-7.8789,-7.8789,-7.8789,-5.2097,-5.4092,-5.6421,-5.8076,-5.7879,-5.7543,-5.8534,-5.9014,-5.8919,-5.7715,-5.7285,-5.704,-5.6769,-5.7264,-5.7962,-5.862,-5.9279,-6.0176,-6.1523,-6.2301,-6.3019,-6.3887,-6.4006,-6.4156,-6.4605,-6.5114,-6.6011,-6.7478,-6.8465,-6.9572,-7.0829,-7.0889,-7.0889,-7.0889,-7.0889,-7.0889,-7.0889,-7.0889,-7.0889,-7.0889,-7.0889,-7.0889,-7.0889,-7.0889,-7.0889,-7.0889,-7.0889,-7.0889,-7.0889,-7.0889,-7.0889,-7.0889,-7.0889,-7.0889,-7.0919,-7.1188,-7.1278,-7.1398,-7.2325,-7.2056,-7.1398,-7.2056,-7.1816,-7.1278,-7.1278,-7.1278,-7.1278,-7.1278,-7.1098,-7.1218,-7.2565,-7.2924,-7.2924,-7.2924,-7.2924,-7.2535,-7.1188,-7.0889,-7.0889,-7.0889,-7.0889,-7.0889,-7.0889,-7.1098,-7.1427,-7.1816,-7.2684,-7.3432,-7.3851,-7.4839,-7.5527,-7.5527,-7.6096,-7.6574,-7.6814,-7.7203,-7.7442,-7.7442,-7.7053,-7.7023,-7.7412,-7.7442,-7.7622,-7.8041,-7.828,-7.843,-7.843,-7.8669,-7.8789,-7.8789,-7.8789,-7.8789,-5.3179,-5.5209,-5.7509,-5.9302,-5.9847,-6.0004,-6.0322,-6.0564,-6.0387,-5.894,-5.8159,-5.748,-5.6912,-5.7693,-5.865,-5.9308,-5.9967,-6.0805,-6.1942,-6.266,-6.3228,-6.3647,-6.3887,-6.4186,-6.4665,-6.5263,-6.6281,-6.7837,-6.8974,-6.9991,-7.0859,-7.0889,-7.0889,-7.0889,-7.0889,-7.0889,-7.0889,-7.0889,-7.0889,-7.0889,-7.0889,-7.0889,-7.0889,-7.0889,-7.0889,-7.0889,-7.0889,-7.0889,-7.0889,-7.0889,-7.0889,-7.0889,-7.0889,-7.0889,-7.0919,-7.1128,-7.1218,-7.1308,-7.1966,-7.1787,-7.1278,-7.1727,-7.1457,-7.0889,-7.0889,-7.0889,-7.0889,-7.0889,-7.0889,-7.1218,-7.2565,-7.2744,-7.2654,-7.2864,-7.2744,-7.2265,-7.1128,-7.0889,-7.0889,-7.0889,-7.0889,-7.0979,-7.1188,-7.1398,-7.1697,-7.2146,-7.2954,-7.3702,-7.4151,-7.5198,-7.6066,-7.6455,-7.6874,-7.7233,-7.7442,-7.7861,-7.813,-7.813,-7.7711,-7.7652,-7.81,-7.813,-7.834,-7.8789,-7.8789,-7.8789,-7.8789,-7.8789,-7.8789,-7.8789,-7.8789,-7.8789,-5.5513,-5.7848,-6.0283,-6.1129,-6.1109,-6.1052,-6.1513,-6.1241,-6.0934,-6.0978,-5.9174,-5.7687,-5.8031,-5.865,-5.9308,-5.9967,-6.0655,-6.1343,-6.2002,-6.266,-6.3079,-6.3079,-6.3617,-6.4006,-6.4006,-6.5802,-6.7268,-6.7926,-6.9782,-7.0889,-7.0889,-7.0889,-7.0889,-7.0889,-7.0889,-7.0889,-7.0889,-7.0889,-7.0889,-7.0889,-7.0889,-7.0889,-7.0889,-7.0889,-7.0889,-7.0889,-7.0889,-7.0889,-7.0889,-7.0889,-7.0889,-7.0889,-7.0889,-7.0889,-7.0979,-7.1637,-7.1876,-7.1966,-7.2654,-7.2445,-7.1876,-7.1876,-7.1427,-7.0889,-7.0889,-7.0889,-7.0889,-7.0889,-7.0889,-7.1218,-7.2565,-7.2385,-7.2056,-7.2744,-7.2385,-7.1697,-7.1038,-7.0889,-7.0889,-7.0919,-7.0889,-7.1098,-7.1787,-7.2445,-7.2894,-7.2924,-7.4031,-7.4899,-7.4899,-7.5497,-7.6395,-7.7682,-7.7831,-7.8071,-7.8729,-7.8789,-7.8789,-7.8789,-7.8789,-7.8789,-7.8789,-7.8789,-7.8789,-7.8789,-7.8789,-7.8789,-7.8789,-7.8789,-7.8789,-7.8789,-7.8789,-7.8789,-5.5513,-5.7848,-6.0419,-6.1738,-6.1886,-6.1923,-6.2743,-6.208,-6.1008,-6.0136,-5.8529,-5.748,-5.8309,-5.8787,-5.9308,-5.9967,-6.0266,-6.0954,-6.257,-6.2959,-6.3228,-6.3677,-6.3887,-6.4186,-6.4665,-6.6101,-6.7478,-6.8615,-7.0081,-7.0889,-7.0889,-7.0889,-7.0889,-7.0889,-7.0889,-7.0889,-7.0889,-7.0889,-7.0889,-7.0889,-7.0889,-7.0889,-7.0889,-7.044,-7.05,-7.0889,-7.044,-7.05,-7.0889,-7.0889,-7.0889,-7.0889,-7.0889,-7.0889,-7.0919,-7.1128,-7.1188,-7.1218,-7.1427,-7.1368,-7.1188,-7.1188,-7.1068,-7.0889,-7.0889,-7.0889,-7.0889,-7.0889,-7.1248,-7.1697,-7.2086,-7.2026,-7.2056,-7.2744,-7.2385,-7.1697,-7.1038,-7.0889,-7.1038,-7.1517,-7.1218,-7.1278,-7.2415,-7.2385,-7.2505,-7.3462,-7.433,-7.5377,-7.6754,-7.7113,-7.7562,-7.84,-7.8489,-7.8579,-7.8759,-7.8789,-7.8789,-7.8789,-7.8789,-7.8789,-7.8789,-7.8789,-7.8789,-7.8789,-7.8789,-7.8789,-7.8789,-7.8789,-7.8789,-7.8789,-7.8789,-7.8789,-5.7103,-5.9201,-6.1298,-6.2516,-6.2499,-6.2312,-6.2851,-6.1877,-6.0638,-5.9613,-5.8512,-5.8023,-5.9038,-5.9357,-5.9787,-6.0745,-6.0655,-6.1194,-6.3169,-6.3228,-6.3318,-6.3917,-6.4246,-6.4575,-6.4994,-6.646,-6.7837,-6.8914,-7.0171,-7.0889,-7.0889,-7.0889,-7.0889,-7.0889,-7.0889,-7.0889,-7.0889,-7.0889,-7.0889,-7.0889,-7.0649,-7.053,-7.053,-7.0141,-7.0201,-7.053,-7.041,-7.056,-7.0889,-7.0889,-7.0889,-7.0889,-7.0889,-7.0889,-7.0889,-7.0889,-7.0889,-7.0889,-7.0889,-7.0889,-7.0889,-7.0889,-7.0889,-7.0889,-7.0889,-7.0889,-7.0889,-7.0889,-7.1368,-7.1876,-7.1876,-7.1876,-7.1996,-7.2415,-7.1996,-7.1398,-7.0979,-7.0889,-7.1009,-7.1427,-7.1188,-7.1248,-7.2325,-7.2385,-7.2744,-7.4091,-7.5288,-7.6485,-7.7652,-7.8041,-7.834,-7.8759,-7.8789,-7.8789,-7.8789,-7.8789,-7.8789,-7.8789,-7.8789,-7.8789,-7.8789,-7.8789,-7.8789,-7.8789,-7.8789,-7.8789,-7.8789,-7.8789,-7.8789,-7.8789,-7.8789,-7.8789,-5.9235,-6.1028,-6.2516,-6.3396,-6.3091,-6.2481,-6.204,-6.1131,-6.0188,-5.9562,-5.9042,-5.8994,-5.9897,-6.0141,-6.0565,-6.1732,-6.1553,-6.1912,-6.3677,-6.3468,-6.3378,-6.3917,-6.4545,-6.4994,-6.5114,-6.6849,-6.8286,-6.9034,-7.0201,-7.0889,-7.0889,-7.0889,-7.0889,-7.0889,-7.0889,-7.0889,-7.0889,-7.0889,-7.0889,-7.0889,-7.029,-6.9961,-6.9901,-6.9901,-6.9931,-7.0021,-7.0649,-7.0889,-7.0889,-7.0889,-7.0889,-7.0889,-7.0889,-7.0889,-7.0889,-7.0889,-7.0889,-7.0889,-7.0889,-7.0889,-7.0889,-7.0889,-7.0889,-7.0889,-7.0889,-7.0889,-7.0919,-7.0979,-7.1457,-7.1966,-7.1906,-7.1936,-7.1936,-7.1816,-7.1338,-7.0889,-7.0889,-7.0889,-7.0919,-7.0979,-7.0949,-7.1158,-7.1936,-7.2595,-7.3492,-7.4929,-7.6664,-7.7831,-7.7891,-7.843,-7.8789,-7.8789,-7.8789,-7.8789,-7.8789,-7.8789,-7.8789,-7.8789,-7.8789,-7.8789,-7.8789,-7.8789,-7.8789,-7.8789,-7.8789,-7.8789,-7.8789,-7.8789,-7.8789,-7.8789,-7.8789,-7.8789,-5.7239,-5.9471,-6.1975,-6.3903,-6.4241,-6.3564,-6.1469,-6.1166,-6.1156,-6.0624,-5.987,-5.9355,-5.9573,-6.0341,-6.0805,-6.0565,-6.1702,-6.281,-6.3199,-6.3588,-6.3857,-6.3977,-6.4126,-6.4635,-6.5682,-6.7119,-6.8465,-6.9662,-7.047,-7.0889,-7.0889,-7.0889,-7.0889,-7.0889,-7.0889,-7.0889,-7.0889,-7.0889,-7.0889,-7.0889,-7.029,-6.9722,-6.9213,-6.9213,-6.9482,-7.0021,-7.0649,-7.0889,-7.0889,-7.0889,-7.0889,-7.0889,-7.0889,-7.0889,-7.0889,-7.0889,-7.0889,-7.0889,-7.0889,-7.0889,-7.0889,-7.0889,-7.0889,-7.0889,-7.0889,-7.0889,-7.1009,-7.1517,-7.2176,-7.2565,-7.2026,-7.2295,-7.2415,-7.1368,-7.1009,-7.0889,-7.0889,-7.0889,-7.1068,-7.1577,-7.1248,-7.1457,-7.3163,-7.3582,-7.448,-7.6814,-7.7532,-7.7981,-7.8519,-7.8699,-7.8789,-7.8789,-7.8789,-7.8789,-7.8789,-7.8789,-7.8789,-7.8789,-7.8789,-7.8789,-7.8789,-7.8789,-7.8789,-7.8789,-7.8789,-7.8789,-7.8789,-7.8789,-7.8789,-7.8789,-7.8789,-7.8789,-5.7374,-5.9539,-6.1839,-6.4038,-6.4613,-6.3926,-6.1273,-6.1038,-6.1052,-5.9731,-5.9836,-6.021,-6.027,-6.0736,-6.1194,-6.1463,-6.2391,-6.3169,-6.3468,-6.3797,-6.4006,-6.4006,-6.4306,-6.4904,-6.5922,-6.7508,-6.8884,-6.9901,-7.056,-7.0889,-7.0889,-7.0889,-7.0889,-7.0889,-7.0889,-7.0889,-7.0889,-7.0889,-7.0889,-7.0889,-7.029,-6.9812,-6.9453,-6.9153,-6.9363,-7.0021,-7.0649,-7.0889,-7.0889,-7.0889,-7.0889,-7.0889,-7.0889,-7.0889,-7.0889,-7.0889,-7.0889,-7.0889,-7.0889,-7.0889,-7.0889,-7.0889,-7.0889,-7.0889,-7.0889,-7.0889,-7.1038,-7.1697,-7.2146,-7.2325,-7.1966,-7.2146,-7.2146,-7.1128,-7.0889,-7.0889,-7.0889,-7.0889,-7.1009,-7.1338,-7.1398,-7.1697,-7.2744,-7.4001,-7.5527,-7.7502,-7.8071,-7.84,-7.8759,-7.8789,-7.8789,-7.8789,-7.8789,-7.8789,-7.8789,-7.8789,-7.8789,-7.8789,-7.8789,-7.8789,-7.8789,-7.8789,-7.8789,-7.8789,-7.8489,-7.846,-7.8789,-7.846,-7.8489,-7.8789,-7.8789,-7.8789,-5.7848,-6.0114,-6.2178,-6.4275,-6.4613,-6.3833,-6.1622,-6.1226,-6.0676,-5.855,-5.9674,-6.0989,-6.0976,-6.1224,-6.1762,-6.275,-6.3256,-6.3556,-6.3797,-6.4185,-6.4275,-6.3887,-6.4635,-6.5473,-6.6131,-6.7897,-6.9303,-7.0081,-7.062,-7.0889,-7.0889,-7.0889,-7.0889,-7.0889,-7.0889,-7.0889,-7.0889,-7.0889,-7.0889,-7.0889,-7.029,-6.9991,-6.9961,-6.9423,-6.9512,-7.0171,-7.0679,-7.0889,-7.0889,-7.0889,-7.0889,-7.0889,-7.0889,-7.0889,-7.0889,-7.0889,-7.0889,-7.0889,-7.0889,-7.0889,-7.0889,-7.0889,-7.0889,-7.0889,-7.0889,-7.0889,-7.1038,-7.1697,-7.1876,-7.1876,-7.1876,-7.1876,-7.1727,-7.1068,-7.0889,-7.0889,-7.0889,-7.0889,-7.0949,-7.1038,-7.1697,-7.2265,-7.2385,-7.445,-7.6455,-7.7622,-7.837,-7.8789,-7.8789,-7.8789,-7.8789,-7.8789,-7.8789,-7.8789,-7.8789,-7.8789,-7.8789,-7.8789,-7.8789,-7.8789,-7.8789,-7.8789,-7.8789,-7.8789,-7.825,-7.825,-7.8789,-7.825,-7.825,-7.8789,-7.8789,-7.8789,-5.6461,-6.008,-6.3599,-6.5155,-6.458,-6.3525,-6.2993,-6.2166,-6.1096,-5.9447,-6.0346,-6.1162,-6.0351,-6.1642,-6.269,-6.2301,-6.388,-6.4689,-6.3406,-6.4901,-6.5411,-6.3466,-6.4784,-6.6131,-6.6789,-6.8166,-6.9482,-7.0679,-7.0859,-7.0889,-7.0889,-7.0889,-7.0889,-7.0889,-7.0889,-7.0889,-7.0889,-7.0889,-7.0889,-7.0889,-7.029,-6.9991,-6.9991,-6.9901,-7.0201,-7.0769,-7.0859,-7.0889,-7.0889,-7.0889,-7.0889,-7.0889,-7.0889,-7.0889,-7.0889,-7.0889,-7.0889,-7.0889,-7.0889,-7.0889,-7.0889,-7.0889,-7.0889,-7.0889,-7.0889,-7.0889,-7.1038,-7.1697,-7.1876,-7.1876,-7.1876,-7.1876,-7.1727,-7.1068,-7.0889,-7.0889,-7.0889,-7.0889,-7.1068,-7.1637,-7.2774,-7.3821,-7.439,-7.5707,-7.6963,-7.7711,-7.837,-7.8789,-7.8789,-7.8789,-7.8789,-7.8789,-7.8789,-7.8789,-7.8789,-7.8789,-7.8789,-7.8789,-7.8789,-7.8789,-7.8789,-7.8789,-7.8789,-7.8789,-7.8699,-7.8699,-7.8789,-7.8699,-7.8699,-7.8789,-7.8789,-7.8789,-5.7577,-6.0723,-6.3429,-6.573,-6.5527,-6.4476,-6.343,-6.2187,-6.0878,-5.9818,-5.9982,-6.047,-6.0811,-6.1785,-6.2597,-6.2859,-6.4327,-6.4928,-6.3316,-6.505,-6.565,-6.3376,-6.4814,-6.6251,-6.6939,-6.8196,-6.9542,-7.0799,-7.0889,-7.0889,-7.0889,-7.0889,-7.0889,-7.0889,-7.0889,-7.0889,-7.0889,-7.0889,-7.0889,-7.0889,-7.062,-7.05,-7.05,-7.05,-7.0649,-7.0889,-7.0889,-7.0889,-7.0889,-7.0889,-7.0889,-7.0889,-7.0889,-7.0889,-7.0889,-7.0889,-7.0889,-7.0889,-7.0889,-7.0889,-7.0889,-7.0889,-7.0889,-7.0889,-7.0889,-7.0889,-7.1038,-7.1697,-7.1607,-7.1427,-7.1787,-7.1876,-7.1727,-7.1068,-7.1188,-7.1368,-7.0979,-7.0889,-7.1218,-7.2265,-7.3223,-7.424,-7.5258,-7.6215,-7.7053,-7.7711,-7.837,-7.8789,-7.8789,-7.8789,-7.8789,-7.8789,-7.8789,-7.8639,-7.828,-7.8579,-7.8639,-7.825,-7.8579,-7.8789,-7.8789,-7.8789,-7.8789,-7.8789,-7.843,-7.843,-7.8789,-7.843,-7.843,-7.8789,-7.8789,-7.8789,-5.8152,-6.0351,-6.2245,-6.5222,-6.5226,-6.4296,-6.3675,-6.2065,-6.0691,-6.0534,-5.9978,-5.9887,-6.1308,-6.1931,-6.2412,-6.315,-6.444,-6.4895,-6.3496,-6.5199,-6.5799,-6.3586,-6.5054,-6.637,-6.67,-6.8106,-6.9516,-7.0719,-7.0894,-7.0919,-7.1018,-7.0954,-7.0889,-7.0889,-7.0889,-7.0889,-7.0889,-7.0889,-7.0889,-7.0889,-7.0889,-7.0889,-7.0889,-7.0889,-7.0889,-7.0889,-7.0889,-7.0889,-7.0889,-7.0889,-7.0889,-7.0889,-7.0889,-7.0889,-7.0889,-7.0889,-7.0889,-7.0889,-7.0889,-7.0889,-7.0889,-7.0889,-7.0889,-7.0889,-7.0889,-7.0889,-7.1009,-7.1487,-7.1278,-7.1009,-7.1517,-7.1757,-7.1727,-7.1068,-7.1398,-7.1697,-7.1038,-7.1188,-7.1697,-7.2714,-7.3582,-7.445,-7.5467,-7.6305,-7.6993,-7.7502,-7.825,-7.8729,-7.8549,-7.8549,-7.846,-7.831,-7.828,-7.81,-7.7592,-7.816,-7.834,-7.7831,-7.843,-7.8789,-7.8789,-7.8789,-7.8789,-7.8789,-7.831,-7.831,-7.8789,-7.831,-7.831,-7.8789,-7.8789,-7.8789,-5.6697,-5.8051,-5.9911,-6.2922,-6.2412,-6.1767,-6.4031,-6.232,-6.0676,-6.2231,-6.0867,-5.987,-6.152,-6.2135,-6.2487,-6.2517,-6.3917,-6.4764,-6.4035,-6.5647,-6.6156,-6.4155,-6.5712,-6.67,-6.6131,-6.7837,-6.94,-7.0407,-7.0783,-7.1018,-7.1371,-7.1083,-7.0889,-7.0889,-7.0889,-7.0889,-7.0889,-7.0889,-7.0889,-7.0889,-7.0889,-7.0889,-7.0889,-7.0889,-7.0889,-7.0889,-7.0889,-7.0889,-7.0889,-7.0889,-7.0889,-7.0889,-7.0889,-7.0889,-7.0889,-7.0889,-7.0889,-7.0889,-7.0889,-7.0889,-7.0889,-7.0889,-7.0889,-7.0889,-7.0889,-7.0889,-7.0919,-7.0949,-7.0919,-7.0919,-7.0949,-7.1427,-7.1727,-7.1068,-7.1398,-7.1697,-7.1038,-7.1906,-7.2834,-7.2894,-7.3941,-7.4839,-7.4929,-7.5976,-7.6844,-7.6874,-7.7981,-7.8579,-7.7951,-7.7861,-7.7622,-7.6993,-7.6933,-7.6904,-7.6874,-7.7472,-7.7861,-7.7801,-7.843,-7.8789,-7.8789,-7.8789,-7.8789,-7.8789,-7.8759,-7.8759,-7.8789,-7.8759,-7.8759,-7.8789,-7.8789,-7.8789,-5.619,0.0,0.0,-6.1907,-6.2683,-6.2925,-6.4295,-6.3183,-6.2097,-6.2804,-6.1242,-6.0004,-6.0989,-6.1357,-6.1849,-6.292,-6.3944,-6.4467,-6.4042,-6.5698,-6.6094,-6.3965,-6.5831,-6.6973,-6.6071,-6.8239,-6.9873,-7.0441,-7.0946,-7.1277,-7.1405,-7.1083,-7.0889,-7.0889,-7.0889,-7.0889,-7.0889,-7.0889,-7.0889,-7.0889,-7.0889,-7.0889,-7.0889,-7.0889,-7.0889,-7.0889,-7.0889,-7.0889,-7.0889,-7.0889,-7.0889,-7.0889,-7.0889,-7.0889,-7.0889,-7.0889,-7.0889,-7.0889,-7.0889,-7.0889,-7.0889,-7.0889,-7.0889,-7.0889,-7.0889,-7.0889,-7.0889,-7.0889,-7.0889,-7.1009,-7.1427,-7.2026,-7.2595,-7.2774,-7.2684,-7.2475,-7.2235,-7.2894,-7.3552,-7.3552,-7.427,-7.4869,-7.4869,-7.5647,-7.6365,-7.6754,-7.7233,-7.7592,-7.7801,-7.7442,-7.7083,-7.6844,-7.7203,-7.7293,-7.6874,-7.7831,-7.825,-7.7831,-7.843,-7.8789,-7.8789,-7.8789,-7.8789,-7.8789,-7.8789,-7.8789,-7.8789,-7.8789,-7.8789,-7.8789,-7.7711,-7.7062,-5.5378,0.0,0.0,0.0,-6.1571,-6.2932,-6.3991,-6.3273,-6.2804,-6.4071,-6.221,-6.05,-6.101,-6.0998,-6.1256,-6.2354,-6.3409,-6.4026,-6.3989,-6.5268,-6.5728,-6.4322,-6.595,-6.6914,-6.6222,-6.8273,-6.9851,-7.0486,-7.0869,-7.1194,-7.1564,-7.0968,-7.059,-7.059,-7.0799,-7.0889,-7.0889,-7.0889,-7.0889,-7.0889,-7.0889,-7.0889,-7.0889,-7.0889,-7.0889,-7.0889,-7.0889,-7.0889,-7.0889,-7.0889,-7.0889,-7.0889,-7.0889,-7.0889,-7.0889,-7.0889,-7.0889,-7.0889,-7.0889,-7.0889,-7.0889,-7.0889,-7.0889,-7.0889,-7.0889,-7.0889,-7.0949,-7.1158,-7.1248,-7.1398,-7.2056,-7.2565,-7.3073,-7.3732,-7.3552,-7.3253,-7.3253,-7.3582,-7.3881,-7.3881,-7.442,-7.4869,-7.4869,-7.5617,-7.6365,-7.6754,-7.7203,-7.7562,-7.7771,-7.7233,-7.6754,-7.6544,-7.6694,-7.6754,-7.6544,-7.7502,-7.8041,-7.7831,-7.843,-7.8789,-7.8789,-7.8789,-7.8789,-7.8789,-7.8789,-7.8542,-7.7931,-7.7931,-7.7931,-7.7931,-7.6213,-7.4868,0.0,0.0,0.0,0.0,-5.8891,-6.1326,-6.3054,-6.26,-6.2745,-6.5984,-6.3845,-6.1424,-6.1625,-6.1176,-6.077,-6.0859,-6.2293,-6.3446,-6.3867,-6.4479,-6.5031,-6.5436,-6.607,-6.6492,-6.6462,-6.7971,-6.9337,-7.0373,-7.0425,-7.0869,-7.1916,-7.0705,-6.9991,-6.9991,-7.056,-7.0889,-7.0889,-7.0889,-7.0889,-7.0889,-7.0889,-7.0889,-7.0889,-7.0889,-7.0889,-7.0889,-7.0889,-7.0889,-7.0889,-7.0889,-7.0889,-7.0889,-7.0889,-7.0889,-7.0889,-7.0889,-7.0889,-7.0889,-7.0889,-7.0889,-7.0889,-7.0889,-7.0889,-7.0889,-7.0889,-7.0919,-7.1068,-7.1697,-7.1906,-7.2086,-7.2774,-7.2954,-7.3133,-7.3762,-7.3911,-7.3911,-7.3911,-7.3911,-7.3911,-7.3911,-7.442,-7.4869,-7.4869,-7.5946,-7.6814,-7.6814,-7.7891,-7.846,-7.7831,-7.7173,-7.6544,-7.5946,-7.5288,-7.5198,-7.5886,-7.6514,-7.7143,-7.7801,-7.843,-7.8789,-7.8789,-7.8789,-7.8789,-7.8789,-7.8789,-7.8004,-7.6288,-7.6288,-7.6288,-7.6213,-7.4513,-7.2323,-5.3382,0.0,0.0,0.0,0.0,0.0,-6.214,-6.3551,-6.4291,-6.3298,-6.3186,-6.2747,-6.128,-6.0503,-6.0198,-6.0508,-6.1492,-6.2603,-6.366,-6.4005,-6.424,-6.4395,-6.5849,-6.649,-6.5532,-6.7998,-6.9578,-6.9397,-7.0245,-7.091,-7.1155,-7.0434,-6.9991,-6.9991,-7.0141,-7.044,-7.0889,-7.0889,-7.0889,-7.0889,-7.0889,-7.0889,-7.0889,-7.0889,-7.0889,-7.0889,-7.0889,-7.0889,-7.0889,-7.0889,-7.0889,-7.0889,-7.0889,-7.0889,-7.0889,-7.0889,-7.0889,-7.0889,-7.0889,-7.0889,-7.0889,-7.0889,-7.0889,-7.0889,-7.0889,-7.1248,-7.1637,-7.1846,-7.2235,-7.2774,-7.3462,-7.3971,-7.436,-7.4569,-7.4599,-7.4599,-7.4599,-7.4599,-7.4599,-7.4599,-7.4749,-7.4869,-7.4869,-7.5587,-7.6155,-7.6155,-7.6455,-7.6634,-7.6455,-7.5826,-7.5347,-7.5168,-7.5437,-7.5886,-7.6514,-7.7173,-7.7831,-7.846,-7.8699,-7.8789,-7.8789,-7.8789,-7.8789,-7.8789,-7.8789,-7.8004,-7.6288,-7.6288,-7.5686,-7.4436,-7.2164,-6.9847,0.0,0.0,0.0,0.0,0.0,0.0,-6.185,-6.345,-6.4552,-6.4183,-6.3894,-6.3195,-6.1698,-6.1006,-6.0527,-6.0187,-6.0844,-6.1871,-6.3225,-6.3202,-6.3416,-6.4266,-6.5177,-6.5789,-6.58,-6.7779,-6.9112,-6.9395,-7.0036,-7.0484,-7.0504,-7.0393,-7.026,-6.9991,-7.0231,-7.053,-7.0889,-7.0889,-7.0889,-7.0889,-7.0889,-7.0889,-7.0889,-7.0889,-7.0889,-7.0889,-7.0889,-7.0889,-7.0889,-7.0889,-7.0889,-7.0889,-7.0889,-7.0889,-7.0889,-7.0889,-7.0889,-7.0889,-7.0889,-7.0889,-7.0889,-7.0889,-7.0889,-7.0949,-7.1218,-7.1577,-7.1996,-7.2565,-7.3402,-7.424,-7.4629,-7.5018,-7.5228,-7.4958,-7.4869,-7.4869,-7.4869,-7.4869,-7.4869,-7.4869,-7.4869,-7.4869,-7.4869,-7.5437,-7.5916,-7.5916,-7.6125,-7.6305,-7.6305,-7.5707,-7.5318,-7.5318,-7.5407,-7.5826,-7.6754,-7.6933,-7.7532,-7.8699,-7.8519,-7.8519,-7.8789,-7.8789,-7.8789,-7.8789,-7.8077,-7.6616,-7.4204,-7.4896,-7.3972,-7.1391,-6.9709,-6.8184,0.0,0.0,0.0,0.0,0.0,0.0,-6.1296,-6.2232,-6.3407,-6.5903,-6.4626,-6.2793,-6.1851,-6.1608,-6.112,-5.9983,-6.0352,-6.1243,-6.2641,-6.2279,-6.2597,-6.46,-6.4327,-6.4722,-6.6573,-6.7405,-6.8338,-6.9507,-6.9763,-6.9905,-6.9905,-7.047,-7.056,-6.9991,-7.05,-7.0829,-7.0889,-7.0889,-7.0889,-7.0889,-7.0889,-7.0889,-7.0889,-7.0889,-7.0889,-7.0889,-7.0889,-7.0889,-7.0889,-7.0889,-7.0889,-7.0889,-7.0889,-7.0889,-7.0889,-7.0889,-7.0889,-7.0889,-7.0889,-7.0889,-7.0919,-7.0979,-7.1009,-7.1128,-7.1816,-7.2056,-7.2385,-7.3732,-7.4929,-7.5826,-7.5886,-7.5856,-7.5647,-7.5018,-7.4869,-7.4869,-7.4869,-7.4869,-7.4869,-7.4869,-7.4869,-7.4869,-7.4869,-7.5437,-7.5886,-7.5796,-7.6335,-7.6694,-7.6634,-7.6125,-7.5796,-7.5796,-7.5258,-7.5377,-7.6634,-7.6275,-7.6784,-7.8579,-7.819,-7.819,-7.8759,-7.8789,-7.8789,-7.8789,-7.6988,-7.4436,-7.1338,-7.2561,-7.1472,-6.8119,-6.7646,-6.7222,0.0,0.0,0.0,0.0,0.0,0.0,0.0,-5.9114,-6.002,-5.9532,-6.0518,-6.0757,-5.8473,-5.8889,-5.9649,-5.9901,-6.051,-6.134,-6.2595,-6.1798,-6.1898,-6.3932,-6.4054,-6.4243,-6.4921,-6.6475,-6.7617,-6.7892,-6.9124,-6.9693,-6.9247,-6.9782,-7.0081,-6.9991,-7.0081,-7.041,-7.0889,-7.0889,-7.0889,-7.0889,-7.0889,-7.0889,-7.0889,-7.0889,-7.0889,-7.0889,-7.0889,-7.0889,-7.0889,-7.0889,-7.0889,-7.0889,-7.0889,-7.0889,-7.0889,-7.0889,-7.0889,-7.0889,-7.0889,-7.0889,-7.0979,-7.1517,-7.1697,-7.1816,-7.2505,-7.3073,-7.3791,-7.5138,-7.5318,-7.5198,-7.5766,-7.5497,-7.5048,-7.4899,-7.4869,-7.4869,-7.4869,-7.4869,-7.4869,-7.4869,-7.4869,-7.4869,-7.4869,-7.5437,-7.5707,-7.5168,-7.5647,-7.5886,-7.5318,-7.5138,-7.5078,-7.5078,-7.4958,-7.5198,-7.6006,-7.6425,-7.7023,-7.7951,-7.837,-7.8639,-7.8789,-7.8789,-7.8789,-7.8789,-7.5837,-7.327,-7.1338,-7.0255,-6.9044,-6.7646,-6.7561,-6.7052,0.0,0.0,0.0,-5.2724,0.0,0.0,0.0,-5.879,-5.9479,-5.8405,-5.9538,-6.0066,-5.7911,-5.8337,-5.9006,-5.8984,-5.9834,-6.0578,-6.0897,-6.0798,-6.1225,-6.2587,-6.2466,-6.2919,-6.4553,-6.5629,-6.6689,-6.7848,-6.888,-6.9452,-6.9516,-6.9782,-7.0111,-7.044,-7.044,-7.059,-7.0889,-7.0889,-7.0889,-7.0889,-7.0889,-7.0889,-7.0889,-7.0889,-7.0889,-7.0889,-7.0889,-7.0889,-7.0889,-7.0889,-7.0889,-7.0889,-7.0889,-7.0889,-7.0889,-7.0889,-7.0889,-7.0949,-7.1278,-7.1398,-7.1517,-7.2176,-7.2385,-7.2535,-7.3193,-7.4091,-7.5108,-7.6096,-7.6125,-7.5916,-7.6275,-7.5886,-7.5288,-7.4958,-7.4869,-7.4869,-7.4869,-7.4869,-7.4869,-7.4869,-7.4869,-7.4869,-7.4869,-7.5168,-7.5288,-7.4929,-7.5168,-7.5258,-7.4929,-7.4869,-7.4869,-7.4869,-7.4869,-7.5138,-7.5856,-7.6185,-7.6784,-7.7741,-7.813,-7.846,-7.8789,-7.8789,-7.8004,-7.6363,-7.4666,-7.2561,-7.0091,-6.9237,-6.8513,-6.784,-6.7561,-6.7137,0.0,0.0,0.0,0.0,0.0,-5.5484,0.0,0.0,0.0,-5.8026,-5.8578,-5.869,-5.7203,-5.7668,-5.7971,-5.7061,-5.8434,0.0,0.0,-5.9311,0.0,-6.1484,-6.1242,-6.1896,-6.4288,-6.5258,-6.6513,-6.8301,-6.906,-6.9633,-6.9995,-6.9991,-7.026,-7.0889,-7.0889,-7.0889,-7.0889,-7.0889,-7.0889,-7.0889,-7.0889,-7.0889,-7.0889,-7.0889,-7.0889,-7.0889,-7.0889,-7.0889,-7.0889,-7.0889,-7.0889,-7.0889,-7.0889,-7.0889,-7.0889,-7.0889,-7.0979,-7.1158,-7.1697,-7.1966,-7.2206,-7.2864,-7.3193,-7.3402,-7.3911,-7.4929,-7.6006,-7.6514,-7.6664,-7.6664,-7.6664,-7.6185,-7.5557,-7.5018,-7.4869,-7.4869,-7.4869,-7.4869,-7.4869,-7.4869,-7.4869,-7.4869,-7.4869,-7.4869,-7.4869,-7.4869,-7.4869,-7.4869,-7.4869,-7.4869,-7.4869,-7.4869,-7.4869,-7.5108,-7.5647,-7.5826,-7.6335,-7.7382,-7.7682,-7.8041,-7.8579,-7.841,-7.6914,-7.3894,-7.3505,-7.1793,-6.8764,-6.8764,-6.8513,-6.8035,-6.7646,-6.7222,0.0,0.0,0.0,0.0,-5.3492,0.0,0.0,0.0,-5.3627,-5.4202,0.0,-5.4067,-5.3044,0.0,0.0,0.0,-5.5939,0.0,-5.51,-5.7326,-5.9915,-6.1728,-6.2138,-6.2405,-6.2683,-6.62,-6.8329,-6.8083,-7.0298,-7.1177,-7.0055,-6.9991,-7.026,-7.0889,-7.0889,-7.0889,-7.0889,-7.0889,-7.0889,-7.0889,-7.0889,-7.0889,-7.0889,-7.0889,-7.0889,-7.0889,-7.0889,-7.0889,-7.0889,-7.0889,-7.0889,-7.0889,-7.0889,-7.0889,-7.0889,-7.0889,-7.1278,-7.1787,-7.1846,-7.2295,-7.2924,-7.3582,-7.418,-7.4659,-7.4749,-7.5288,-7.5916,-7.5976,-7.6006,-7.6006,-7.6006,-7.5497,-7.4958,-7.4899,-7.4869,-7.4869,-7.4869,-7.4869,-7.4869,-7.4869,-7.4869,-7.4869,-7.4869,-7.4869,-7.4869,-7.4869,-7.4869,-7.4869,-7.4869,-7.4869,-7.4869,-7.4869,-7.4869,-7.4899,-7.4988,-7.5557,-7.5976,-7.6125,-7.7173,-7.7831,-7.7921,-7.7093,-7.5686,-7.3816,-7.2351,-7.0636,-6.8764,-6.8764,-6.8429,-6.7561,-6.7561,-6.7052,0.0,0.0,0.0,0.0,0.0,0.0,-5.8563,0.0,-5.6743,-5.5548,0.0,0.0,0.0,0.0,0.0,0.0,-5.5418,-5.6466,0.0,0.0,-5.9267,0.0,0.0,0.0,-6.294,-6.7297,-6.9002,-6.6431,-6.9594,-7.0802,-6.8947,-6.9901,-7.0799,-7.1457,-7.1457,-7.1457,-7.1457,-7.1098,-7.0889,-7.0889,-7.0889,-7.0889,-7.0889,-7.0889,-7.0889,-7.0889,-7.0889,-7.0889,-7.0889,-7.0889,-7.0889,-7.0949,-7.1338,-7.1457,-7.1457,-7.1457,-7.1906,-7.2535,-7.2924,-7.3223,-7.3582,-7.424,-7.4659,-7.4958,-7.5347,-7.5916,-7.6425,-7.6425,-7.6425,-7.6365,-7.6006,-7.5377,-7.4869,-7.4869,-7.4869,-7.4869,-7.4869,-7.4869,-7.4869,-7.4869,-7.4869,-7.4869,-7.4869,-7.4869,-7.4869,-7.4869,-7.4869,-7.4869,-7.4869,-7.4869,-7.5018,-7.5437,-7.5467,-7.5617,-7.5976,-7.6634,-7.7023,-7.7023,-7.7861,-7.7908,-7.6975,-7.6545,-7.5049,-7.243,-7.1632,-7.0473,-6.8764,-6.8597,-6.8093,-6.7477,-6.7477,-6.7137,-6.2978,0.0,0.0,0.0,0.0,0.0,0.0,0.0,0.0,0.0,0.0,0.0,0.0,0.0,0.0,0.0,0.0,-5.473,0.0,-5.5987,0.0,0.0,0.0,0.0,0.0,-6.791,-6.927,-6.6102,-6.9649,-7.0976,-6.8677,-7.0021,-7.1218,-7.1876,-7.2056,-7.2086,-7.1876,-7.1398,-7.1068,-7.0889,-7.0889,-7.0889,-7.0889,-7.0889,-7.0889,-7.0889,-7.0889,-7.0889,-7.0889,-7.0889,-7.1009,-7.1218,-7.1697,-7.2116,-7.2415,-7.2235,-7.2595,-7.3253,-7.3732,-7.4001,-7.424,-7.4719,-7.4988,-7.5228,-7.5527,-7.6185,-7.6754,-7.6395,-7.6425,-7.6425,-7.5796,-7.5258,-7.4869,-7.4869,-7.4869,-7.4869,-7.4869,-7.4869,-7.4869,-7.4869,-7.4869,-7.4869,-7.4869,-7.4869,-7.4869,-7.4869,-7.4869,-7.4958,-7.5138,-7.4988,-7.5198,-7.6066,-7.6006,-7.6155,-7.6784,-7.7263,-7.7622,-7.7801,-7.7789,-7.7358,-7.6363,-7.5459,-7.3816,-7.1338,-7.088,-6.9927,-6.8597,-6.8371,-6.784,-6.7307,-6.7307,-6.7052,0.0,0.0,0.0,-6.4552,-6.4531,-6.4361,-6.4059,-6.1376,-5.82,0.0,0.0,0.0,0.0,0.0,0.0,0.0,0.0,0.0,0.0,0.0,0.0,0.0,0.0,0.0,0.0,-6.7608,-6.9423,0.0,-7.1367,-7.239,-7.0085,-7.056,-7.1218,-7.1876,-7.2535,-7.2565,-7.1906,-7.1876,-7.1517,-7.0889,-7.0889,-7.0889,-7.0889,-7.0889,-7.0889,-7.0889,-7.0889,-7.0889,-7.0889,-7.0889,-7.1278,-7.1846,-7.1876,-7.2684,-7.3762,-7.3103,-7.3283,-7.3881,-7.3881,-7.43,-7.4839,-7.4869,-7.5318,-7.5766,-7.5108,-7.5796,-7.6574,-7.5288,-7.5437,-7.5766,-7.5078,-7.4899,-7.4869,-7.4869,-7.4869,-7.4869,-7.4869,-7.4869,-7.4869,-7.4869,-7.4869,-7.4869,-7.4869,-7.4869,-7.4869,-7.4869,-7.4869,-7.5108,-7.5796,-7.5288,-7.5377,-7.6664,-7.6275,-7.6155,-7.6784,-7.6844,-7.7143,-7.7771,-7.63,-7.565,-7.6288,-7.3192,-7.1419,-7.1338,-6.9707,-6.868,-6.8203,-6.8203,-6.7756,-6.6797,-6.6797,-6.654,-6.7269,-6.6973,-6.7146,-6.6708,-6.7164,-6.7466,-6.645,-6.4239,0.0,0.0,0.0,0.0,0.0,0.0,0.0,0.0,0.0,0.0,0.0,0.0,0.0,0.0,0.0,0.0,0.0,0.0,0.0,0.0,-6.922,0.0,-6.8797,-7.0081,-7.1427,-7.2535,-7.2804,-7.2804,-7.2565,-7.2116,-7.1547,-7.0889,-7.0889,-7.0889,-7.0889,-7.0889,-7.0889,-7.0889,-7.0889,-7.0889,-7.0949,-7.1368,-7.1697,-7.1966,-7.2864,-7.3492,-7.3881,-7.3642,-7.3971,-7.454,-7.454,-7.4689,-7.4958,-7.5407,-7.5407,-7.5347,-7.5976,-7.6185,-7.6125,-7.5677,-7.5736,-7.5736,-7.5048,-7.4869,-7.4869,-7.4869,-7.4869,-7.4869,-7.4869,-7.4869,-7.4869,-7.4869,-7.4869,-7.4869,-7.4869,-7.4869,-7.4869,-7.4869,-7.5258,-7.5467,-7.5258,-7.5407,-7.5736,-7.6185,-7.6036,-7.6155,-7.6784,-7.6814,-7.6933,-7.7143,-7.5963,-7.4897,-7.4041,-7.2289,-7.0799,-6.9707,-6.9071,-6.8597,-6.8203,-6.7925,-6.7392,-6.6797,-6.6455,-6.6283,-6.9737,-6.9322,-6.929,-6.8884,-6.9384,-6.9757,-6.878,-6.6761,-6.4513,0.0,0.0,0.0,0.0,0.0,0.0,0.0,0.0,0.0,0.0,-5.4012,0.0,0.0,0.0,0.0,0.0,0.0,0.0,0.0,0.0,0.0,0.0,-6.9961,-7.1517,-7.2864,-7.3133,-7.3253,-7.3253,-7.2595,-7.1906,-7.1248,-7.1009,-7.0889,-7.0889,-7.0889,-7.0889,-7.0889,-7.0889,-7.1038,-7.1278,-7.1697,-7.2176,-7.2684,-7.3552,-7.4031,-7.424,-7.424,-7.451,-7.4869,-7.4869,-7.4869,-7.4958,-7.5377,-7.5407,-7.5347,-7.5946,-7.6036,-7.5916,-7.5916,-7.5736,-7.5497,-7.5288,-7.5048,-7.4869,-7.4869,-7.4869,-7.4869,-7.4869,-7.4869,-7.4869,-7.4869,-7.4869,-7.4869,-7.4869,-7.4869,-7.4869,-7.4869,-7.5258,-7.5467,-7.5258,-7.5407,-7.5707,-7.6185,-7.6036,-7.6155,-7.6784,-7.6814,-7.6602,-7.6005,-7.4779,-7.3416,-7.1734,-7.0497,-6.9289,-6.822,-6.8429,-6.8201,-6.7641,-6.7748,-6.7443,-6.6844,-6.6585,-6.6413]},{"header":{"parameterUnit":"m.s-1","parameterCategory":1,"la1":30.6,"la2":29.2853,"lo1":-89.7004,"lo2":-87.6739,"dx":0.0162,"dy":0.0183,"nx":112,"ny":82,"refTime":"2022-12-24T06:00:00:Z","depth":0,"parameterNumber":3,"parameterNumberName":"V-component_of_WINDS"},"data":[0.0,0.0,0.0,0.0,0.0,0.0,0.0,0.0,0.0,0.0,0.0,0.0,0.0,0.0,0.0,0.0,0.0,0.0,0.0,0.0,0.0,0.0,0.0,0.0,0.0,0.0,0.0,0.0,0.0,0.0,0.0,0.0,0.0,0.0,0.0,0.0,0.0,0.0,0.0,0.0,0.0,0.0,0.0,0.0,0.0,0.0,0.0,0.0,0.0,0.0,0.0,0.0,0.0,0.0,0.0,0.0,0.0,0.0,0.0,0.0,0.0,0.0,0.0,0.0,0.0,0.0,0.0,0.0,0.0,0.0,0.0,0.0,0.0,0.0,0.0,0.0,0.0,0.0,0.0,0.0,0.0,0.0,0.0,0.0,0.0,0.0,0.0,0.0,0.0,0.0,4.7608,4.7608,4.7608,4.7788,4.8237,4.7788,4.7429,4.7309,0.0,0.0,0.0,0.0,0.0,0.0,0.0,0.0,0.0,0.0,0.0,0.0,0.0,0.0,0.0,0.0,0.0,0.0,0.0,0.0,0.0,0.0,0.0,0.0,0.0,0.0,0.0,0.0,0.0,0.0,0.0,0.0,0.0,0.0,0.0,0.0,0.0,0.0,0.0,0.0,0.0,0.0,0.0,0.0,0.0,0.0,0.0,0.0,0.0,0.0,0.0,0.0,0.0,0.0,0.0,0.0,0.0,0.0,0.0,0.0,0.0,0.0,0.0,0.0,0.0,0.0,0.0,0.0,0.0,0.0,0.0,0.0,0.0,0.0,0.0,0.0,0.0,0.0,0.0,0.0,0.0,0.0,0.0,0.0,0.0,0.0,0.0,0.0,0.0,0.0,0.0,0.0,0.0,0.0,0.0,0.0,0.0,0.0,0.0,0.0,0.0,0.0,0.0,0.0,4.903,4.903,4.903,4.882,4.8327,4.8207,4.7908,4.7339,0.0,0.0,0.0,0.0,0.0,0.0,0.0,0.0,0.0,0.0,0.0,0.0,0.0,0.0,0.0,0.0,0.0,0.0,0.0,0.0,0.0,0.0,0.0,0.0,0.0,0.0,0.0,0.0,0.0,0.0,0.0,0.0,0.0,0.0,0.0,0.0,0.0,0.0,0.0,0.0,0.0,0.0,0.0,0.0,0.0,0.0,0.0,0.0,0.0,0.0,0.0,0.0,0.0,0.0,0.0,0.0,0.0,0.0,0.0,0.0,0.0,0.0,0.0,0.0,0.0,0.0,0.0,0.0,0.0,0.0,0.0,0.0,0.0,0.0,0.0,0.0,0.0,0.0,0.0,0.0,0.0,0.0,0.0,0.0,0.0,0.0,0.0,0.0,0.0,0.0,0.0,0.0,0.0,0.0,0.0,0.0,0.0,0.0,0.0,0.0,0.0,0.0,0.0,4.8985,4.9643,4.9329,4.9583,4.9523,4.891,4.8506,4.7997,4.7339,4.701,0.0,0.0,0.0,0.0,0.0,0.0,0.0,0.0,0.0,0.0,0.0,0.0,0.0,0.0,0.0,0.0,0.0,0.0,0.0,0.0,0.0,0.0,0.0,0.0,0.0,0.0,0.0,0.0,0.0,0.0,0.0,0.0,0.0,0.0,0.0,0.0,0.0,0.0,0.0,0.0,0.0,0.0,0.0,0.0,0.0,0.0,0.0,0.0,0.0,0.0,0.0,0.0,0.0,0.0,0.0,0.0,0.0,0.0,0.0,0.0,0.0,0.0,0.0,0.0,0.0,0.0,0.0,0.0,0.0,0.0,0.0,0.0,0.0,0.0,0.0,0.0,0.0,0.0,0.0,0.0,0.0,0.0,0.0,0.0,0.0,0.0,0.0,0.0,0.0,0.0,0.0,0.0,0.0,0.0,0.0,0.0,0.0,0.0,0.0,0.0,0.0,0.0,4.9673,5.0331,5.0002,5.0272,5.0272,4.9763,4.9134,4.8386,4.7578,4.7668,0.0,0.0,0.0,0.0,0.0,0.0,0.0,0.0,0.0,0.0,0.0,0.0,0.0,0.0,0.0,0.0,0.0,0.0,0.0,0.0,0.0,0.0,0.0,0.0,0.0,0.0,0.0,0.0,0.0,0.0,0.0,0.0,0.0,0.0,0.0,0.0,0.0,0.0,0.0,0.0,0.0,0.0,0.0,0.0,0.0,0.0,0.0,0.0,0.0,0.0,0.0,0.0,0.0,0.0,0.0,0.0,0.0,0.0,0.0,0.0,0.0,0.0,0.0,0.0,0.0,0.0,0.0,0.0,0.0,0.0,0.0,0.0,0.0,0.0,0.0,0.0,0.0,0.0,0.0,0.0,0.0,0.0,0.0,0.0,0.0,0.0,0.0,0.0,0.0,0.0,0.0,0.0,0.0,0.0,0.0,0.0,0.0,0.0,0.0,0.0,0.0,0.0,5.0331,5.1379,5.1947,5.1498,5.1139,5.1079,5.0435,4.9553,4.8297,4.882,0.0,0.0,0.0,0.0,0.0,0.0,0.0,0.0,0.0,0.0,0.0,0.0,0.0,0.0,0.0,0.0,0.0,0.0,0.0,0.0,0.0,0.0,0.0,0.0,0.0,0.0,0.0,0.0,0.0,0.0,0.0,0.0,0.0,0.0,0.0,0.0,0.0,0.0,0.0,0.0,0.0,0.0,0.0,0.0,0.0,0.0,0.0,0.0,0.0,0.0,0.0,0.0,0.0,0.0,0.0,0.0,0.0,0.0,0.0,0.0,0.0,0.0,0.0,0.0,0.0,0.0,0.0,0.0,0.0,0.0,0.0,0.0,0.0,0.0,0.0,0.0,0.0,0.0,0.0,0.0,0.0,0.0,0.0,0.0,0.0,0.0,0.0,0.0,0.0,0.0,0.0,0.0,0.0,0.0,0.0,0.0,0.0,0.0,0.0,0.0,0.0,0.0,5.2007,5.3324,5.3982,5.3832,5.3533,5.3114,5.1708,5.0451,4.9553,0.0,0.0,0.0,0.0,0.0,0.0,0.0,0.0,0.0,0.0,0.0,0.0,0.0,0.0,0.0,0.0,0.0,0.0,0.0,0.0,0.0,0.0,0.0,0.0,0.0,0.0,0.0,0.0,0.0,0.0,0.0,0.0,0.0,0.0,0.0,0.0,0.0,0.0,0.0,0.0,0.0,0.0,0.0,0.0,0.0,0.0,0.0,0.0,0.0,0.0,0.0,0.0,0.0,0.0,0.0,0.0,0.0,0.0,0.0,0.0,0.0,0.0,0.0,0.0,0.0,0.0,0.0,0.0,0.0,0.0,0.0,0.0,0.0,0.0,0.0,0.0,0.0,0.0,0.0,0.0,0.0,0.0,0.0,0.0,0.0,0.0,0.0,0.0,0.0,0.0,0.0,0.0,0.0,0.0,0.0,0.0,0.0,0.0,0.0,0.0,0.0,0.0,5.1498,5.3473,5.4999,5.5448,5.5119,5.479,5.4551,5.3084,5.1798,5.0853,0.0,0.0,0.0,0.0,0.0,0.0,0.0,0.0,0.0,0.0,0.0,0.0,0.0,0.0,0.0,0.0,0.0,0.0,0.0,0.0,0.0,0.0,0.0,0.0,0.0,0.0,0.0,0.0,0.0,0.0,0.0,0.0,0.0,0.0,0.0,0.0,0.0,0.0,0.0,0.0,0.0,0.0,0.0,0.0,0.0,0.0,0.0,0.0,0.0,0.0,0.0,0.0,0.0,0.0,0.0,0.0,0.0,0.0,0.0,0.0,0.0,0.0,0.0,0.0,0.0,0.0,0.0,0.0,0.0,0.0,0.0,0.0,0.0,0.0,0.0,0.0,0.0,0.0,0.0,0.0,0.0,0.0,0.0,0.0,0.0,0.0,0.0,0.0,0.0,0.0,0.0,0.0,0.0,0.0,0.0,0.0,0.0,0.0,0.0,0.0,0.0,0.0,5.2306,5.4551,5.6248,5.6226,5.5029,5.4521,5.5179,5.461,5.3653,0.0,0.0,0.0,0.0,0.0,0.0,0.0,0.0,0.0,0.0,0.0,0.0,0.0,0.0,0.0,0.0,0.0,0.0,0.0,0.0,0.0,0.0,0.0,0.0,0.0,0.0,0.0,0.0,0.0,0.0,0.0,0.0,0.0,0.0,0.0,0.0,0.0,0.0,0.0,0.0,0.0,0.0,0.0,0.0,0.0,0.0,0.0,0.0,0.0,0.0,0.0,0.0,0.0,0.0,0.0,0.0,0.0,0.0,0.0,0.0,0.0,0.0,0.0,0.0,0.0,0.0,0.0,0.0,0.0,0.0,0.0,0.0,0.0,0.0,0.0,0.0,0.0,0.0,0.0,0.0,0.0,0.0,0.0,0.0,0.0,0.0,0.0,0.0,0.0,0.0,0.0,0.0,0.0,0.0,0.0,0.0,0.0,0.0,0.0,0.0,0.0,0.0,0.0,5.4281,5.6196,5.7902,5.883,5.8171,5.7752,5.7932,5.6496,5.5598,5.5658,0.0,0.0,0.0,0.0,0.0,0.0,0.0,0.0,0.0,0.0,0.0,0.0,0.0,0.0,0.0,0.0,0.0,0.0,0.0,0.0,0.0,0.0,0.0,0.0,0.0,0.0,0.0,0.0,0.0,0.0,0.0,0.0,0.0,0.0,0.0,0.0,0.0,0.0,0.0,0.0,0.0,0.0,0.0,0.0,0.0,0.0,0.0,0.0,0.0,0.0,0.0,0.0,0.0,0.0,0.0,0.0,0.0,0.0,0.0,0.0,0.0,0.0,0.0,0.0,0.0,0.0,0.0,0.0,0.0,0.0,0.0,0.0,0.0,0.0,0.0,0.0,0.0,0.0,0.0,0.0,0.0,0.0,0.0,0.0,0.0,0.0,0.0,0.0,0.0,0.0,0.0,0.0,0.0,0.0,0.0,0.0,0.0,0.0,0.0,0.0,0.0,0.0,5.5927,5.7932,5.9608,6.0416,5.9907,5.9488,5.9488,5.8411,5.7663,5.7513,0.0,0.0,0.0,0.0,0.0,0.0,0.0,0.0,0.0,0.0,0.0,0.0,0.0,0.0,0.0,0.0,0.0,0.0,0.0,0.0,0.0,0.0,0.0,0.0,0.0,0.0,0.0,0.0,0.0,0.0,0.0,0.0,0.0,0.0,0.0,0.0,0.0,0.0,0.0,0.0,0.0,0.0,0.0,0.0,0.0,0.0,0.0,0.0,0.0,0.0,0.0,0.0,0.0,0.0,0.0,0.0,0.0,0.0,0.0,0.0,0.0,0.0,0.0,0.0,0.0,0.0,0.0,0.0,0.0,0.0,0.0,0.0,0.0,0.0,0.0,0.0,0.0,0.0,0.0,0.0,0.0,0.0,0.0,0.0,0.0,0.0,0.0,0.0,0.0,0.0,0.0,0.0,0.0,0.0,0.0,0.0,0.0,0.0,0.0,0.0,0.0,0.0,5.7453,5.9608,6.1194,6.1194,6.0655,6.0266,6.0266,6.0206,5.9727,5.865,0.0,0.0,0.0,0.0,0.0,0.0,0.0,0.0,0.0,0.0,0.0,0.0,0.0,0.0,0.0,0.0,0.0,0.0,0.0,0.0,0.0,0.0,0.0,0.0,0.0,0.0,0.0,0.0,0.0,0.0,0.0,0.0,0.0,0.0,0.0,0.0,0.0,0.0,0.0,0.0,0.0,0.0,0.0,0.0,0.0,0.0,0.0,0.0,0.0,0.0,0.0,0.0,0.0,0.0,0.0,0.0,0.0,0.0,0.0,0.0,4.0227,3.9459,0.0,0.0,0.0,0.0,0.0,0.0,0.0,0.0,0.0,0.0,0.0,0.0,0.0,0.0,0.0,0.0,0.0,0.0,0.0,0.0,0.0,0.0,0.0,0.0,0.0,0.0,0.0,0.0,0.0,0.0,0.0,0.0,0.0,0.0,0.0,0.0,0.0,0.0,0.0,0.0,5.9458,6.0864,6.1882,6.1882,6.1762,6.1672,6.1672,6.1194,6.1224,6.1972,6.0535,0.0,0.0,0.0,0.0,0.0,0.0,0.0,0.0,0.0,0.0,0.0,0.0,0.0,0.0,0.0,0.0,0.0,0.0,0.0,0.0,0.0,0.0,0.0,0.0,0.0,0.0,0.0,0.0,0.0,0.0,0.0,0.0,0.0,0.0,0.0,0.0,0.0,0.0,0.0,0.0,0.0,0.0,0.0,0.0,0.0,0.0,0.0,0.0,0.0,0.0,0.0,0.0,0.0,0.0,0.0,0.0,0.0,0.0,0.0,4.2242,4.1671,0.0,0.0,0.0,0.0,0.0,0.0,0.0,0.0,0.0,0.0,0.0,0.0,0.0,0.0,0.0,0.0,0.0,0.0,0.0,0.0,0.0,0.0,0.0,0.0,0.0,0.0,0.0,0.0,0.0,0.0,0.0,0.0,0.0,0.0,0.0,0.0,0.0,0.0,0.0,0.0,6.0655,6.1732,6.257,6.257,6.257,6.257,6.257,6.2241,6.2211,6.26,6.1642,0.0,0.0,0.0,0.0,0.0,0.0,0.0,0.0,0.0,0.0,0.0,0.0,0.0,0.0,0.0,0.0,0.0,0.0,0.0,0.0,0.0,0.0,0.0,0.0,0.0,0.0,0.0,0.0,0.0,0.0,0.0,0.0,0.0,0.0,0.0,0.0,0.0,0.0,0.0,0.0,0.0,0.0,0.0,0.0,0.0,0.0,0.0,0.0,0.0,0.0,0.0,0.0,0.0,4.2916,4.3154,4.3776,4.3877,4.4184,4.4716,4.4255,4.4059,4.399,4.3624,0.0,0.0,0.0,0.0,0.0,0.0,0.0,0.0,0.0,0.0,0.0,0.0,0.0,0.0,0.0,0.0,0.0,0.0,0.0,0.0,0.0,0.0,5.0148,4.9175,4.9514,4.9833,4.9073,0.0,0.0,0.0,0.0,0.0,0.0,0.0,0.0,0.0,0.0,0.0,6.1762,6.257,6.3288,6.3408,6.3408,6.3408,6.3408,6.3408,6.3139,6.248,6.2331,6.1672,0.0,0.0,0.0,0.0,0.0,0.0,0.0,0.0,0.0,0.0,0.0,0.0,0.0,0.0,0.0,0.0,0.0,0.0,0.0,0.0,0.0,0.0,0.0,0.0,0.0,0.0,0.0,0.0,0.0,0.0,0.0,0.0,3.4179,3.4374,0.0,0.0,0.0,0.0,0.0,0.0,0.0,0.0,0.0,0.0,0.0,0.0,0.0,4.1961,4.1886,4.2936,4.3539,4.3714,4.4618,4.5154,4.5229,4.5707,4.6112,4.6383,4.6634,0.0,4.4643,4.5088,0.0,0.0,0.0,0.0,0.0,0.0,0.0,0.0,0.0,0.0,0.0,0.0,0.0,0.0,0.0,0.0,0.0,0.0,0.0,0.0,0.0,0.0,5.0052,5.0327,5.0939,5.1214,5.0564,5.1353,5.269,5.417,5.5586,5.7184,0.0,0.0,0.0,0.0,0.0,0.0,6.3647,6.3767,6.4096,6.4695,6.4784,6.4784,6.4784,6.4784,6.4485,6.3797,6.3258,6.2361,6.1044,6.0236,0.0,0.0,0.0,0.0,0.0,0.0,0.0,0.0,0.0,0.0,0.0,0.0,0.0,0.0,0.0,0.0,0.0,0.0,0.0,0.0,0.0,0.0,0.0,0.0,0.0,0.0,0.0,0.0,0.0,3.4248,3.5077,3.6006,3.6307,3.6709,0.0,0.0,0.0,0.0,0.0,0.0,0.0,0.0,0.0,4.2233,4.2484,4.276,4.3087,4.3865,4.4593,4.5221,4.5723,4.6276,4.6853,4.7104,4.7212,4.7212,4.7332,4.7188,4.6924,4.7043,4.7257,4.7545,0.0,0.0,0.0,0.0,4.7153,4.744,4.744,4.744,4.7545,4.812,0.0,0.0,0.0,0.0,0.0,0.0,0.0,5.0116,4.9914,5.0345,5.089,5.0817,5.0705,5.089,5.1593,5.2419,5.3276,5.409,5.6078,5.8321,6.0326,6.1762,0.0,0.0,0.0,6.4994,6.4635,6.4575,6.4844,6.5503,6.5592,6.5592,6.5592,6.5592,6.5293,6.4605,6.3947,6.3169,6.2241,6.1224,6.0057,0.0,0.0,0.0,0.0,0.0,0.0,0.0,0.0,0.0,0.0,0.0,0.0,0.0,0.0,0.0,0.0,0.0,0.0,0.0,0.0,0.0,0.0,0.0,0.0,0.0,0.0,0.0,0.0,3.5429,3.6282,3.7663,3.7839,3.8266,0.0,0.0,0.0,0.0,0.0,0.0,4.276,4.2439,4.2665,4.3589,4.3614,4.3815,4.4242,4.4794,4.5547,4.6527,4.6652,4.7205,4.8134,4.8284,4.8158,4.7901,4.8024,4.8329,4.8764,4.8399,4.8688,4.9244,4.8799,4.9139,4.974,4.846,4.8355,4.8852,4.8852,4.893,4.9139,4.9584,4.974,4.974,4.974,0.0,0.0,0.0,0.0,5.1308,5.0532,5.1149,5.181,5.1557,5.1126,5.1137,5.2513,5.3403,5.4036,5.4364,5.6418,5.8785,6.0926,6.2169,0.0,6.4785,6.5592,6.5892,6.5562,6.5682,6.6041,6.67,6.6789,6.6789,6.6789,6.6789,6.643,6.5592,6.5054,6.4395,6.3617,6.2331,6.1373,6.0864,0.0,0.0,0.0,0.0,0.0,0.0,0.0,0.0,0.0,0.0,0.0,0.0,0.0,0.0,0.0,0.0,0.0,0.0,0.0,0.0,0.0,0.0,0.0,0.0,0.0,0.0,0.0,0.0,0.0,3.9496,3.9572,0.0,0.0,0.0,0.0,4.2137,4.1656,4.2228,4.4392,4.3011,4.3193,4.5296,4.5372,4.5372,4.5397,4.5949,4.6527,4.7043,4.7581,4.8134,4.8736,4.9264,4.9213,4.8749,4.9065,4.9191,4.924,4.8755,4.9109,4.9845,4.9819,4.9845,4.9871,4.9793,5.0132,5.0655,5.0655,5.0995,5.1413,5.1465,5.1465,5.1465,5.1465,5.1126,0.0,0.0,5.0795,5.0926,5.1387,5.1999,5.2575,5.3112,5.3243,5.3243,5.3307,5.4277,5.5476,5.674,5.7608,5.8912,6.1507,0.0,6.2756,6.4726,6.5592,6.6221,6.6819,6.7448,6.8076,6.8764,6.8854,6.8854,6.8854,6.8854,6.8286,6.6969,6.6849,6.6251,6.4994,6.3677,6.2959,6.2929,6.1642,0.0,0.0,0.0,0.0,0.0,0.0,0.0,0.0,0.0,0.0,0.0,0.0,0.0,0.0,0.0,0.0,0.0,0.0,0.0,0.0,0.0,0.0,0.0,0.0,0.0,0.0,0.0,0.0,3.9145,3.9798,0.0,4.12,4.1656,4.2233,4.3137,4.3363,4.3966,4.5121,4.4618,4.4669,4.5472,4.5824,4.5849,4.5497,4.6728,4.7631,4.8184,4.8736,4.949,5.0368,5.0193,4.9816,4.9289,4.9064,4.9103,4.933,4.9332,4.9858,5.0685,5.0933,5.0995,5.0995,5.0995,5.1126,5.1309,5.1309,5.1439,5.1596,5.1596,5.1596,5.1596,5.1596,5.1727,5.1884,5.1884,5.2171,5.2511,5.2694,5.2903,5.3217,5.3792,5.3922,5.4027,5.4419,5.5129,5.5802,5.626,5.7311,5.8592,6.0331,6.0961,6.2234,6.5124,6.5786,6.6513,6.8071,6.8495,6.8884,6.9542,6.9243,6.9183,6.9602,6.9243,6.8794,6.8315,6.7867,6.7418,6.6939,6.5652,6.4964,6.4964,6.3647,6.3408,0.0,0.0,0.0,0.0,0.0,0.0,0.0,0.0,0.0,0.0,0.0,0.0,0.0,0.0,0.0,0.0,0.0,0.0,0.0,0.0,0.0,0.0,0.0,0.0,0.0,0.0,3.922,3.9396,4.04,4.1354,4.2108,4.266,4.3363,4.4292,4.4719,4.5246,4.5999,4.5698,4.5748,4.6276,4.6652,4.6778,4.6602,4.7857,4.8761,4.9339,4.969,5.0368,5.1272,5.0896,5.0293,4.9565,4.9213,4.9064,4.9166,4.9455,5.0164,5.0994,5.1408,5.1596,5.1596,5.1596,5.1596,5.1622,5.1831,5.204,5.2197,5.2197,5.2197,5.2197,5.2197,5.2616,5.306,5.306,5.3504,5.4027,5.421,5.4236,5.4393,5.4942,5.5072,5.5255,5.583,5.6249,5.6562,5.6745,5.7209,5.8017,5.933,6.006,6.1688,6.5383,6.6251,6.7318,6.9649,7.0171,7.041,7.059,7.0231,7.0141,7.059,7.044,7.0141,6.9662,6.9423,6.9004,6.8345,6.7478,6.7029,6.7029,6.5922,6.5443,6.5682,0.0,0.0,0.0,0.0,0.0,0.0,0.0,0.0,0.0,0.0,0.0,0.0,0.0,0.0,0.0,0.0,0.0,0.0,0.0,0.0,0.0,0.0,0.0,3.8216,3.9019,3.9923,4.0501,4.153,4.2665,4.3689,4.4292,4.4869,4.5447,4.5497,4.5974,4.7018,4.6125,4.6276,4.7857,4.7933,4.8209,4.8761,4.9339,4.9916,5.0469,5.0494,5.0795,5.1373,5.1373,5.0745,4.9715,4.9715,4.9389,4.895,4.9267,4.9888,5.0703,5.1372,5.1596,5.1622,5.1622,5.1622,5.1727,5.2328,5.2903,5.34,5.3426,5.3426,5.3426,5.3452,5.3818,5.4262,5.4262,5.468,5.5282,5.583,5.5961,5.6118,5.6745,5.6876,5.7033,5.7608,5.7808,5.7895,5.8444,5.7686,5.7315,5.8657,5.9345,6.1146,6.5297,6.6867,0.0,7.1397,7.2342,7.2521,7.19,7.184,7.184,7.1876,7.2505,7.2355,7.1009,7.1547,7.1068,6.9183,6.9093,6.9064,6.9004,6.8315,6.7029,6.5114,0.0,0.0,0.0,0.0,0.0,0.0,0.0,0.0,0.0,0.0,0.0,0.0,0.0,0.0,0.0,0.0,0.0,0.0,0.0,0.0,0.0,0.0,4.0049,3.932,3.9848,4.0651,4.1605,4.2333,4.3037,4.374,4.4292,4.4869,4.5447,4.5497,4.5974,4.7018,4.6853,4.7054,4.7883,4.8309,4.8611,4.8761,4.9715,5.067,5.1649,5.2051,5.2729,5.3658,5.3231,5.2854,5.2553,5.2176,5.1925,5.1749,5.1722,5.1616,5.1416,5.1304,5.1632,5.225,5.225,5.2537,5.2929,5.3086,5.3269,5.3452,5.3844,5.3975,5.4053,5.4497,5.502,5.5438,5.5438,5.5883,5.6484,5.7033,5.719,5.7425,5.8418,5.8653,5.881,5.9385,5.9516,5.9568,5.9725,5.9856,5.9922,5.9834,6.0328,6.1718,6.4835,6.5589,6.666,6.8938,6.9364,6.9815,7.075,7.0858,7.1187,7.184,7.2505,7.2535,7.1667,7.2265,7.2176,7.1128,7.1098,7.044,6.9034,6.8315,6.7717,0.0,0.0,0.0,0.0,0.0,0.0,0.0,0.0,0.0,0.0,0.0,0.0,0.0,0.0,0.0,0.0,0.0,0.0,0.0,0.0,0.0,0.0,4.0701,4.1178,4.1078,4.1354,4.1882,4.2735,4.3539,4.4166,4.4468,4.4995,4.5573,4.6125,4.6175,4.6552,4.7405,4.7456,4.7707,4.8259,4.9038,4.9565,4.9816,5.1122,5.2126,5.2779,5.3356,5.3959,5.4561,5.421,5.3934,5.3683,5.3381,5.313,5.2904,5.2757,5.2506,5.2098,0.0,0.0,0.0,0.0,5.3243,5.3739,5.3739,5.3896,5.421,5.4733,5.4916,5.5072,5.5909,5.6562,5.7059,5.7294,5.7791,5.8314,5.8653,5.8732,5.8889,5.9568,5.9725,5.9882,6.0483,6.0797,6.1032,6.1267,6.179,0.0,6.2365,6.2077,6.2628,6.5119,6.5694,6.6641,6.8692,6.8995,6.9245,6.985,6.9963,7.0482,7.1609,7.2335,0.0,0.0,0.0,7.2894,7.1936,7.1607,0.0,0.0,0.0,6.8405,6.7567,6.8345,0.0,0.0,6.4695,6.4784,0.0,0.0,0.0,0.0,0.0,0.0,0.0,0.0,0.0,0.0,0.0,0.0,0.0,0.0,0.0,0.0,4.1706,4.269,4.3187,4.3263,4.3438,4.394,4.4819,4.5472,4.5648,4.6125,4.6627,4.7179,4.723,4.7456,4.7983,4.8058,0.0,0.0,0.0,5.0795,5.1373,5.2804,5.3607,5.3808,5.431,5.4587,5.4662,5.4662,5.4386,5.3884,5.3884,5.3658,5.3281,5.3231,5.306,5.2886,5.2862,5.2595,5.2297,5.3231,5.3909,5.4419,5.4471,0.0,0.0,5.5935,5.6144,5.6405,5.7529,5.8261,5.881,5.9307,5.983,6.0248,6.03,6.0326,6.0352,6.0483,6.0509,6.0692,6.1267,6.1816,6.2313,6.2835,6.3384,6.4116,6.5188,6.4116,6.3738,6.5813,6.6526,6.7517,6.9309,6.9588,6.9467,6.9112,6.9112,0.0,7.1345,7.2195,7.2877,7.3482,7.3499,7.2924,7.1881,7.1272,7.0949,7.1009,7.032,6.9064,6.7208,6.7208,6.658,6.5413,6.7567,6.7926,0.0,0.0,0.0,0.0,0.0,0.0,0.0,0.0,0.0,0.0,0.0,0.0,0.0,0.0,0.0,4.2409,4.3438,4.4342,4.492,4.4995,4.5045,4.5146,4.4945,4.5321,4.6677,4.6903,4.7179,4.7707,4.7757,4.8008,4.856,4.9038,4.9515,5.0067,5.077,5.1373,5.195,5.2251,5.308,5.4411,5.4511,0.0,5.5239,5.5239,5.5164,5.5064,5.5064,5.5265,5.5541,5.5089,5.4799,5.4493,5.3426,5.3185,5.3501,5.4578,5.5221,5.5647,5.6144,5.6379,5.6562,5.7137,5.7634,5.8131,5.8836,5.9437,0.0,6.0013,6.0143,6.0326,6.0823,6.0953,6.1189,6.2104,6.2313,6.2469,6.3071,6.328,6.3384,6.3489,6.3985,6.4587,6.5266,6.5109,6.5241,6.6134,6.6318,6.6398,6.6316,6.6341,6.6754,6.7925,6.8563,6.9587,7.1361,7.2602,7.2715,7.1403,7.0819,7.0809,7.1528,7.1125,7.1158,7.1697,7.056,6.9542,6.8615,6.8615,6.8196,6.7358,6.6311,6.5652,0.0,0.0,0.0,0.0,0.0,0.0,0.0,0.0,0.0,0.0,0.0,4.105,4.1656,0.0,4.2836,4.3664,4.4493,4.5171,4.5447,4.5497,4.5598,4.5874,4.5899,4.614,4.6993,4.7355,4.7757,4.8309,4.8586,4.8987,4.9565,5.0142,5.0569,5.0845,5.1398,5.1825,5.2101,5.2628,5.3457,5.4561,5.4838,5.5265,5.5792,5.5792,5.5792,5.5792,5.5792,5.5968,5.6143,5.5315,5.4955,5.4719,5.3442,5.3649,5.4688,5.5254,5.5736,5.6106,5.6418,5.6591,5.6902,5.7477,5.7843,5.8287,5.9437,5.9986,6.0352,6.0927,6.1293,6.1607,6.1894,6.2182,6.2548,6.3123,6.3254,6.3332,6.362,6.3907,6.4116,6.4116,6.456,6.524,6.6076,6.6024,6.592,6.6233,6.6286,6.6076,6.5475,6.5371,6.5687,6.6523,6.6919,6.7743,6.9521,7.07,7.0865,6.9536,6.8949,6.8998,7.0036,6.8886,6.9207,7.1368,6.9761,6.9044,6.9482,6.9812,6.9602,6.8974,6.8286,6.7627,0.0,0.0,0.0,0.0,0.0,0.0,0.0,3.9772,4.0199,4.0852,4.143,4.1957,4.2384,4.3067,4.3765,4.4644,4.5271,4.5648,4.5648,4.5748,4.5974,4.6426,4.6778,4.7104,4.7431,4.7832,4.836,4.9038,4.9515,4.9992,5.0569,5.1122,5.1448,5.1448,5.1975,5.2327,5.2427,5.3281,5.4059,5.4737,5.5164,5.5616,5.6043,5.6043,5.6043,5.6043,5.6043,5.5993,5.5817,5.4938,5.4637,5.4637,5.3758,5.4359,5.5688,5.5529,5.5809,5.6261,5.646,5.6721,5.7077,5.7686,5.7974,5.8444,5.9934,6.0561,6.0953,6.1999,6.2626,6.2992,6.2992,6.3332,6.3698,6.3803,6.3855,6.3881,6.3985,6.4378,6.4691,6.4691,6.5083,6.5737,6.6887,6.6652,6.6312,6.6416,6.6364,6.6076,6.5475,6.5371,6.5371,6.5371,6.5213,6.5686,6.7229,6.8059,6.8395,6.8071,6.7345,6.7383,6.8246,6.6744,6.7358,7.0611,6.8847,6.8628,6.9991,7.047,7.047,6.9991,7.05,7.0231,3.1818,3.287,3.4634,3.723,3.7388,3.7809,0.0,4.1455,4.1455,4.2484,4.3137,4.3539,4.3614,4.4493,4.5246,4.5372,4.5849,4.6225,4.6225,4.6652,4.6979,4.6968,4.6652,4.6979,4.846,4.8636,4.9113,5.0142,5.0293,5.0569,5.1147,5.1699,5.2026,5.2026,5.2553,5.3055,5.3507,5.3632,5.4235,5.529,5.5365,5.5415,5.5491,5.5491,5.5491,5.5491,5.5491,5.5189,5.4737,5.4612,5.4863,5.529,5.5164,5.5563,5.6037,5.5386,5.5688,5.6553,5.7423,5.7746,5.7817,5.825,5.9098,6.0065,6.0797,6.1738,6.2679,6.3306,6.3541,6.3593,6.3593,6.362,6.3803,6.4325,6.443,6.4587,6.5083,6.524,6.5292,6.5292,6.5345,6.5737,6.6887,6.6652,6.6442,6.6939,6.6599,6.6076,6.5475,6.5371,6.5371,6.5371,6.4611,6.4507,6.5609,6.5687,6.6064,6.6999,6.6017,6.5827,6.7012,6.7057,6.7889,6.969,6.8983,6.9068,6.9991,7.0051,7.0051,6.9991,7.0051,7.029,3.302,3.4279,3.5785,3.7863,3.89,3.9867,4.1339,4.1756,4.2133,4.3237,4.3639,4.3991,4.4669,4.5171,4.5598,0.0,4.615,4.6426,4.6753,4.6979,4.738,4.8008,4.7883,4.8008,4.8711,4.9364,4.9916,5.0393,5.1021,5.1498,5.1749,5.2277,5.2578,5.2578,5.3105,5.3482,5.3708,5.4034,5.4612,5.539,5.539,5.539,5.539,5.539,5.5214,5.4913,5.4913,5.4963,5.5013,5.4687,5.4888,5.5365,5.5039,5.5239,5.5717,5.571,5.6315,5.7046,5.7492,5.7713,5.8051,5.8746,5.9279,5.9743,6.1171,6.2031,6.2634,6.3438,6.3907,6.4168,6.4168,6.443,6.4743,6.4979,6.5031,6.5083,6.5345,6.5371,6.5371,6.5371,6.5371,6.5737,6.6887,6.6338,6.6076,6.6965,6.6383,6.573,6.5449,6.5238,6.5029,6.4926,6.4221,6.3984,6.4386,6.4084,6.416,6.501,6.419,6.4562,6.6195,6.5586,6.6322,6.8726,6.7663,6.7665,6.8929,6.9373,6.9989,7.0905,7.1287,7.2087,3.4103,3.5569,3.6741,3.8099,3.9946,4.1409,4.126,4.1988,4.2836,4.3639,4.4041,4.4518,4.5347,4.5623,4.5849,4.625,4.6301,4.6502,4.6993,4.7255,4.7707,4.8661,4.9038,4.9213,4.9213,4.9941,5.0544,5.087,5.1649,5.2176,5.2327,5.2854,5.313,5.313,5.3658,5.4009,5.416,5.4436,5.4838,5.539,5.5239,5.5164,5.5164,5.5315,5.5089,5.4587,5.4737,5.4938,5.5139,5.4737,5.4988,5.5566,5.5164,5.544,5.6143,5.652,5.6937,5.732,5.7393,5.7713,5.8182,5.903,5.9355,5.9704,6.136,6.2166,6.2792,6.3673,6.4325,6.477,6.477,6.5083,6.5371,6.5371,6.5371,6.5371,6.5371,6.5371,6.5371,6.5371,6.5371,6.5711,6.6704,6.605,6.5711,6.6542,6.5825,6.5227,6.537,6.5029,6.4558,6.3961,6.3544,6.3154,6.2741,6.2504,6.2735,6.3491,6.3203,6.3894,6.5699,6.4577,6.5159,6.779,6.6567,6.6633,6.8165,6.8686,6.949,7.0591,7.1122,7.2291,3.4571,3.5997,3.6941,3.7702,3.9925,4.1735,4.123,4.2462,4.3765,4.379,4.4669,4.5447,4.5472,4.5924,4.6301,4.6301,4.6301,4.6502,4.6993,4.7556,4.8109,4.8711,4.9715,5.0368,0.0,5.0393,5.087,5.1975,5.2076,5.2327,5.2879,5.3381,5.3683,5.3683,5.4235,5.4787,5.534,5.4813,5.4838,5.539,5.4838,5.4587,5.4612,5.5139,5.5089,5.4587,5.5139,5.5064,5.4587,5.4587,5.5214,5.6194,5.6168,5.6846,5.7826,5.7851,5.7499,5.7071,5.7466,5.7943,5.8499,5.8871,5.9653,6.0593,6.1238,6.2452,6.3776,6.4351,6.4926,6.5345,6.5345,6.5371,6.5371,6.5371,6.5371,6.5371,6.5371,6.5371,6.5371,6.5371,6.5371,6.558,6.6207,6.5789,6.5447,6.5644,6.4772,6.4466,6.5292,6.49,6.4039,6.2687,6.2355,6.1685,6.0354,6.0991,6.1938,6.3026,6.344,6.422,6.5371,6.4796,6.5259,6.6812,6.6216,6.6633,6.8165,6.8193,6.8265,6.8265,6.8293,6.9494,3.4774,3.6252,3.7687,3.7872,3.9939,4.1787,4.1653,4.2782,4.4016,4.4769,4.5221,4.5497,4.5497,4.5949,4.6175,4.5824,4.6075,4.6627,4.7531,4.7807,4.8259,4.9213,4.9967,0.0,0.0,0.0,0.0,5.2076,5.2452,5.2879,5.3406,5.3607,5.3884,5.426,5.4461,5.4662,5.4838,5.4662,5.4838,5.539,5.5189,5.5114,5.5114,5.4938,5.4938,5.5114,5.5315,5.5691,5.6194,5.6194,5.6646,5.7323,5.7323,5.7549,5.7901,5.7901,5.8001,5.8102,5.8174,5.8223,5.8526,5.9357,5.9692,6.0023,6.1198,6.2123,6.3,6.3882,6.443,6.49,6.5292,6.5371,6.5371,6.5371,6.5371,6.5371,6.5371,6.5371,6.5371,6.5371,6.5371,6.558,6.6181,6.5789,6.5239,6.4898,6.4418,6.4119,6.4119,6.3775,6.3337,6.2845,6.2351,6.188,6.137,6.1672,6.2292,6.3465,6.3595,6.4195,6.5345,6.5214,6.5319,6.5841,6.5656,6.5834,6.6373,6.6373,6.6882,6.7914,6.7914,6.8892,3.6265,3.7606,3.8728,3.8317,3.9939,4.1482,4.0875,4.2243,4.3869,4.4586,4.5326,4.5773,4.5773,4.6075,4.62,4.5849,4.625,4.6903,4.7782,4.8083,4.8636,4.9766,5.0393,5.0946,0.0,0.0,0.0,5.2402,5.2904,5.3356,5.3683,5.3909,5.4185,5.4561,5.4762,5.4863,5.4863,5.4863,5.4938,5.5089,5.5089,5.5189,5.539,5.5214,5.544,5.5993,5.6194,5.6696,5.7349,5.7349,5.7675,5.8202,5.8202,5.8303,5.8478,5.8478,5.8704,5.893,5.858,5.858,5.8883,5.9541,5.9744,5.9867,6.0762,6.1582,6.2301,6.3362,6.383,6.4272,6.5161,6.5318,6.5186,6.5136,6.5161,6.5186,6.5136,6.5161,6.5238,6.5397,6.5371,6.5501,6.5894,6.5237,6.4479,6.3853,6.3402,6.313,6.337,6.3024,6.2587,6.2276,6.1684,6.1268,6.1117,6.1268,6.1758,6.269,6.3026,6.3701,6.4794,6.5055,6.5159,6.5159,6.5318,6.5318,6.5159,6.5318,6.5923,6.6963,6.6963,6.7783,3.8614,3.9713,3.9844,3.8908,4.0003,4.0893,3.9195,4.1207,4.3444,4.3505,4.5047,4.6376,4.6326,4.6326,4.6351,4.6326,4.6753,4.728,4.7832,4.8385,4.9138,0.0,0.0,0.0,0.0,0.0,0.0,5.2955,5.3432,5.3708,5.3733,5.426,5.4587,5.4612,5.5089,5.5365,5.539,5.539,5.5139,5.4637,5.4687,5.4988,5.5541,5.6068,5.6595,5.7148,5.77,5.7951,5.7976,5.7976,5.8278,5.8755,5.8755,5.9056,5.9483,5.9483,5.9483,5.9433,5.893,5.9081,5.9483,5.9483,5.9714,6.0048,6.0048,6.0711,6.1736,6.2742,6.3153,6.3614,6.5003,6.5079,6.479,6.456,6.4689,6.479,6.4534,6.4636,6.484,6.5318,6.5397,6.5397,6.5318,6.419,6.3064,6.264,6.176,6.159,6.2845,6.2483,6.1814,6.1065,6.048,6.0048,5.9585,5.9971,6.043,6.1014,6.1886,6.2816,6.3855,6.445,6.4786,6.4786,6.5238,6.5238,6.4866,6.5238,6.5371,6.5371,6.5371,6.6211,3.7775,3.8324,3.8555,3.7968,3.8894,4.0063,4.066,4.2459,4.4365,4.5327,4.6584,4.7255,4.6451,4.6652,4.6803,4.6376,4.6426,4.6853,4.7782,4.8033,0.0,5.0243,0.0,5.1498,5.2051,5.2603,0.0,0.0,5.3632,5.3884,5.4336,5.4486,5.4762,5.5164,5.4913,5.4963,5.539,5.539,5.5516,5.5792,5.6219,5.6721,5.7273,5.7399,5.7775,5.8303,5.8453,5.873,5.9081,5.9081,5.9182,5.9307,5.9307,5.9382,5.9483,5.9483,5.9483,5.9483,5.9332,5.9382,5.9483,5.9483,5.956,5.9637,5.9637,6.0072,6.0685,6.1834,6.2609,6.3361,6.4183,6.484,6.5186,6.4818,6.4737,6.4815,6.4739,6.4497,6.436,6.4866,6.492,6.484,6.4521,6.3458,6.2633,6.2476,6.1477,6.1016,6.1619,6.1473,6.122,6.0987,6.1019,6.0889,6.0431,6.0813,6.1273,6.1865,6.2173,6.2816,6.3855,6.445,6.4786,6.4786,6.5238,6.5397,6.5238,6.5397,6.5371,6.5371,6.5371,6.5608,3.7736,3.7984,3.8129,3.786,3.8369,3.9044,3.9863,4.1582,4.3346,4.4264,4.576,4.6803,4.6702,4.6728,4.6753,4.6677,4.6677,4.6954,4.7782,4.8134,4.8912,0.0,5.1071,0.0,5.2402,5.2955,5.3507,0.0,5.3858,5.3959,5.4607,5.4561,5.4712,5.5013,5.4963,5.5315,5.6093,5.6118,5.6394,5.6947,5.7273,5.77,5.8252,5.8252,5.8554,5.9056,5.9056,5.9232,5.9483,5.9483,5.9483,5.9483,5.9483,5.9483,5.9483,5.9483,5.9483,5.9483,5.9483,5.9483,5.9483,5.9483,5.9483,5.9483,5.9483,5.9663,6.0121,6.1469,6.2035,6.2552,6.3757,6.418,6.4136,6.3824,6.3794,6.3843,6.3745,6.3761,6.3882,6.4132,6.4366,6.4206,6.3214,6.2601,6.2012,6.1522,6.076,6.0276,6.044,6.0551,6.0529,6.0374,6.0456,6.0431,6.0201,6.0431,6.0712,6.1019,6.1348,6.1883,6.2942,6.3507,6.3943,6.42,6.484,6.5079,6.484,6.5212,6.5371,6.5371,6.5371,6.5371,3.8046,3.8191,3.8191,3.8191,3.8191,3.8237,3.8353,4.0079,4.1742,4.2292,4.4207,4.605,4.6878,4.6702,4.6577,4.6993,4.7018,4.7255,4.7933,4.8385,4.9314,5.1071,5.1272,5.1724,5.2829,5.3406,5.3909,5.4411,5.3984,5.3984,5.4637,5.4612,5.4587,5.4662,5.529,5.6068,5.7022,5.7123,5.7449,5.8001,5.8001,5.8303,5.883,5.883,5.9056,5.9483,5.9483,5.9483,5.9483,5.9483,5.9483,5.9483,5.9483,5.9483,5.9483,5.9483,5.9483,5.9483,5.9483,5.9483,5.9483,5.9483,5.9483,5.9483,5.9483,5.9483,5.9812,6.1312,6.1483,6.1655,6.3334,6.3232,6.2643,6.2476,6.2494,6.2564,6.2552,6.3029,6.3402,6.3163,6.3575,6.352,6.1976,6.1695,6.1438,6.0412,5.9859,5.9483,5.9483,5.9817,5.9894,5.9585,5.9585,5.9585,5.9483,5.9585,5.956,5.956,6.001,6.072,6.1748,6.2306,6.289,6.3473,6.428,6.4547,6.4119,6.484,6.5238,6.5318,6.5318,6.5397,3.7964,3.8191,3.8191,3.8191,3.8191,3.8399,3.9131,4.1117,4.2905,4.3279,4.554,4.728,4.6577,4.6753,4.7029,4.7043,4.6753,4.6954,4.841,4.8284,4.8862,0.0,5.1272,5.1724,5.2829,5.3406,0.0,5.3833,5.3758,5.416,5.5189,5.4813,5.4762,5.5239,5.6219,5.6846,5.7022,5.7499,5.8027,5.8579,5.8579,5.8855,5.9357,5.9357,5.9408,5.9483,5.9483,5.9483,5.9483,5.9483,5.9483,5.9483,5.9483,5.9483,5.9483,5.9483,5.9483,5.9483,5.9483,5.9483,5.9483,5.9483,5.9483,5.9483,5.9483,5.9483,5.9734,6.0943,6.1483,6.1767,6.221,6.2792,6.3089,6.2643,6.2614,6.2712,6.3173,6.3427,6.324,6.2361,6.2931,6.3118,6.1605,6.1324,6.1069,6.0412,5.9859,5.9483,5.9483,5.9585,5.9585,5.9483,5.9817,5.9894,5.9508,5.9817,5.9971,5.9971,6.0166,6.0745,6.1799,6.2332,6.289,6.3473,6.3958,6.42,6.4119,6.428,6.4521,6.492,6.492,6.5079,3.8005,3.8191,3.8191,3.8191,3.8191,3.8246,3.8398,4.0221,4.186,4.2052,4.4281,4.6125,4.5924,4.61,4.6376,4.6652,4.6476,4.6778,4.8134,4.8335,4.9088,5.1046,5.1272,5.1724,0.0,5.3658,5.4034,5.3733,5.3984,5.4386,5.4938,5.4988,5.539,5.6219,5.6746,5.7249,5.7901,5.8177,5.8604,5.9131,5.9131,5.9257,5.9483,5.9483,5.9483,5.9483,5.9483,5.9483,5.9483,5.9483,5.9483,5.9483,5.9483,5.9483,5.9483,5.9483,5.9483,5.9483,5.9483,5.9483,5.9483,5.9483,5.9483,5.9483,5.9483,5.9483,5.9734,6.0864,6.1324,6.1529,6.1949,6.2114,6.2125,6.1966,6.2088,6.2467,6.3022,6.3148,6.2815,6.1823,6.2406,6.2538,6.0666,6.0788,6.0889,6.001,5.9659,5.9483,5.9483,5.9483,5.9483,5.9483,5.9663,5.974,5.9508,5.9663,5.9817,5.9817,5.9812,6.0214,6.1028,6.1584,6.2139,6.2719,6.3402,6.3878,6.4119,6.4386,6.4681,6.5079,6.5079,6.5238,3.7902,3.8109,3.8191,3.8191,3.8191,3.8005,3.7343,3.9056,4.0678,4.0456,4.2541,4.4543,4.4895,4.5045,4.5296,4.5849,4.605,4.6552,4.7732,4.8309,4.9213,0.0,5.1197,0.0,5.2829,5.3909,0.0,5.3758,5.4336,5.4687,5.4587,5.5315,5.6143,5.6923,5.7273,5.7826,5.8704,5.883,5.9081,5.9483,5.9483,5.9483,5.9483,5.9483,5.9483,5.9483,5.9483,5.9483,5.9483,5.9483,5.9483,5.9483,5.9483,5.9483,5.9483,5.9483,5.9483,5.9483,5.9483,5.9483,5.9483,5.9483,5.9483,5.9483,5.9483,5.9483,5.9709,6.0713,6.0989,6.109,6.1542,6.1316,6.104,6.1165,6.1692,6.2295,6.2747,6.2822,6.2496,6.1391,6.1969,6.1969,5.9859,6.0337,6.0663,5.9633,5.9483,5.9483,5.9483,5.9483,5.9483,5.9483,5.9483,5.9483,5.9483,5.9483,5.9483,5.9483,5.9483,5.9734,6.0286,6.0864,6.1441,6.1994,6.2871,6.3473,6.3797,6.42,6.4601,6.4974,6.5079,6.5159,3.7425,3.786,3.8191,3.8191,3.8191,3.7839,3.6535,3.8879,4.1007,3.9771,4.1861,4.374,4.3288,4.3614,4.4141,4.4694,0.0,4.6125,4.7682,4.7958,4.8611,5.0293,0.0,0.0,5.2829,5.3909,5.4336,5.3758,5.4712,5.5089,5.4658,5.6043,5.6922,5.7022,5.8027,5.8629,5.873,5.9182,5.9458,5.9483,5.9483,5.9483,5.9483,5.9483,5.9483,5.9483,5.9483,5.9483,5.9483,5.9483,5.9483,5.9483,5.9483,5.9483,5.9483,5.9483,5.9483,5.9483,5.9483,5.9483,5.9483,5.9483,5.9483,5.9483,5.9483,5.9483,5.9608,6.0236,6.0387,6.0412,6.0462,6.0437,6.0537,6.1065,6.1994,6.2772,6.2822,6.2822,6.2496,6.1391,6.1667,6.1542,5.9784,6.001,6.0186,5.9583,5.9483,5.9483,5.9483,5.9483,5.9483,5.9483,5.9483,5.9483,5.9483,5.9483,5.9483,5.9483,5.9483,5.9734,6.0286,6.0864,6.1441,6.1994,6.2546,6.2904,6.2904,6.2985,6.323,6.3716,6.4039,6.4441,3.7153,3.7632,3.7839,3.8109,3.7757,3.733,3.7211,3.8426,3.9577,3.9423,4.1247,4.2635,4.2082,4.271,4.3489,4.4041,0.0,0.0,4.7682,4.8209,4.9063,5.0745,5.1147,0.0,0.0,0.0,5.4612,5.4712,5.5139,5.544,5.5541,5.6495,5.7349,5.8027,5.8478,5.888,5.9182,5.9382,5.9483,5.9483,5.9483,5.9483,5.9483,5.9483,5.9483,5.9483,5.9483,5.9483,5.9483,5.9483,5.9483,5.9483,5.9483,5.9483,5.9483,5.9483,5.9483,5.9483,5.9483,5.9483,5.9483,5.9483,5.9483,5.9483,5.9483,5.9483,5.9608,6.0161,6.0311,6.0311,6.0311,6.0588,6.0989,6.1542,6.227,6.2822,6.2822,6.2822,6.2496,6.1391,6.1617,6.1466,5.9784,5.996,6.0136,5.9583,5.9483,5.9483,5.9483,5.9483,5.9483,5.9483,5.9483,5.9483,5.9483,5.9483,5.9483,5.9483,5.9483,5.9583,5.9809,6.0688,6.1291,6.1492,6.237,6.2904,6.323,6.323,6.3554,6.428,6.4119,6.436,3.6513,3.7074,3.7363,3.7695,3.7177,3.6749,3.7339,3.7814,3.8273,3.8847,4.0296,4.1304,4.0927,4.1756,4.2735,4.3438,0.0,4.5748,4.723,4.8058,4.9138,5.082,0.0,5.185,5.3281,5.426,5.5039,5.5591,5.5792,5.6118,5.6671,5.7223,5.7901,5.8704,5.8855,5.9131,5.9483,5.9483,5.9483,5.9483,5.9483,5.9483,5.9483,5.9483,5.9483,5.9483,5.9483,5.9483,5.9483,5.9483,5.9483,5.9483,5.9483,5.9483,5.9483,5.9483,5.9483,5.9483,5.9483,5.9483,5.9483,5.9483,5.9483,5.9483,5.9483,5.9483,5.9583,5.996,6.006,6.0111,6.0286,6.0738,6.1316,6.1868,6.2421,6.2822,6.2822,6.2822,6.2496,6.1391,6.1492,6.1291,5.9759,5.9809,5.9935,5.9558,5.9483,5.9483,5.9483,5.9483,5.9483,5.9483,5.9483,5.9483,5.9483,5.9483,5.9483,5.9483,5.9483,5.9483,5.9483,6.0588,6.119,6.119,6.227,6.2985,6.3311,6.3311,6.3635,6.42,6.4039,6.42,3.5191,3.6121,3.6804,3.6825,3.6473,3.6186,3.6453,3.7054,3.7673,3.7846,3.8893,3.9722,3.9722,4.0601,4.1706,4.2811,4.3915,0.0,4.6175,4.7255,4.8535,0.0,5.0946,5.2151,5.4336,5.5039,5.5616,5.6168,5.6696,5.7273,5.7851,5.8403,5.8704,5.873,5.9207,5.9483,5.9483,5.9483,5.9483,5.9483,5.9483,5.9483,5.9483,5.9483,5.9483,5.9483,5.9483,5.9483,5.9483,5.9483,5.9483,5.9483,5.9483,5.9483,5.9483,5.9483,5.9483,5.9483,5.9483,5.9483,5.9483,5.9483,5.9483,5.9483,5.9483,5.9483,5.9483,5.9508,5.9508,5.9633,6.0186,6.0738,6.1316,6.1868,6.2421,6.2822,6.2822,6.2822,6.2496,6.1391,6.119,6.0839,5.9684,5.9508,5.9508,5.9483,5.9483,5.9483,5.9483,5.9483,5.9483,5.9483,5.9483,5.9483,5.9483,5.9483,5.9483,5.9483,5.9483,5.9483,5.9483,6.0588,6.119,6.119,6.227,6.2822,6.2822,6.2822,6.2822,6.2822,6.3311,6.3958,3.4202,3.4819,3.5232,3.5728,3.5045,3.4452,3.5367,3.5569,3.5862,3.6709,3.8107,3.912,3.912,4.0651,4.2133,4.2861,4.4242,0.0,0.0,0.0,0.0,5.077,5.2151,5.3356,5.4461,5.5064,5.5465,5.5641,5.652,5.7123,5.7298,5.8202,5.888,5.9232,5.9408,5.9483,5.9483,5.9483,5.9483,5.9483,5.9483,5.9483,5.9483,5.9483,5.9483,5.9483,5.9483,5.9483,5.9483,5.9483,5.9483,5.9483,5.9483,5.9483,5.9483,5.9483,5.9483,5.9483,5.9483,5.9483,5.9483,5.9483,5.9483,5.9483,5.9483,5.9483,5.9483,5.9483,5.9759,6.0186,6.0763,6.1316,6.1893,6.2446,6.2697,6.2822,6.2822,6.2521,6.2044,6.1316,6.0864,6.0362,5.9633,5.9483,5.9483,5.9483,5.9483,5.9483,5.9483,5.9483,5.9483,5.9483,5.9483,5.9483,5.9483,5.9483,5.9483,5.9483,5.9483,5.9483,5.9483,6.0588,6.119,6.119,6.227,6.2822,6.2822,6.2822,6.2822,6.2822,6.3311,6.3797,3.3039,3.359,3.3839,3.4262,3.3637,3.3257,3.4601,3.4773,3.5103,3.6398,3.7885,3.9045,3.9421,4.1006,4.259,4.374,4.4794,4.605,4.7682,4.7908,4.8761,5.1021,5.308,5.4411,5.4536,5.5265,5.5691,5.5691,5.6721,5.7374,5.7374,5.8403,5.9156,5.9483,5.9483,5.9483,5.9483,5.9483,5.9483,5.9483,5.9483,5.9483,5.9483,5.9483,5.9483,5.9483,5.9483,5.9483,0.0,5.9483,5.9483,5.9483,5.9483,5.9483,5.9483,5.9483,5.9483,5.9483,5.9483,5.9483,5.9533,5.9734,5.9809,5.9759,5.9558,5.9483,5.9483,5.9483,5.9885,6.0462,6.104,6.1592,6.2144,6.2697,6.2822,6.2772,6.2571,6.2245,6.1768,6.1014,6.0563,6.0136,5.9583,5.9483,5.9483,5.9483,5.9483,5.9558,5.9784,5.9633,5.9659,6.0085,5.9935,5.9809,5.9809,5.9608,5.9483,5.9483,5.9483,5.9483,5.9483,6.0362,6.0964,6.119,6.2069,6.2621,6.2822,6.2822,6.2822,6.2822,6.3311,6.3843,0.0,3.2452,3.2776,3.2674,3.2297,3.2427,3.4115,3.4603,0.0,3.6777,3.813,3.9295,4.0325,4.1555,4.3118,4.5095,4.5522,4.615,4.7732,4.8083,4.8937,5.1096,5.3708,5.5139,5.4662,5.5541,5.6168,5.6219,5.7223,5.7851,5.7901,5.8905,5.9483,5.9483,5.9483,5.9483,5.9433,5.9483,5.9483,5.9433,5.9483,5.9483,5.9483,5.9483,5.9483,5.9483,5.9483,5.9483,5.9483,5.9483,5.9483,5.9483,5.9483,5.9483,5.9483,5.9483,5.9483,5.9483,5.9483,5.9508,5.9633,6.0161,6.0311,6.0211,5.9659,5.9533,5.9558,5.9558,5.9985,6.0563,6.109,6.1642,6.2195,6.2697,6.2797,6.2621,6.2119,6.1943,6.1567,6.0512,6.0286,6.0085,5.9583,5.9483,5.9483,5.9483,5.9483,5.9684,6.0236,5.9885,5.9985,6.1065,6.0688,6.0387,6.0387,5.9885,5.9533,5.9483,5.9533,5.9558,5.9558,6.0111,6.0688,6.124,6.1793,6.232,6.2822,6.2822,6.2847,6.2898,6.3306,6.4073,3.0163,0.0,3.1633,3.2061,3.207,3.2344,0.0,3.4333,3.5196,3.6904,3.8797,4.0199,4.0475,4.2811,4.4719,4.4819,4.5899,4.7179,4.8385,4.9665,5.0845,5.18,5.3607,5.4863,5.5164,5.544,5.5767,5.6168,5.6846,5.7424,5.7876,5.8905,5.9483,5.9483,5.9483,5.9307,5.8905,5.9307,5.9307,5.8905,5.9307,5.9483,5.9483,5.9483,5.9483,5.9483,5.9483,5.9483,5.9483,5.9483,5.9483,5.9483,5.9483,5.9483,5.9483,5.9483,5.9483,5.9483,5.9483,5.9784,6.0136,6.0286,6.0311,6.0211,5.9659,5.9784,6.0111,6.0111,6.0839,6.1642,6.1768,6.222,6.2672,6.2797,6.2496,6.2169,6.2044,6.1316,6.0638,6.0362,5.9985,5.9633,5.9508,5.9483,5.9483,5.9483,5.9483,5.9684,6.0236,6.0211,6.0387,6.1115,6.1065,6.0989,6.0989,6.0462,5.996,5.9533,5.9885,6.0111,6.0111,6.109,6.1667,6.1818,6.2345,6.2697,6.2822,6.2822,6.3048,6.3475,6.3583,6.419,2.9333,2.9997,3.0631,3.1237,3.1422,3.1835,3.3443,3.4657,3.6015,3.7964,3.9907,4.158,4.261,4.4267,4.5623,4.605,4.6903,4.7782,4.8661,4.9766,5.082,5.1624,5.3181,5.4386,5.4963,5.5239,5.5717,5.652,5.6872,5.7399,5.8227,5.9056,5.9483,5.9483,5.9483,5.9357,5.9081,5.9357,5.9357,5.9081,5.9357,5.9483,5.9483,5.9483,5.9483,5.9483,5.9483,5.9483,5.9483,5.9483,5.9483,5.9483,5.9483,5.9483,5.9483,5.9483,5.9483,5.9483,5.9483,6.0035,6.0638,6.0111,6.0286,6.0613,6.0035,6.0261,6.0663,6.0387,6.114,6.1943,6.1692,6.222,6.2697,6.2195,6.2044,6.1868,6.1341,6.0763,6.0236,5.9985,5.9709,5.9483,5.9483,5.9483,5.9483,5.9483,5.9709,6.0085,6.0638,6.0713,6.104,6.1843,6.1718,6.1567,6.1567,6.1266,6.0738,5.9935,6.0161,6.0311,6.0311,6.0914,6.1466,6.1994,6.2546,6.2948,6.3224,6.3224,6.35,6.4053,6.4219,6.4746,2.9073,2.9561,3.016,3.0586,3.0843,3.147,3.3606,3.535,3.7216,3.9527,4.1379,4.3193,4.5121,4.5623,4.6175,4.7556,4.7933,4.8234,4.8812,4.9439,5.0293,5.1498,5.2955,5.4059,5.4637,5.5039,5.5767,5.6947,5.6873,5.7474,5.878,5.9257,5.9483,5.9483,5.9483,5.9483,5.9483,5.9483,5.9458,5.9382,5.9458,5.9483,5.9483,5.9483,5.9483,5.9483,5.9483,5.9483,5.9483,5.9483,5.9483,5.9483,5.9483,5.9483,5.9483,5.9483,5.9483,5.9508,5.9684,6.0311,6.0914,6.0035,6.0387,6.1065,6.0487,6.0713,6.109,6.0588,6.119,6.1893,6.1441,6.1994,6.2471,6.1542,6.1592,6.1592,6.0537,6.0261,6.006,5.9583,5.9483,5.9483,5.9483,5.9483,5.9533,5.9608,6.001,6.0563,6.1215,6.1316,6.1692,6.2722,6.2395,6.2119,6.2119,6.2119,6.1692,6.0638,6.0588,6.0613,6.0688,6.0713,6.1165,6.2119,6.2672,6.3199,6.3701,6.3776,6.4078,6.4605,6.4999,6.547,2.9183,3.0153,3.0954,3.0901,3.1361,3.244,3.4845,3.6584,3.8442,4.12,4.31,4.4493,4.5321,4.625,4.6954,4.7143,4.8033,4.8837,4.9389,5.0368,5.1599,5.3155,5.3984,5.4662,5.5214,5.4913,5.534,5.6922,5.6595,5.7223,5.9257,5.9458,5.9483,5.9483,5.9483,5.9483,5.9483,5.9483,5.9282,5.8855,5.9282,5.9483,5.9483,5.9483,5.9483,5.9483,5.9483,5.9483,5.9483,5.9483,5.9483,5.9483,5.9483,5.9483,5.9483,5.9483,5.9483,5.9633,6.0588,6.0713,6.0512,6.0814,6.104,6.1065,6.0487,6.0713,6.1165,6.109,6.1517,6.1994,6.1893,6.1994,6.2094,6.1918,6.1592,6.1115,6.0462,5.996,5.9583,5.9508,5.9483,5.9483,5.9483,5.9483,5.9659,6.0111,6.0261,6.0688,6.1743,6.1893,6.2119,6.2772,6.2747,6.2697,6.2697,6.2697,6.2421,6.1793,6.1743,6.1943,6.2421,6.2446,6.2521,6.2697,6.3274,6.3601,6.3701,6.4128,6.463,6.5157,6.5242,6.5544,2.9228,2.9789,3.0434,3.1231,3.2513,3.3943,3.5733,3.725,3.9104,4.1847,4.3433,4.4776,4.607,4.6803,4.733,4.7933,4.8435,4.9063,4.9916,5.0494,5.1423,5.308,5.3507,5.4009,5.4863,5.4436,5.4913,5.6872,5.652,5.7173,5.9382,5.9483,5.9483,5.9483,5.9483,5.9483,5.9483,5.9483,5.9382,5.9156,5.9382,5.9483,5.9483,5.9483,5.9483,5.9483,5.9483,5.9483,5.9483,5.9483,5.9483,5.9483,5.9483,5.9483,5.9483,5.9483,5.9483,5.9608,6.0437,6.0537,6.0362,6.0638,6.0713,6.0663,6.0387,6.0512,6.0713,6.0713,6.1115,6.1567,6.1567,6.1793,6.1843,6.124,6.114,6.0939,6.006,5.9684,5.9483,5.9483,5.9483,5.9483,5.9483,5.9483,5.9583,5.9834,6.0387,6.0964,6.1492,6.2069,6.2546,6.2797,6.2822,6.2822,6.2822,6.2822,6.2596,6.2044,6.1994,6.2245,6.2797,6.3124,6.3425,6.3701,6.3977,6.4254,6.4555,6.4806,6.5183,6.5735,6.5735,6.586,2.9396,2.9941,3.065,3.2019,3.3356,3.4768,3.6252,3.8025,3.9966,4.1892,4.366,4.517,4.6415,4.6959,4.7631,4.8611,4.8887,4.9364,5.0469,5.072,5.1373,5.2929,5.3105,5.3432,5.4285,5.421,5.4863,5.6696,5.6696,5.7449,5.9382,5.9483,5.9483,5.9483,5.9483,5.9483,5.9483,5.9483,5.9483,5.9483,5.9483,5.9483,5.9483,5.9483,5.9483,5.9483,5.9483,5.9483,5.9483,5.9483,5.9483,5.9483,5.9483,5.9483,5.9508,5.9633,5.9684,5.9784,6.0462,6.0537,6.0337,6.0462,6.0437,6.0311,6.0311,6.0311,6.0311,6.0311,6.0537,6.0839,6.1115,6.1492,6.1592,6.0738,6.0864,6.0864,5.9734,5.9483,5.9483,5.9483,5.9483,5.9483,5.9483,5.9608,5.9684,5.9684,6.0663,6.1366,6.1366,6.222,6.2822,6.2822,6.2948,6.3073,6.3199,6.3199,6.3023,6.2596,6.2596,6.2772,6.3199,6.3626,6.4053,6.4454,6.458,6.4881,6.5283,6.5434,6.571,6.6112,6.6112,6.6112,3.0057,3.1584,3.3129,3.3644,3.3397,3.3729,3.6304,3.9224,4.1483,4.142,4.4336,4.6563,4.5421,4.6674,4.8058,4.8661,4.9213,4.9941,5.1071,5.1649,5.2402,5.3507,5.3658,5.3683,5.3758,5.4662,5.5541,5.6219,5.7198,5.8278,5.9433,5.9483,5.9483,5.9483,5.9483,5.9483,5.9483,5.9483,5.9483,5.9483,5.9483,5.9483,5.9483,5.9483,5.9483,5.9483,5.9483,5.9483,5.9483,5.9483,5.9483,5.9483,5.9483,5.9483,5.9558,6.006,6.0261,6.0412,6.1517,6.119,6.0412,6.0939,6.0763,6.0311,6.0311,6.0311,6.0311,6.0311,5.9985,5.9859,6.0914,6.1215,6.1215,6.114,6.114,6.0864,5.9734,5.9483,5.9483,5.9483,5.9483,5.9483,5.9483,5.991,6.0261,6.0261,6.1215,6.1943,6.1943,6.2471,6.2822,6.2822,6.3299,6.3827,6.4304,6.4354,6.4329,6.4279,6.4279,6.4304,6.4354,6.4379,6.4429,6.4454,6.4982,6.5258,6.5283,6.581,6.6061,6.6112,6.6112,6.6112,3.0078,3.1388,3.2821,3.3784,3.4349,3.5435,3.8103,3.9993,4.164,4.3294,4.4756,4.5882,4.6279,4.7521,4.8636,4.9188,4.9741,5.0494,5.1624,5.2277,5.2879,5.3607,5.3708,5.3833,5.421,5.4637,5.539,5.662,5.7449,5.8378,5.9433,5.9483,5.9483,5.9483,5.9483,5.9483,5.9483,5.9483,5.9483,5.9483,5.9483,5.9483,5.9483,5.9483,5.9483,5.9483,5.9483,5.9483,5.9483,5.9483,5.9483,5.9483,5.9483,5.9483,5.9508,5.9734,5.9809,5.991,6.0688,6.0462,5.991,6.0462,6.0261,5.9809,5.9809,5.9809,5.9809,5.9809,5.9659,5.9759,6.0889,6.119,6.119,6.119,6.119,6.0864,5.9734,5.9483,5.9483,5.9483,5.9483,5.9483,5.9483,5.9659,5.9935,6.0261,6.0989,6.1617,6.1969,6.2797,6.3375,6.3375,6.3852,6.4254,6.4454,6.4781,6.4982,6.4982,6.4655,6.463,6.4957,6.4982,6.5132,6.5484,6.5685,6.581,6.581,6.6011,6.6112,6.6112,6.6112,6.6112,3.0703,3.1875,3.3203,3.4238,3.5165,3.6501,3.908,4.0277,4.1309,4.3216,4.4325,4.5518,4.7333,4.841,4.9213,4.9766,5.0318,5.1021,5.1975,5.2578,5.3055,5.3406,5.3607,5.3858,5.426,5.4762,5.5616,5.6922,5.7876,5.873,5.9458,5.9483,5.9483,5.9483,5.9483,5.9483,5.9483,5.9483,5.9483,5.9483,5.9483,5.9483,5.9483,5.9483,5.9483,5.9483,5.9483,5.9483,5.9483,5.9483,5.9483,5.9483,5.9483,5.9483,5.9508,5.9684,5.9759,5.9834,6.0387,6.0236,5.9809,6.0186,5.996,5.9483,5.9483,5.9483,5.9483,5.9483,5.9483,5.9759,6.0889,6.104,6.0964,6.114,6.104,6.0638,5.9684,5.9483,5.9483,5.9483,5.9483,5.9558,5.9734,5.991,6.0161,6.0537,6.1215,6.1843,6.222,6.3099,6.3827,6.4153,6.4505,6.4806,6.4982,6.5333,6.5559,6.5559,6.5208,6.5157,6.5534,6.5559,6.5735,6.6112,6.6112,6.6112,6.6112,6.6112,6.6112,6.6112,6.6112,6.6112,3.2051,3.3398,3.4805,3.5293,3.5638,3.6503,3.8812,3.996,4.0427,4.036,4.2894,4.5886,4.8371,4.9213,4.9766,5.0318,5.0896,5.1473,5.2026,5.2578,5.2929,5.2929,5.3381,5.3708,5.3708,5.5214,5.6445,5.6997,5.8554,5.9483,5.9483,5.9483,5.9483,5.9483,5.9483,5.9483,5.9483,5.9483,5.9483,5.9483,5.9483,5.9483,5.9483,5.9483,5.9483,5.9483,5.9483,5.9483,5.9483,5.9483,5.9483,5.9483,5.9483,5.9483,5.9558,6.0111,6.0311,6.0387,6.0964,6.0788,6.0311,6.0311,5.9935,5.9483,5.9483,5.9483,5.9483,5.9483,5.9483,5.9759,6.0889,6.0738,6.0462,6.104,6.0738,6.0161,5.9608,5.9483,5.9483,5.9508,5.9483,5.9659,6.0236,6.0788,6.1165,6.119,6.2119,6.2847,6.2847,6.335,6.4103,6.5183,6.5308,6.5509,6.6061,6.6112,6.6112,6.6112,6.6112,6.6112,6.6112,6.6112,6.6112,6.6112,6.6112,6.6112,6.6112,6.6112,6.6112,6.6112,6.6112,6.6112,3.2051,3.3398,3.4883,3.5644,3.6091,3.6567,3.7328,3.8792,4.0668,4.2895,4.5318,4.7383,4.828,4.911,4.9766,5.0318,5.0569,5.1147,5.2503,5.2829,5.3055,5.3432,5.3607,5.3858,5.426,5.5465,5.662,5.7575,5.8805,5.9483,5.9483,5.9483,5.9483,5.9483,5.9483,5.9483,5.9483,5.9483,5.9483,5.9483,5.9483,5.9483,5.9483,5.9106,5.9156,5.9483,5.9106,5.9156,5.9483,5.9483,5.9483,5.9483,5.9483,5.9483,5.9508,5.9684,5.9734,5.9759,5.9935,5.9885,5.9734,5.9734,5.9633,5.9483,5.9483,5.9483,5.9483,5.9483,5.9784,6.0161,6.0487,6.0437,6.0462,6.104,6.0738,6.0161,5.9608,5.9483,5.9608,6.001,5.9759,5.9809,6.0763,6.0738,6.0839,6.1642,6.237,6.3249,6.4404,6.4705,6.5082,6.5785,6.586,6.5936,6.6086,6.6112,6.6112,6.6112,6.6112,6.6112,6.6112,6.6112,6.6112,6.6112,6.6112,6.6112,6.6112,6.6112,6.6112,6.6112,6.6112,6.6112,3.2969,3.418,3.5391,3.6094,3.6357,3.6522,3.73,3.9041,4.1287,4.4212,4.6543,4.8258,4.8992,4.9586,5.0167,5.0971,5.0896,5.1348,5.3005,5.3055,5.313,5.3632,5.3909,5.4185,5.4536,5.5767,5.6922,5.7826,5.888,5.9483,5.9483,5.9483,5.9483,5.9483,5.9483,5.9483,5.9483,5.9483,5.9483,5.9483,5.9282,5.9182,5.9182,5.8855,5.8905,5.9182,5.9081,5.9207,5.9483,5.9483,5.9483,5.9483,5.9483,5.9483,5.9483,5.9483,5.9483,5.9483,5.9483,5.9483,5.9483,5.9483,5.9483,5.9483,5.9483,5.9483,5.9483,5.9483,5.9885,6.0311,6.0311,6.0311,6.0412,6.0763,6.0412,5.991,5.9558,5.9483,5.9583,5.9935,5.9734,5.9784,6.0688,6.0738,6.104,6.2169,6.3174,6.4178,6.5157,6.5484,6.5735,6.6086,6.6112,6.6112,6.6112,6.6112,6.6112,6.6112,6.6112,6.6112,6.6112,6.6112,6.6112,6.6112,6.6112,6.6112,6.6112,6.6112,6.6112,6.6112,6.6112,6.6112,3.4199,3.5234,3.6094,3.6601,3.6426,3.6621,3.8485,4.027,4.2144,4.4477,4.6754,4.8739,5.0037,5.0353,5.082,5.18,5.1649,5.195,5.3432,5.3256,5.3181,5.3632,5.416,5.4536,5.4637,5.6093,5.7298,5.7926,5.8905,5.9483,5.9483,5.9483,5.9483,5.9483,5.9483,5.9483,5.9483,5.9483,5.9483,5.9483,5.8981,5.8704,5.8654,5.8654,5.8679,5.8755,5.9282,5.9483,5.9483,5.9483,5.9483,5.9483,5.9483,5.9483,5.9483,5.9483,5.9483,5.9483,5.9483,5.9483,5.9483,5.9483,5.9483,5.9483,5.9483,5.9483,5.9508,5.9558,5.996,6.0387,6.0337,6.0362,6.0362,6.0261,5.9859,5.9483,5.9483,5.9483,5.9508,5.9558,5.9533,5.9709,6.0362,6.0914,6.1667,6.2873,6.4329,6.5308,6.5358,6.581,6.6112,6.6112,6.6112,6.6112,6.6112,6.6112,6.6112,6.6112,6.6112,6.6112,6.6112,6.6112,6.6112,6.6112,6.6112,6.6112,6.6112,6.6112,6.6112,6.6112,6.6112,6.6112,3.3047,3.4336,3.5781,3.6894,3.709,3.7629,3.9823,4.1063,4.2327,4.4553,4.7092,4.9038,4.9327,5.0297,5.1021,5.082,5.1774,5.2703,5.303,5.3356,5.3582,5.3683,5.3808,5.4235,5.5114,5.6319,5.7449,5.8453,5.9131,5.9483,5.9483,5.9483,5.9483,5.9483,5.9483,5.9483,5.9483,5.9483,5.9483,5.9483,5.8981,5.8504,5.8077,5.8077,5.8303,5.8755,5.9282,5.9483,5.9483,5.9483,5.9483,5.9483,5.9483,5.9483,5.9483,5.9483,5.9483,5.9483,5.9483,5.9483,5.9483,5.9483,5.9483,5.9483,5.9483,5.9483,5.9583,6.001,6.0563,6.0889,6.0437,6.0663,6.0763,5.9885,5.9583,5.9483,5.9483,5.9483,5.9633,6.006,5.9784,5.996,6.1391,6.1743,6.2496,6.4454,6.5057,6.5434,6.5886,6.6036,6.6112,6.6112,6.6112,6.6112,6.6112,6.6112,6.6112,6.6112,6.6112,6.6112,6.6112,6.6112,6.6112,6.6112,6.6112,6.6112,6.6112,6.6112,6.6112,6.6112,6.6112,6.6112,3.3125,3.4375,3.5703,3.6973,3.7305,3.7938,4.0268,4.1462,4.2749,4.5421,4.7702,4.9413,5.0015,5.0738,5.1348,5.1574,5.2352,5.3005,5.3256,5.3532,5.3708,5.3708,5.3959,5.4461,5.5315,5.6646,5.7801,5.8654,5.9207,5.9483,5.9483,5.9483,5.9483,5.9483,5.9483,5.9483,5.9483,5.9483,5.9483,5.9483,5.8981,5.8579,5.8278,5.8027,5.8202,5.8755,5.9282,5.9483,5.9483,5.9483,5.9483,5.9483,5.9483,5.9483,5.9483,5.9483,5.9483,5.9483,5.9483,5.9483,5.9483,5.9483,5.9483,5.9483,5.9483,5.9483,5.9608,6.0161,6.0537,6.0688,6.0387,6.0537,6.0537,5.9684,5.9483,5.9483,5.9483,5.9483,5.9583,5.9859,5.991,6.0161,6.104,6.2094,6.3375,6.5032,6.5509,6.5785,6.6086,6.6112,6.6112,6.6112,6.6112,6.6112,6.6112,6.6112,6.6112,6.6112,6.6112,6.6112,6.6112,6.6112,6.6112,6.6112,6.586,6.5835,6.6112,6.5835,6.586,6.6112,6.6112,6.6112,3.3398,3.4707,3.5898,3.7109,3.7305,3.7788,4.0018,4.1395,4.308,4.6054,4.8215,4.9941,5.0938,5.1373,5.1825,5.2653,5.2961,5.3212,5.3532,5.3738,5.3813,5.3607,5.4235,5.4938,5.5491,5.6972,5.8152,5.8805,5.9257,5.9483,5.9483,5.9483,5.9483,5.9483,5.9483,5.9483,5.9483,5.9483,5.9483,5.9483,5.8981,5.873,5.8704,5.8252,5.8328,5.888,5.9307,5.9483,5.9483,5.9483,5.9483,5.9483,5.9483,5.9483,5.9483,5.9483,5.9483,5.9483,5.9483,5.9483,5.9483,5.9483,5.9483,5.9483,5.9483,5.9483,5.9608,6.0161,6.0311,6.0311,6.0311,6.0311,6.0186,5.9633,5.9483,5.9483,5.9483,5.9483,5.9533,5.9608,6.0161,6.0638,6.0738,6.2471,6.4153,6.5132,6.576,6.6112,6.6112,6.6112,6.6112,6.6112,6.6112,6.6112,6.6112,6.6112,6.6112,6.6112,6.6112,6.6112,6.6112,6.6112,6.6112,6.6112,6.566,6.566,6.6112,6.566,6.566,6.6112,6.6112,6.6112,3.2598,3.4687,3.6719,3.7617,3.7285,3.7233,3.9172,4.0758,4.2482,4.4695,4.8002,5.053,5.0528,5.1724,5.2603,5.2277,5.3128,5.3682,5.3086,5.3978,5.4281,5.3136,5.4361,5.5491,5.6043,5.7198,5.8303,5.9307,5.9458,5.9483,5.9483,5.9483,5.9483,5.9483,5.9483,5.9483,5.9483,5.9483,5.9483,5.9483,5.8981,5.873,5.873,5.8654,5.8905,5.9382,5.9458,5.9483,5.9483,5.9483,5.9483,5.9483,5.9483,5.9483,5.9483,5.9483,5.9483,5.9483,5.9483,5.9483,5.9483,5.9483,5.9483,5.9483,5.9483,5.9483,5.9608,6.0161,6.0311,6.0311,6.0311,6.0311,6.0186,5.9633,5.9483,5.9483,5.9483,5.9483,5.9633,6.0111,6.1065,6.1943,6.2421,6.3525,6.458,6.5208,6.576,6.6112,6.6112,6.6112,6.6112,6.6112,6.6112,6.6112,6.6112,6.6112,6.6112,6.6112,6.6112,6.6112,6.6112,6.6112,6.6112,6.6112,6.6036,6.6036,6.6112,6.6036,6.6036,6.6112,6.6112,6.6112,3.3242,3.5059,3.6621,3.7949,3.7832,3.7696,3.906,4.0868,4.2726,4.4263,4.7392,4.9958,5.0464,5.1615,5.2409,5.2279,5.3263,5.3761,5.3011,5.3982,5.4359,5.3061,5.4386,5.5591,5.6168,5.7223,5.8353,5.9408,5.9483,5.9483,5.9483,5.9483,5.9483,5.9483,5.9483,5.9483,5.9483,5.9483,5.9483,5.9483,5.9257,5.9156,5.9156,5.9156,5.9282,5.9483,5.9483,5.9483,5.9483,5.9483,5.9483,5.9483,5.9483,5.9483,5.9483,5.9483,5.9483,5.9483,5.9483,5.9483,5.9483,5.9483,5.9483,5.9483,5.9483,5.9483,5.9608,6.0161,6.0085,5.9935,6.0236,6.0311,6.0186,5.9633,5.9734,5.9885,5.9558,5.9483,5.9759,6.0638,6.1441,6.2295,6.3149,6.3952,6.4655,6.5208,6.576,6.6112,6.6112,6.6112,6.6112,6.6112,6.6112,6.5986,6.5685,6.5936,6.5986,6.566,6.5936,6.6112,6.6112,6.6112,6.6112,6.6112,6.581,6.581,6.6112,6.581,6.581,6.6112,6.6112,6.6112,3.3574,3.4844,3.5937,3.7656,3.8039,3.8157,3.8734,4.0983,4.2991,4.3278,4.6127,4.8821,4.9425,5.0826,5.2022,5.2173,5.3002,5.3495,5.3161,5.3985,5.424,5.3237,5.4587,5.5691,5.5968,5.7148,5.8202,5.9078,5.9355,5.9508,5.9328,5.9405,5.9483,5.9483,5.9483,5.9483,5.9483,5.9483,5.9483,5.9483,5.9483,5.9483,5.9483,5.9483,5.9483,5.9483,5.9483,5.9483,5.9483,5.9483,5.9483,5.9483,5.9483,5.9483,5.9483,5.9483,5.9483,5.9483,5.9483,5.9483,5.9483,5.9483,5.9483,5.9483,5.9483,5.9483,5.9583,5.9985,5.9809,5.9583,6.001,6.0211,6.0186,5.9633,5.991,6.0161,5.9608,5.9734,6.0161,6.1014,6.1743,6.2471,6.3324,6.4028,6.4605,6.5032,6.566,6.6061,6.5911,6.5911,6.5835,6.571,6.5685,6.5534,6.5107,6.5584,6.5735,6.5308,6.581,6.6112,6.6112,6.6112,6.6112,6.6112,6.571,6.571,6.6112,6.571,6.571,6.6112,6.6112,6.6112,3.2734,3.3516,3.459,3.6328,3.7501,3.8036,3.7529,4.0665,4.308,4.0801,4.402,4.7092,4.6358,4.9204,5.1625,5.165,5.2223,5.2915,5.3613,5.3995,5.4052,5.3713,5.5139,5.5968,5.5491,5.6922,5.7976,5.8169,5.9,5.9328,5.8965,5.9251,5.9483,5.9483,5.9483,5.9483,5.9483,5.9483,5.9483,5.9483,5.9483,5.9483,5.9483,5.9483,5.9483,5.9483,5.9483,5.9483,5.9483,5.9483,5.9483,5.9483,5.9483,5.9483,5.9483,5.9483,5.9483,5.9483,5.9483,5.9483,5.9483,5.9483,5.9483,5.9483,5.9483,5.9483,5.9508,5.9533,5.9508,5.9508,5.9533,5.9935,6.0186,5.9633,5.991,6.0161,5.9608,6.0337,6.1115,6.1165,6.2044,6.2797,6.2873,6.3751,6.4479,6.4505,6.5434,6.5936,6.5409,6.5333,6.5132,6.4605,6.4555,6.453,6.4505,6.5007,6.5333,6.5283,6.581,6.6112,6.6112,6.6112,6.6112,6.6112,6.6086,6.6086,6.6112,6.6086,6.6086,6.6112,6.6112,6.6112,3.2441,0.0,0.0,3.5742,3.6739,3.7251,3.7308,3.9385,4.1004,3.9914,4.2683,4.5319,4.5439,4.8045,5.0308,5.0725,5.1321,5.1856,5.2441,5.3439,5.3881,5.2964,5.463,5.5701,5.544,5.6377,5.7343,5.8067,5.8744,5.9018,5.8862,5.9251,5.9483,5.9483,5.9483,5.9483,5.9483,5.9483,5.9483,5.9483,5.9483,5.9483,5.9483,5.9483,5.9483,5.9483,5.9483,5.9483,5.9483,5.9483,5.9483,5.9483,5.9483,5.9483,5.9483,5.9483,5.9483,5.9483,5.9483,5.9483,5.9483,5.9483,5.9483,5.9483,5.9483,5.9483,5.9483,5.9483,5.9483,5.9583,5.9935,6.0437,6.0914,6.1065,6.0989,6.0814,6.0613,6.1165,6.1718,6.1718,6.232,6.2822,6.2822,6.3475,6.4078,6.4404,6.4806,6.5107,6.5283,6.4982,6.468,6.4479,6.4781,6.4856,6.4505,6.5308,6.566,6.5308,6.581,6.6112,6.6112,6.6112,6.6112,6.6112,6.6112,6.6112,6.6112,6.6112,6.6112,6.6112,6.7256,6.788,3.1973,0.0,0.0,0.0,3.6087,3.7162,3.7132,3.8869,4.0204,3.9359,4.1961,4.4259,4.4022,4.6594,4.9053,4.9932,5.0551,5.1157,5.1702,5.2853,5.3464,5.3023,5.4365,5.5283,5.5199,5.5906,5.669,5.7333,5.8161,5.8688,5.8731,5.9023,5.9232,5.9232,5.9408,5.9483,5.9483,5.9483,5.9483,5.9483,5.9483,5.9483,5.9483,5.9483,5.9483,5.9483,5.9483,5.9483,5.9483,5.9483,5.9483,5.9483,5.9483,5.9483,5.9483,5.9483,5.9483,5.9483,5.9483,5.9483,5.9483,5.9483,5.9483,5.9483,5.9483,5.9483,5.9533,5.9709,5.9784,5.991,6.0462,6.0889,6.1316,6.1868,6.1718,6.1466,6.1466,6.1743,6.1994,6.1994,6.2446,6.2822,6.2822,6.345,6.4078,6.4404,6.4781,6.5082,6.5258,6.4806,6.4404,6.4228,6.4354,6.4404,6.4228,6.5032,6.5484,6.5308,6.581,6.6112,6.6112,6.6112,6.6112,6.6112,6.6112,6.6344,6.7001,6.7001,6.7001,6.7001,6.8773,7.0121,0.0,0.0,0.0,0.0,3.5473,3.7857,3.6956,3.9212,4.0942,3.9062,4.1759,4.3915,4.2058,4.4856,4.7907,4.9173,4.9884,5.0693,5.1603,5.2214,5.2897,5.3821,5.4464,5.4812,5.4787,5.5411,5.5898,5.5978,5.7284,5.8161,5.8237,5.8544,5.873,5.873,5.9207,5.9483,5.9483,5.9483,5.9483,5.9483,5.9483,5.9483,5.9483,5.9483,5.9483,5.9483,5.9483,5.9483,5.9483,5.9483,5.9483,5.9483,5.9483,5.9483,5.9483,5.9483,5.9483,5.9483,5.9483,5.9483,5.9483,5.9483,5.9483,5.9483,5.9483,5.9508,5.9633,6.0161,6.0337,6.0487,6.1065,6.1215,6.1366,6.1893,6.2019,6.2019,6.2019,6.2019,6.2019,6.2019,6.2446,6.2822,6.2822,6.3726,6.4454,6.4454,6.5358,6.5835,6.5308,6.4756,6.4228,6.3726,6.3174,6.3099,6.3676,6.4203,6.4731,6.5283,6.581,6.6112,6.6112,6.6112,6.6112,6.6112,6.6112,6.6916,6.869,6.869,6.869,6.8773,7.0556,7.2798,3.082,0.0,0.0,0.0,0.0,0.0,3.78,3.8563,3.9301,4.052,4.212,4.3529,4.4115,4.5696,4.7244,4.8238,4.8694,4.9241,5.0298,5.137,5.2136,5.2379,5.3562,5.4446,5.4624,5.4819,5.5221,5.5822,5.701,5.7679,5.7749,5.832,5.873,5.873,5.8855,5.9106,5.9483,5.9483,5.9483,5.9483,5.9483,5.9483,5.9483,5.9483,5.9483,5.9483,5.9483,5.9483,5.9483,5.9483,5.9483,5.9483,5.9483,5.9483,5.9483,5.9483,5.9483,5.9483,5.9483,5.9483,5.9483,5.9483,5.9483,5.9483,5.9483,5.9784,6.0111,6.0286,6.0613,6.1065,6.1642,6.2069,6.2395,6.2571,6.2596,6.2596,6.2596,6.2596,6.2596,6.2596,6.2722,6.2822,6.2822,6.3425,6.3902,6.3902,6.4153,6.4304,6.4153,6.3626,6.3224,6.3073,6.3299,6.3676,6.4203,6.4756,6.5308,6.5835,6.6036,6.6112,6.6112,6.6112,6.6112,6.6112,6.6112,6.6916,6.869,6.869,6.9353,7.0637,7.2956,7.523,0.0,0.0,0.0,0.0,0.0,0.0,3.7072,3.8125,3.9171,4.1383,4.3097,4.4456,4.5135,4.639,4.7395,4.7448,4.775,4.8339,4.9397,5.0498,5.1353,5.2042,5.2779,5.3513,5.4362,5.4156,5.4361,5.5199,5.6461,5.746,5.799,5.8675,5.8956,5.873,5.893,5.9182,5.9483,5.9483,5.9483,5.9483,5.9483,5.9483,5.9483,5.9483,5.9483,5.9483,5.9483,5.9483,5.9483,5.9483,5.9483,5.9483,5.9483,5.9483,5.9483,5.9483,5.9483,5.9483,5.9483,5.9483,5.9483,5.9483,5.9483,5.9533,5.9759,6.006,6.0412,6.0889,6.1592,6.2295,6.2621,6.2948,6.3124,6.2898,6.2822,6.2822,6.2822,6.2822,6.2822,6.2822,6.2822,6.2822,6.2822,6.3299,6.3701,6.3701,6.3877,6.4028,6.4028,6.3525,6.3199,6.3199,6.3274,6.3626,6.4404,6.4555,6.5057,6.6036,6.5886,6.5886,6.6112,6.6112,6.6112,6.6112,6.6831,6.8383,7.088,7.0148,7.1123,7.3767,7.5411,7.6898,0.0,0.0,0.0,0.0,0.0,0.0,3.6016,3.7949,3.991,4.1884,4.4106,4.5622,4.5455,4.6954,4.7967,4.7075,4.7364,4.8064,4.894,4.965,5.069,5.2312,5.2091,5.241,5.391,5.3497,5.3512,5.4427,5.5866,5.7242,5.8528,5.9131,5.9207,5.873,5.9156,5.9433,5.9483,5.9483,5.9483,5.9483,5.9483,5.9483,5.9483,5.9483,5.9483,5.9483,5.9483,5.9483,5.9483,5.9483,5.9483,5.9483,5.9483,5.9483,5.9483,5.9483,5.9483,5.9483,5.9483,5.9483,5.9508,5.9558,5.9583,5.9684,6.0261,6.0462,6.0738,6.1868,6.2873,6.3626,6.3676,6.3651,6.3475,6.2948,6.2822,6.2822,6.2822,6.2822,6.2822,6.2822,6.2822,6.2822,6.2822,6.3299,6.3676,6.3601,6.4053,6.4354,6.4304,6.3877,6.3601,6.3601,6.3149,6.3249,6.4304,6.4002,6.4429,6.5936,6.5609,6.5609,6.6086,6.6112,6.6112,6.6112,6.7964,7.0637,7.3873,7.2561,7.3689,7.7164,7.7475,7.7843,0.0,0.0,0.0,0.0,0.0,0.0,0.0,3.8573,3.9257,4.2464,4.3167,4.3839,4.5582,4.6947,4.7873,4.8183,4.8673,4.9011,4.9125,4.9377,5.0124,5.1771,5.187,5.2256,5.3279,5.3472,5.3544,5.3763,5.5602,5.7069,5.7976,5.8554,5.8805,5.873,5.8805,5.9081,5.9483,5.9483,5.9483,5.9483,5.9483,5.9483,5.9483,5.9483,5.9483,5.9483,5.9483,5.9483,5.9483,5.9483,5.9483,5.9483,5.9483,5.9483,5.9483,5.9483,5.9483,5.9483,5.9483,5.9483,5.9558,6.001,6.0161,6.0261,6.0839,6.1316,6.1918,6.3048,6.3199,6.3099,6.3576,6.335,6.2973,6.2847,6.2822,6.2822,6.2822,6.2822,6.2822,6.2822,6.2822,6.2822,6.2822,6.3299,6.3525,6.3073,6.3475,6.3676,6.3199,6.3048,6.2998,6.2998,6.2898,6.3099,6.3776,6.4128,6.463,6.5409,6.576,6.5986,6.6112,6.6112,6.6112,6.6112,6.9188,7.1845,7.3873,7.501,7.6179,7.7475,7.7549,7.799,0.0,0.0,0.0,3.2309,0.0,0.0,0.0,3.7996,3.9369,4.1756,4.3257,4.465,4.6168,4.7135,4.7675,4.7764,4.8453,4.8837,4.8439,4.9124,5.0023,5.1135,5.1036,5.1407,5.2742,5.3027,5.3643,5.4942,5.5778,5.6871,5.8202,5.8554,5.883,5.9106,5.9106,5.9232,5.9483,5.9483,5.9483,5.9483,5.9483,5.9483,5.9483,5.9483,5.9483,5.9483,5.9483,5.9483,5.9483,5.9483,5.9483,5.9483,5.9483,5.9483,5.9483,5.9483,5.9483,5.9533,5.9809,5.991,6.001,6.0563,6.0738,6.0864,6.1416,6.2169,6.3023,6.3852,6.3877,6.3701,6.4002,6.3676,6.3174,6.2898,6.2822,6.2822,6.2822,6.2822,6.2822,6.2822,6.2822,6.2822,6.2822,6.3073,6.3174,6.2873,6.3073,6.3149,6.2873,6.2822,6.2822,6.2822,6.2822,6.3048,6.3651,6.3927,6.4429,6.5233,6.5559,6.5835,6.6112,6.6112,6.6916,6.8607,7.0393,7.2561,7.5164,7.6057,7.6762,7.7357,7.7549,7.7917,0.0,0.0,0.0,0.0,0.0,3.4084,0.0,0.0,0.0,4.1009,4.3247,4.5238,4.6116,4.6907,4.7153,4.6414,4.7636,0.0,0.0,4.8784,0.0,5.0571,5.0372,5.0684,5.1828,5.2492,5.3861,5.6303,5.6424,5.7019,5.8603,5.873,5.8956,5.9483,5.9483,5.9483,5.9483,5.9483,5.9483,5.9483,5.9483,5.9483,5.9483,5.9483,5.9483,5.9483,5.9483,5.9483,5.9483,5.9483,5.9483,5.9483,5.9483,5.9483,5.9483,5.9483,5.9558,5.9709,6.0161,6.0387,6.0588,6.114,6.1416,6.1592,6.2019,6.2873,6.3776,6.4203,6.4329,6.4329,6.4329,6.3927,6.34,6.2948,6.2822,6.2822,6.2822,6.2822,6.2822,6.2822,6.2822,6.2822,6.2822,6.2822,6.2822,6.2822,6.2822,6.2822,6.2822,6.2822,6.2822,6.2822,6.2822,6.3023,6.3475,6.3626,6.4053,6.4931,6.5183,6.5484,6.5936,6.6379,6.8048,7.1203,7.1605,7.3376,7.6538,7.6538,7.6762,7.7238,7.7475,7.7843,0.0,0.0,0.0,0.0,3.6166,0.0,0.0,0.0,4.1057,4.1591,0.0,4.2718,4.3921,0.0,0.0,0.0,4.6731,0.0,4.603,4.7996,4.9831,5.021,5.0882,5.0987,5.0084,5.2188,5.4595,5.6749,5.7564,5.8154,5.8653,5.873,5.8956,5.9483,5.9483,5.9483,5.9483,5.9483,5.9483,5.9483,5.9483,5.9483,5.9483,5.9483,5.9483,5.9483,5.9483,5.9483,5.9483,5.9483,5.9483,5.9483,5.9483,5.9483,5.9483,5.9483,5.9809,6.0236,6.0286,6.0663,6.119,6.1743,6.2245,6.2647,6.2722,6.3174,6.3701,6.3751,6.3776,6.3776,6.3776,6.335,6.2898,6.2847,6.2822,6.2822,6.2822,6.2822,6.2822,6.2822,6.2822,6.2822,6.2822,6.2822,6.2822,6.2822,6.2822,6.2822,6.2822,6.2822,6.2822,6.2822,6.2822,6.2847,6.2923,6.34,6.3751,6.3877,6.4756,6.5308,6.5383,6.7312,6.9353,7.1284,7.2826,7.4598,7.6538,7.6538,7.6837,7.7549,7.7549,7.799,0.0,0.0,0.0,0.0,0.0,0.0,3.8487,0.0,3.8817,3.9439,0.0,0.0,0.0,0.0,0.0,0.0,4.6502,4.738,0.0,0.0,4.9511,0.0,0.0,0.0,5.1196,5.4133,5.5877,5.5619,5.7497,5.8365,5.7725,5.8654,5.9408,5.996,5.996,5.996,5.996,5.9659,5.9483,5.9483,5.9483,5.9483,5.9483,5.9483,5.9483,5.9483,5.9483,5.9483,5.9483,5.9483,5.9483,5.9533,5.9859,5.996,5.996,5.996,6.0337,6.0864,6.119,6.1441,6.1743,6.2295,6.2647,6.2898,6.3224,6.3701,6.4128,6.4128,6.4128,6.4078,6.3776,6.3249,6.2822,6.2822,6.2822,6.2822,6.2822,6.2822,6.2822,6.2822,6.2822,6.2822,6.2822,6.2822,6.2822,6.2822,6.2822,6.2822,6.2822,6.2822,6.2948,6.3299,6.3324,6.345,6.3751,6.4304,6.463,6.463,6.5333,6.6246,6.7209,6.8169,6.9985,7.2747,7.3533,7.4752,7.6538,7.6687,7.7135,7.7623,7.7623,7.7917,3.6544,0.0,0.0,0.0,0.0,0.0,0.0,0.0,0.0,0.0,0.0,0.0,0.0,0.0,0.0,0.0,0.0,4.5924,0.0,4.6979,0.0,0.0,0.0,0.0,0.0,5.5485,5.6722,5.5343,5.7798,5.8768,5.75,5.8755,5.9759,6.0311,6.0462,6.0487,6.0311,5.991,5.9633,5.9483,5.9483,5.9483,5.9483,5.9483,5.9483,5.9483,5.9483,5.9483,5.9483,5.9483,5.9583,5.9759,6.0161,6.0512,6.0763,6.0613,6.0914,6.1466,6.1868,6.2094,6.2295,6.2697,6.2923,6.3124,6.3375,6.3927,6.4404,6.4103,6.4128,6.4128,6.3601,6.3149,6.2822,6.2822,6.2822,6.2822,6.2822,6.2822,6.2822,6.2822,6.2822,6.2822,6.2822,6.2822,6.2822,6.2822,6.2822,6.2898,6.3048,6.2923,6.3099,6.3827,6.3776,6.3902,6.4429,6.4831,6.5132,6.5283,6.6145,6.7246,6.8607,6.9601,7.1284,7.3873,7.4366,7.5316,7.6687,7.6941,7.7357,7.777,7.777,7.799,0.0,0.0,0.0,3.9171,4.0618,4.1897,4.25,4.3982,4.4658,0.0,0.0,0.0,0.0,0.0,0.0,0.0,0.0,0.0,0.0,0.0,0.0,0.0,0.0,0.0,0.0,5.5485,5.6721,0.0,5.9092,5.9939,5.8678,5.9207,5.9759,6.0311,6.0864,6.0889,6.0337,6.0311,6.001,5.9483,5.9483,5.9483,5.9483,5.9483,5.9483,5.9483,5.9483,5.9483,5.9483,5.9483,5.9809,6.0286,6.0311,6.0989,6.1893,6.1341,6.1492,6.1994,6.1994,6.2345,6.2797,6.2822,6.3199,6.3576,6.3023,6.3601,6.4254,6.3174,6.3299,6.3576,6.2998,6.2847,6.2822,6.2822,6.2822,6.2822,6.2822,6.2822,6.2822,6.2822,6.2822,6.2822,6.2822,6.2822,6.2822,6.2822,6.2822,6.3023,6.3601,6.3174,6.3249,6.4329,6.4002,6.3902,6.4429,6.4479,6.4731,6.5258,6.6913,6.8115,6.869,7.1925,7.3795,7.3873,7.5573,7.6612,7.709,7.709,7.7431,7.8209,7.8209,7.8427,3.9033,3.9845,4.0846,3.9983,4.1563,4.3499,4.3982,4.3841,0.0,0.0,0.0,0.0,0.0,0.0,0.0,0.0,0.0,0.0,0.0,0.0,0.0,0.0,0.0,0.0,0.0,0.0,0.0,0.0,5.7825,0.0,5.76,5.8805,5.9935,6.0864,6.109,6.109,6.0889,6.0512,6.0035,5.9483,5.9483,5.9483,5.9483,5.9483,5.9483,5.9483,5.9483,5.9483,5.9533,5.9885,6.0161,6.0387,6.114,6.1667,6.1994,6.1793,6.2069,6.2546,6.2546,6.2672,6.2898,6.3274,6.3274,6.3224,6.3751,6.3927,6.3877,6.35,6.355,6.355,6.2973,6.2822,6.2822,6.2822,6.2822,6.2822,6.2822,6.2822,6.2822,6.2822,6.2822,6.2822,6.2822,6.2822,6.2822,6.2822,6.3149,6.3324,6.3149,6.3274,6.355,6.3927,6.3802,6.3902,6.4429,6.4454,6.4555,6.4731,6.6764,6.848,6.9803,7.2447,7.4444,7.5573,7.6208,7.6687,7.709,7.7283,7.7696,7.8209,7.8499,7.8644,4.0771,4.155,4.2357,4.1595,4.2727,4.412,4.456,4.4503,4.4339,0.0,0.0,0.0,0.0,0.0,0.0,0.0,0.0,0.0,0.0,4.5321,0.0,0.0,0.0,0.0,0.0,0.0,0.0,0.0,0.0,0.0,0.0,5.8704,6.001,6.114,6.1366,6.1466,6.1466,6.0914,6.0337,5.9784,5.9583,5.9483,5.9483,5.9483,5.9483,5.9483,5.9483,5.9608,5.9809,6.0161,6.0563,6.0989,6.1718,6.2119,6.2295,6.2295,6.2521,6.2822,6.2822,6.2822,6.2898,6.3249,6.3274,6.3224,6.3726,6.3802,6.3701,6.3701,6.355,6.335,6.3174,6.2973,6.2822,6.2822,6.2822,6.2822,6.2822,6.2822,6.2822,6.2822,6.2822,6.2822,6.2822,6.2822,6.2822,6.2822,6.3149,6.3324,6.3149,6.3274,6.3525,6.3927,6.3802,6.3902,6.4429,6.4454,6.4705,6.5346,6.7331,6.9214,7.0956,7.3002,7.4629,7.5766,7.5998,7.6412,7.696,7.7593,7.8272,7.8784,7.9003,7.9148]}]]